[[{"header":{"parameterUnit":"m.s-1","parameterCategory":1,"la1":31.0,"la2":29.5877,"lo1":-88.7671,"lo2":-86.6584,"dy":0.0162,"dx":0.0185,"nx":115,"ny":88,"refTime":"2026-05-18T00:00:00:Z","depth":0,"parameterNumber":2,"parameterNumberName":"U-component_of_WINDS"},"data":[0.0,0.0,0.0,0.0,0.0,0.0,0.0,0.0,0.0,0.0,0.0,0.0,0.0,0.0,0.0,0.0,0.0,0.0,0.0,0.0,0.0,0.0,0.0,0.0,0.0,0.0,0.0,0.0,0.0,0.0,0.0,0.0,0.0,0.0,0.0,0.0,0.0,0.0,0.0,0.0,0.0,0.0,0.0,0.0,0.0,0.0,0.0,0.0,0.0,0.0,0.0,0.0,0.0,0.0,0.0,0.0,0.0,0.0,0.0,0.0,0.0,0.0,0.0,0.0,0.0,0.0,0.0,0.0,0.0,0.0,0.0,0.0,0.0,0.0,0.0,0.0,0.0,0.0,0.0,0.0,0.0,0.0,0.0,0.0,0.0,0.0,0.0,0.0,0.0,0.0,0.0,0.0,0.0,0.0,0.0,0.0,0.0,0.0,0.0,0.0,0.0,0.0,0.0,0.0,0.0,0.0,0.0,0.0,0.0,0.0,0.0,0.0,0.0,0.0,0.0,0.0,0.0,0.0,0.0,0.0,0.0,0.0,0.0,0.0,0.0,0.0,0.0,0.0,0.0,0.0,0.0,0.0,0.0,0.0,0.0,0.0,0.0,0.0,0.0,0.0,0.0,0.0,0.0,0.0,0.0,0.0,0.0,0.0,0.0,0.0,0.0,0.0,0.0,0.0,0.0,0.0,0.0,0.0,0.0,0.0,0.0,0.0,0.0,0.0,0.0,0.0,0.0,0.0,0.0,0.0,0.0,0.0,0.0,0.0,0.0,0.0,0.0,0.0,0.0,0.0,0.0,0.0,0.0,0.0,0.0,0.0,0.0,0.0,0.0,0.0,0.0,0.0,0.0,0.0,0.0,0.0,0.0,0.0,0.0,0.0,0.0,0.0,0.0,0.0,0.0,0.0,0.0,0.0,0.0,0.0,0.0,0.0,0.0,0.0,0.0,0.0,0.0,0.0,0.0,0.0,0.0,0.0,0.0,0.0,0.0,0.0,0.0,0.0,0.0,0.0,0.0,0.0,0.0,0.0,0.0,0.0,0.0,0.0,0.0,0.0,0.0,0.0,0.0,0.0,0.0,0.0,0.0,0.0,0.0,0.0,0.0,0.0,0.0,0.0,0.0,0.0,0.0,0.0,0.0,0.0,0.0,0.0,0.0,0.0,0.0,0.0,0.0,0.0,0.0,0.0,0.0,0.0,0.0,0.0,0.0,0.0,0.0,0.0,0.0,0.0,0.0,0.0,0.0,0.0,0.0,0.0,0.0,0.0,0.0,0.0,0.0,0.0,0.0,0.0,0.0,0.0,0.0,0.0,0.0,0.0,0.0,0.0,0.0,0.0,0.0,0.0,0.0,0.0,0.0,0.0,0.0,0.0,0.0,0.0,0.0,0.0,0.0,0.0,0.0,0.0,0.0,0.0,0.0,0.0,0.0,0.0,0.0,0.0,0.0,0.0,0.0,0.0,0.0,0.0,0.0,0.0,0.0,0.0,0.0,0.0,0.0,0.0,0.0,0.0,0.0,0.0,0.0,0.0,0.0,0.0,0.0,0.0,0.0,0.0,0.0,0.0,0.0,0.0,0.0,0.0,0.0,0.0,0.0,0.0,0.0,0.0,0.0,0.0,0.0,0.0,0.0,0.0,0.0,0.0,0.0,0.0,0.0,0.0,0.0,0.0,0.0,0.0,0.0,0.0,0.0,0.0,0.0,0.0,0.0,0.0,0.0,0.0,0.0,0.0,0.0,0.0,0.0,0.0,0.0,0.0,0.0,0.0,0.0,0.0,0.0,0.0,0.0,0.0,0.0,0.0,0.0,0.0,0.0,0.0,0.0,0.0,0.0,0.0,0.0,0.0,0.0,0.0,0.0,0.0,0.0,0.0,0.0,0.0,0.0,0.0,0.0,0.0,0.0,0.0,0.0,0.0,0.0,0.0,0.0,0.0,0.0,0.0,0.0,0.0,0.0,0.0,0.0,0.0,0.0,0.0,0.0,0.0,0.0,0.0,0.0,0.0,0.0,0.0,0.0,0.0,0.0,0.0,0.0,0.0,0.0,0.0,0.0,0.0,0.0,0.0,0.0,0.0,0.0,0.0,0.0,0.0,0.0,0.0,0.0,0.0,0.0,0.0,0.0,0.0,0.0,0.0,0.0,0.0,0.0,0.0,0.0,0.0,0.0,0.0,0.0,0.0,0.0,0.0,0.0,0.0,0.0,0.0,0.0,0.0,0.0,0.0,0.0,0.0,0.0,0.0,0.0,0.0,0.0,0.0,0.0,0.0,0.0,0.0,0.0,0.0,0.0,0.0,0.0,0.0,0.0,0.0,0.0,0.0,0.0,0.0,0.0,0.0,0.0,0.0,0.0,0.0,0.0,0.0,0.0,0.0,0.0,0.0,0.0,0.0,0.0,0.0,0.0,0.0,0.0,0.0,0.0,0.0,0.0,0.0,0.0,0.0,0.0,0.0,0.0,0.0,0.0,0.0,0.0,0.0,0.0,0.0,0.0,0.0,0.0,0.0,0.0,0.0,0.0,0.0,0.0,0.0,0.0,0.0,0.0,0.0,0.0,0.0,0.0,0.0,0.0,0.0,0.0,0.0,0.0,0.0,0.0,0.0,0.0,0.0,0.0,0.0,0.0,0.0,0.0,0.0,0.0,0.0,0.0,0.0,0.0,0.0,0.0,0.0,0.0,0.0,0.0,0.0,0.0,0.0,0.0,0.0,0.0,0.0,0.0,0.0,0.0,0.0,0.0,0.0,0.0,0.0,0.0,0.0,0.0,0.0,0.0,0.0,0.0,0.0,0.0,0.0,0.0,0.0,0.0,0.0,0.0,0.0,0.0,0.0,0.0,0.0,0.0,0.0,0.0,0.0,0.0,0.0,0.0,0.0,0.0,0.0,0.0,0.0,0.0,0.0,0.0,0.0,0.0,0.0,0.0,0.0,0.0,0.0,0.0,0.0,0.0,0.0,0.0,0.0,0.0,0.0,0.0,0.0,0.0,0.0,0.0,0.0,0.0,0.0,0.0,0.0,0.0,0.0,0.0,0.0,0.0,0.0,0.0,0.0,0.0,0.0,0.0,0.0,0.0,0.0,0.0,0.0,0.0,0.0,0.0,0.0,0.0,0.0,0.0,0.0,0.0,0.0,0.0,0.0,0.0,0.0,0.0,0.0,0.0,0.0,0.0,0.0,0.0,0.0,0.0,0.0,0.0,0.0,0.0,0.0,0.0,0.0,0.0,0.0,0.0,0.0,0.0,0.0,0.0,0.0,0.0,0.0,0.0,0.0,0.0,0.0,0.0,0.0,0.0,0.0,0.0,0.0,0.0,0.0,0.0,0.0,0.0,0.0,0.0,0.0,0.0,0.0,0.0,0.0,0.0,0.0,0.0,0.0,0.0,0.0,0.0,0.0,0.0,0.0,0.0,0.0,0.0,0.0,0.0,0.0,0.0,0.0,0.0,0.0,0.0,0.0,0.0,0.0,0.0,0.0,0.0,0.0,0.0,0.0,0.0,0.0,0.0,0.0,0.0,0.0,0.0,0.0,0.0,0.0,0.0,0.0,0.0,0.0,0.0,0.0,0.0,0.0,0.0,0.0,0.0,0.0,0.0,0.0,0.0,0.0,0.0,0.0,0.0,0.0,0.0,0.0,0.0,0.0,0.0,0.0,0.0,0.0,0.0,0.0,0.0,0.0,0.0,0.0,0.0,0.0,0.0,0.0,0.0,0.0,0.0,0.0,0.0,0.0,0.0,0.0,0.0,0.0,0.0,0.0,0.0,0.0,0.0,0.0,0.0,0.0,0.0,0.0,0.0,0.0,0.0,0.0,0.0,0.0,0.0,0.0,0.0,0.0,0.0,0.0,0.0,0.0,0.0,0.0,0.0,0.0,0.0,0.0,0.0,0.0,0.0,0.0,0.0,0.0,0.0,0.0,0.0,0.0,0.0,0.0,0.0,0.0,0.0,0.0,0.0,0.0,0.0,0.0,0.0,0.0,0.0,0.0,0.0,0.0,0.0,0.0,0.0,0.0,0.0,0.0,0.0,0.0,0.0,0.0,0.0,0.0,0.0,0.0,0.0,0.0,0.0,0.0,0.0,0.0,0.0,0.0,0.0,0.0,0.0,0.0,0.0,0.0,0.0,0.0,0.0,0.0,0.0,0.0,0.0,0.0,0.0,0.0,0.0,0.0,0.0,0.0,0.0,0.0,0.0,0.0,0.0,0.0,0.0,0.0,0.0,0.0,0.0,0.0,0.0,0.0,0.0,0.0,-2.9336,0.0,0.0,0.0,0.0,0.0,0.0,0.0,0.0,0.0,0.0,0.0,0.0,0.0,0.0,0.0,0.0,0.0,0.0,0.0,0.0,0.0,0.0,0.0,0.0,0.0,0.0,0.0,0.0,0.0,0.0,0.0,0.0,0.0,0.0,0.0,0.0,0.0,0.0,0.0,0.0,0.0,0.0,0.0,0.0,0.0,0.0,0.0,0.0,0.0,0.0,0.0,0.0,0.0,0.0,0.0,0.0,0.0,0.0,0.0,0.0,0.0,0.0,0.0,0.0,0.0,0.0,0.0,0.0,0.0,0.0,0.0,0.0,0.0,0.0,0.0,0.0,0.0,0.0,0.0,0.0,0.0,0.0,0.0,0.0,0.0,0.0,0.0,0.0,0.0,0.0,0.0,0.0,0.0,0.0,0.0,0.0,0.0,0.0,0.0,0.0,0.0,0.0,0.0,0.0,0.0,0.0,0.0,0.0,0.0,0.0,-3.2692,-3.2349,-3.1535,-3.0691,-2.9867,0.0,0.0,0.0,0.0,0.0,0.0,0.0,0.0,0.0,0.0,0.0,0.0,0.0,0.0,0.0,0.0,0.0,0.0,0.0,0.0,0.0,0.0,0.0,0.0,0.0,0.0,0.0,0.0,0.0,0.0,0.0,0.0,0.0,0.0,0.0,0.0,0.0,0.0,0.0,0.0,0.0,0.0,0.0,0.0,0.0,0.0,0.0,0.0,0.0,0.0,0.0,0.0,0.0,0.0,0.0,0.0,0.0,0.0,0.0,0.0,0.0,0.0,0.0,0.0,0.0,0.0,0.0,0.0,0.0,0.0,0.0,0.0,0.0,0.0,0.0,0.0,0.0,0.0,0.0,0.0,0.0,0.0,0.0,0.0,0.0,0.0,0.0,0.0,0.0,0.0,0.0,0.0,0.0,0.0,0.0,0.0,0.0,0.0,0.0,0.0,0.0,0.0,0.0,0.0,0.0,0.0,0.0,0.0,0.0,0.0,0.0,0.0,-3.2056,-3.1109,-3.0008,0.0,0.0,0.0,0.0,0.0,0.0,0.0,0.0,0.0,0.0,0.0,0.0,0.0,0.0,0.0,0.0,0.0,0.0,0.0,0.0,0.0,0.0,0.0,0.0,0.0,0.0,0.0,0.0,0.0,0.0,0.0,0.0,0.0,0.0,0.0,0.0,0.0,0.0,0.0,0.0,0.0,0.0,0.0,0.0,0.0,0.0,0.0,0.0,0.0,0.0,0.0,0.0,0.0,0.0,0.0,0.0,0.0,0.0,0.0,0.0,0.0,0.0,0.0,0.0,0.0,0.0,0.0,0.0,0.0,0.0,0.0,0.0,0.0,0.0,0.0,0.0,0.0,0.0,0.0,0.0,0.0,0.0,0.0,0.0,0.0,0.0,0.0,0.0,0.0,0.0,0.0,0.0,0.0,0.0,0.0,0.0,0.0,0.0,0.0,0.0,0.0,0.0,0.0,0.0,0.0,0.0,0.0,0.0,0.0,0.0,-3.2807,-3.2805,-3.2024,0.0,-2.9211,0.0,0.0,0.0,0.0,0.0,0.0,0.0,0.0,0.0,0.0,0.0,0.0,0.0,0.0,0.0,0.0,0.0,0.0,0.0,0.0,0.0,0.0,0.0,0.0,0.0,0.0,0.0,0.0,0.0,0.0,0.0,0.0,0.0,0.0,0.0,0.0,0.0,0.0,0.0,0.0,0.0,0.0,0.0,0.0,0.0,0.0,0.0,0.0,0.0,0.0,0.0,0.0,0.0,0.0,0.0,0.0,0.0,0.0,0.0,0.0,0.0,0.0,0.0,0.0,0.0,0.0,0.0,0.0,0.0,0.0,0.0,0.0,0.0,0.0,0.0,0.0,0.0,0.0,0.0,0.0,0.0,0.0,0.0,0.0,0.0,0.0,0.0,0.0,0.0,0.0,0.0,0.0,0.0,0.0,0.0,0.0,0.0,0.0,0.0,0.0,0.0,0.0,0.0,0.0,0.0,0.0,0.0,0.0,0.0,0.0,-3.2641,-3.2672,-3.1453,-3.0388,0.0,0.0,0.0,0.0,0.0,0.0,0.0,0.0,0.0,0.0,0.0,0.0,0.0,0.0,0.0,0.0,0.0,0.0,0.0,0.0,0.0,0.0,0.0,0.0,0.0,0.0,0.0,0.0,0.0,0.0,0.0,0.0,0.0,0.0,0.0,0.0,0.0,0.0,0.0,0.0,0.0,0.0,0.0,0.0,0.0,0.0,0.0,0.0,0.0,0.0,0.0,0.0,0.0,0.0,0.0,0.0,0.0,0.0,0.0,0.0,0.0,0.0,0.0,0.0,0.0,0.0,0.0,0.0,0.0,0.0,0.0,0.0,0.0,0.0,0.0,0.0,0.0,0.0,0.0,0.0,0.0,0.0,0.0,0.0,0.0,0.0,0.0,0.0,0.0,0.0,0.0,0.0,0.0,0.0,0.0,0.0,0.0,0.0,0.0,0.0,0.0,0.0,0.0,0.0,0.0,0.0,0.0,0.0,0.0,0.0,-3.2457,-3.2506,-3.2503,-3.1186,-3.0282,-2.9889,0.0,0.0,0.0,0.0,0.0,0.0,0.0,0.0,0.0,0.0,0.0,0.0,0.0,0.0,0.0,0.0,0.0,0.0,0.0,0.0,0.0,0.0,0.0,0.0,0.0,0.0,0.0,0.0,0.0,0.0,0.0,0.0,0.0,0.0,0.0,0.0,0.0,0.0,0.0,0.0,0.0,0.0,0.0,0.0,0.0,0.0,0.0,0.0,0.0,0.0,0.0,0.0,0.0,0.0,0.0,0.0,0.0,0.0,0.0,0.0,0.0,0.0,0.0,0.0,0.0,0.0,0.0,0.0,0.0,0.0,0.0,0.0,0.0,0.0,0.0,0.0,0.0,0.0,0.0,0.0,0.0,0.0,0.0,0.0,0.0,0.0,0.0,0.0,0.0,0.0,0.0,0.0,0.0,0.0,0.0,0.0,0.0,0.0,0.0,0.0,0.0,0.0,0.0,0.0,0.0,0.0,0.0,0.0,-3.2423,-3.2406,-3.244,-3.2472,-3.1564,-3.0676,0.0,0.0,0.0,0.0,0.0,0.0,0.0,0.0,0.0,0.0,0.0,0.0,0.0,0.0,0.0,0.0,0.0,0.0,0.0,0.0,0.0,0.0,0.0,0.0,0.0,0.0,0.0,0.0,0.0,0.0,0.0,0.0,0.0,0.0,0.0,0.0,0.0,0.0,0.0,0.0,0.0,0.0,0.0,0.0,0.0,0.0,0.0,0.0,0.0,0.0,0.0,0.0,0.0,0.0,0.0,0.0,0.0,0.0,0.0,0.0,0.0,0.0,0.0,0.0,0.0,0.0,0.0,0.0,0.0,0.0,0.0,0.0,0.0,0.0,0.0,0.0,0.0,0.0,0.0,0.0,0.0,0.0,0.0,0.0,0.0,0.0,0.0,0.0,0.0,0.0,0.0,0.0,0.0,0.0,0.0,0.0,0.0,0.0,0.0,0.0,0.0,0.0,0.0,0.0,0.0,0.0,0.0,0.0,0.0,-3.2747,-3.2441,-3.2284,-3.2284,-3.1532,-3.0922,0.0,0.0,0.0,0.0,0.0,0.0,0.0,0.0,0.0,0.0,0.0,0.0,0.0,0.0,0.0,0.0,0.0,0.0,0.0,0.0,0.0,0.0,0.0,0.0,0.0,0.0,0.0,0.0,0.0,0.0,0.0,0.0,0.0,0.0,0.0,0.0,0.0,0.0,0.0,0.0,0.0,0.0,0.0,0.0,0.0,0.0,0.0,0.0,0.0,0.0,0.0,0.0,0.0,0.0,0.0,0.0,0.0,0.0,0.0,0.0,0.0,0.0,0.0,0.0,0.0,0.0,0.0,0.0,0.0,0.0,0.0,0.0,0.0,0.0,0.0,0.0,0.0,0.0,0.0,0.0,0.0,0.0,0.0,0.0,0.0,0.0,0.0,0.0,0.0,0.0,0.0,0.0,0.0,0.0,0.0,0.0,0.0,0.0,0.0,0.0,0.0,0.0,0.0,0.0,0.0,0.0,0.0,0.0,0.0,-3.2902,0.0,-3.2161,-3.2144,-3.1638,-3.1168,0.0,0.0,0.0,0.0,0.0,0.0,0.0,0.0,0.0,0.0,0.0,0.0,0.0,0.0,0.0,0.0,0.0,0.0,0.0,0.0,0.0,0.0,0.0,0.0,0.0,0.0,0.0,0.0,0.0,0.0,0.0,0.0,0.0,0.0,0.0,0.0,0.0,0.0,0.0,0.0,0.0,0.0,0.0,0.0,0.0,0.0,0.0,0.0,0.0,0.0,0.0,0.0,0.0,0.0,0.0,0.0,0.0,0.0,0.0,0.0,0.0,0.0,0.0,0.0,0.0,0.0,0.0,0.0,0.0,0.0,0.0,0.0,0.0,0.0,0.0,0.0,0.0,0.0,0.0,0.0,0.0,0.0,0.0,0.0,0.0,0.0,0.0,0.0,0.0,0.0,0.0,0.0,0.0,0.0,0.0,0.0,0.0,0.0,0.0,0.0,0.0,0.0,0.0,0.0,0.0,0.0,0.0,0.0,-3.3842,-3.2951,-3.2434,-3.2177,-3.2108,-3.1983,-3.1529,0.0,0.0,0.0,0.0,0.0,0.0,0.0,0.0,0.0,0.0,0.0,0.0,0.0,0.0,0.0,0.0,0.0,0.0,0.0,0.0,0.0,0.0,0.0,0.0,0.0,0.0,0.0,0.0,0.0,0.0,0.0,0.0,0.0,0.0,0.0,0.0,0.0,0.0,0.0,0.0,0.0,0.0,0.0,0.0,0.0,0.0,0.0,0.0,0.0,0.0,0.0,0.0,0.0,0.0,0.0,0.0,0.0,0.0,0.0,0.0,0.0,0.0,0.0,0.0,0.0,0.0,0.0,0.0,0.0,0.0,0.0,0.0,0.0,0.0,0.0,0.0,0.0,0.0,0.0,0.0,0.0,0.0,0.0,0.0,0.0,0.0,0.0,0.0,0.0,0.0,0.0,0.0,0.0,0.0,0.0,0.0,0.0,0.0,0.0,0.0,0.0,0.0,0.0,0.0,0.0,0.0,0.0,0.0,0.0,-3.3453,-3.3373,-3.3074,-3.254,-3.2467,-3.2084,0.0,0.0,0.0,0.0,0.0,0.0,0.0,0.0,0.0,0.0,0.0,0.0,0.0,0.0,0.0,0.0,0.0,0.0,0.0,0.0,0.0,0.0,0.0,0.0,0.0,0.0,0.0,0.0,0.0,0.0,0.0,0.0,0.0,0.0,0.0,0.0,0.0,0.0,0.0,0.0,0.0,0.0,0.0,0.0,0.0,0.0,0.0,0.0,0.0,0.0,0.0,0.0,0.0,0.0,0.0,0.0,0.0,0.0,0.0,0.0,0.0,0.0,0.0,0.0,0.0,0.0,0.0,0.0,0.0,0.0,0.0,0.0,0.0,0.0,0.0,0.0,0.0,0.0,0.0,0.0,0.0,0.0,0.0,0.0,0.0,0.0,0.0,0.0,0.0,0.0,0.0,0.0,0.0,0.0,0.0,0.0,0.0,0.0,0.0,0.0,0.0,0.0,0.0,0.0,0.0,0.0,0.0,0.0,0.0,-3.4061,-3.3879,-3.3495,-3.2943,-3.2673,-3.2273,-3.169,0.0,0.0,0.0,0.0,0.0,0.0,0.0,0.0,0.0,0.0,0.0,0.0,0.0,0.0,0.0,0.0,0.0,0.0,0.0,0.0,0.0,0.0,0.0,0.0,0.0,0.0,0.0,0.0,0.0,0.0,0.0,0.0,0.0,0.0,0.0,0.0,0.0,0.0,0.0,0.0,0.0,0.0,0.0,0.0,0.0,0.0,0.0,0.0,0.0,0.0,0.0,0.0,0.0,0.0,0.0,0.0,0.0,0.0,0.0,0.0,0.0,0.0,0.0,0.0,0.0,0.0,0.0,0.0,0.0,0.0,0.0,0.0,0.0,0.0,0.0,0.0,0.0,0.0,0.0,0.0,0.0,0.0,0.0,0.0,0.0,0.0,0.0,0.0,0.0,0.0,0.0,0.0,0.0,0.0,0.0,0.0,0.0,0.0,0.0,0.0,0.0,0.0,0.0,0.0,0.0,0.0,0.0,0.0,-3.4684,-3.3952,-3.3478,-3.3296,-3.2697,-3.2156,0.0,0.0,0.0,0.0,0.0,0.0,0.0,0.0,0.0,0.0,0.0,0.0,0.0,0.0,0.0,0.0,0.0,0.0,0.0,0.0,0.0,0.0,0.0,0.0,0.0,0.0,0.0,0.0,0.0,0.0,0.0,0.0,0.0,0.0,0.0,0.0,0.0,0.0,0.0,0.0,0.0,0.0,0.0,0.0,0.0,0.0,0.0,0.0,0.0,0.0,0.0,0.0,0.0,0.0,0.0,0.0,0.0,0.0,0.0,0.0,0.0,0.0,0.0,0.0,0.0,0.0,0.0,0.0,0.0,0.0,0.0,0.0,0.0,0.0,0.0,0.0,0.0,0.0,0.0,0.0,0.0,0.0,0.0,0.0,0.0,0.0,0.0,0.0,0.0,0.0,0.0,0.0,0.0,0.0,0.0,0.0,0.0,0.0,0.0,0.0,0.0,0.0,0.0,0.0,0.0,0.0,0.0,0.0,0.0,-3.4292,-3.4227,-3.3942,-3.3468,-3.2991,-3.2246,0.0,0.0,0.0,0.0,0.0,0.0,0.0,0.0,0.0,0.0,0.0,0.0,0.0,0.0,0.0,0.0,0.0,0.0,0.0,0.0,0.0,0.0,0.0,0.0,0.0,0.0,0.0,0.0,0.0,0.0,0.0,0.0,0.0,0.0,0.0,0.0,0.0,0.0,0.0,0.0,0.0,0.0,0.0,0.0,0.0,0.0,0.0,0.0,0.0,0.0,0.0,0.0,0.0,0.0,0.0,0.0,0.0,0.0,0.0,0.0,0.0,0.0,0.0,0.0,0.0,0.0,0.0,0.0,0.0,0.0,0.0,0.0,0.0,0.0,0.0,0.0,0.0,0.0,0.0,0.0,0.0,0.0,0.0,0.0,0.0,0.0,0.0,0.0,0.0,0.0,0.0,0.0,0.0,0.0,0.0,0.0,0.0,0.0,0.0,0.0,0.0,0.0,0.0,0.0,0.0,0.0,0.0,0.0,-3.3792,-3.4438,-3.3905,-3.3548,-3.3514,-3.2962,-3.2312,0.0,0.0,0.0,0.0,0.0,0.0,0.0,0.0,0.0,0.0,0.0,0.0,0.0,0.0,0.0,0.0,0.0,0.0,0.0,0.0,0.0,0.0,0.0,0.0,0.0,0.0,0.0,0.0,0.0,0.0,0.0,0.0,0.0,0.0,0.0,0.0,0.0,0.0,0.0,0.0,0.0,0.0,0.0,0.0,0.0,0.0,0.0,0.0,0.0,0.0,0.0,0.0,0.0,0.0,0.0,0.0,0.0,0.0,0.0,0.0,0.0,0.0,0.0,0.0,0.0,0.0,0.0,0.0,0.0,0.0,0.0,0.0,0.0,0.0,0.0,0.0,0.0,0.0,0.0,0.0,0.0,0.0,0.0,0.0,0.0,0.0,0.0,0.0,0.0,0.0,0.0,0.0,0.0,0.0,0.0,0.0,0.0,0.0,0.0,0.0,0.0,0.0,0.0,0.0,0.0,0.0,0.0,0.0,-3.3497,-3.474,-3.3425,-3.3003,-3.3534,-3.2803,-3.2358,0.0,0.0,0.0,0.0,0.0,0.0,0.0,0.0,0.0,0.0,0.0,0.0,0.0,0.0,0.0,0.0,0.0,0.0,0.0,0.0,0.0,0.0,0.0,0.0,0.0,0.0,0.0,0.0,0.0,0.0,0.0,0.0,0.0,0.0,0.0,0.0,0.0,0.0,0.0,0.0,0.0,0.0,0.0,0.0,0.0,0.0,0.0,0.0,0.0,0.0,0.0,0.0,0.0,0.0,0.0,0.0,0.0,0.0,0.0,0.0,0.0,0.0,0.0,0.0,0.0,0.0,0.0,0.0,0.0,0.0,0.0,0.0,0.0,0.0,0.0,0.0,0.0,0.0,0.0,0.0,0.0,0.0,0.0,0.0,0.0,0.0,0.0,0.0,0.0,0.0,0.0,0.0,0.0,0.0,0.0,0.0,0.0,0.0,0.0,0.0,0.0,0.0,0.0,0.0,0.0,0.0,0.0,0.0,-3.4376,-3.4559,-3.4252,-3.4131,-3.4271,-3.2968,-3.2099,0.0,0.0,0.0,0.0,0.0,0.0,0.0,0.0,0.0,0.0,0.0,0.0,0.0,0.0,0.0,0.0,0.0,0.0,0.0,0.0,0.0,0.0,0.0,0.0,0.0,0.0,0.0,0.0,0.0,0.0,0.0,0.0,0.0,0.0,0.0,0.0,0.0,0.0,0.0,0.0,0.0,0.0,0.0,0.0,0.0,0.0,0.0,0.0,-3.8455,0.0,0.0,0.0,0.0,0.0,0.0,0.0,0.0,0.0,0.0,0.0,0.0,0.0,0.0,0.0,0.0,0.0,0.0,0.0,0.0,0.0,0.0,0.0,0.0,0.0,0.0,0.0,0.0,0.0,0.0,0.0,0.0,0.0,0.0,0.0,0.0,0.0,0.0,0.0,0.0,0.0,0.0,0.0,0.0,0.0,0.0,0.0,0.0,0.0,0.0,0.0,0.0,0.0,0.0,0.0,0.0,0.0,0.0,0.0,-3.4622,-3.4936,-3.4683,-3.4503,-3.4459,-3.3472,-3.2732,0.0,0.0,0.0,0.0,0.0,0.0,0.0,0.0,0.0,0.0,0.0,0.0,0.0,0.0,0.0,0.0,0.0,0.0,0.0,0.0,0.0,0.0,0.0,0.0,0.0,0.0,0.0,0.0,0.0,0.0,0.0,0.0,0.0,0.0,0.0,0.0,0.0,0.0,0.0,0.0,0.0,0.0,0.0,0.0,0.0,0.0,0.0,0.0,0.0,0.0,0.0,0.0,0.0,0.0,0.0,0.0,0.0,0.0,0.0,0.0,0.0,0.0,0.0,0.0,0.0,0.0,0.0,0.0,0.0,0.0,0.0,0.0,0.0,0.0,0.0,0.0,0.0,0.0,0.0,0.0,0.0,0.0,0.0,0.0,0.0,0.0,0.0,0.0,0.0,0.0,0.0,0.0,0.0,0.0,0.0,0.0,0.0,0.0,0.0,0.0,0.0,0.0,0.0,0.0,0.0,0.0,0.0,-3.4273,-3.4758,-3.5561,-3.5028,-3.4683,-3.4668,-3.4133,-3.3653,-3.3295,0.0,0.0,0.0,0.0,0.0,0.0,0.0,0.0,0.0,0.0,0.0,0.0,0.0,0.0,0.0,0.0,0.0,0.0,0.0,0.0,0.0,0.0,0.0,0.0,0.0,0.0,0.0,0.0,0.0,0.0,0.0,0.0,0.0,0.0,0.0,0.0,0.0,0.0,-3.915,-3.9525,0.0,0.0,0.0,0.0,0.0,0.0,0.0,0.0,-3.8733,0.0,0.0,0.0,0.0,0.0,0.0,0.0,0.0,0.0,0.0,0.0,0.0,0.0,0.0,0.0,0.0,0.0,0.0,0.0,0.0,0.0,0.0,0.0,0.0,0.0,0.0,0.0,0.0,0.0,0.0,0.0,0.0,0.0,0.0,0.0,0.0,0.0,0.0,0.0,0.0,0.0,0.0,0.0,0.0,0.0,0.0,0.0,0.0,0.0,0.0,0.0,0.0,0.0,0.0,0.0,0.0,-3.4364,-3.4659,-3.5296,-3.6282,-3.5684,-3.534,-3.531,-3.4713,-3.4117,-3.3623,0.0,0.0,0.0,0.0,0.0,0.0,0.0,0.0,0.0,0.0,0.0,0.0,0.0,0.0,0.0,0.0,0.0,0.0,0.0,0.0,0.0,0.0,0.0,0.0,0.0,0.0,0.0,0.0,0.0,0.0,0.0,0.0,0.0,0.0,0.0,0.0,0.0,0.0,0.0,-3.9373,-3.9166,0.0,0.0,0.0,0.0,0.0,0.0,0.0,0.0,-3.8409,0.0,0.0,0.0,0.0,0.0,0.0,0.0,0.0,0.0,0.0,0.0,0.0,0.0,0.0,0.0,0.0,0.0,0.0,0.0,0.0,0.0,0.0,0.0,0.0,0.0,0.0,0.0,0.0,0.0,0.0,0.0,0.0,0.0,0.0,0.0,0.0,0.0,0.0,0.0,0.0,0.0,0.0,0.0,0.0,0.0,0.0,0.0,0.0,0.0,0.0,0.0,0.0,0.0,0.0,0.0,-3.4712,-3.5079,-3.5815,-3.6907,-3.6656,-3.6492,-3.6477,-3.5863,-3.5269,0.0,0.0,0.0,0.0,0.0,0.0,0.0,0.0,0.0,0.0,0.0,0.0,0.0,0.0,0.0,0.0,0.0,0.0,0.0,0.0,0.0,0.0,0.0,0.0,0.0,0.0,0.0,0.0,0.0,0.0,0.0,0.0,0.0,0.0,0.0,0.0,0.0,0.0,0.0,0.0,-3.9791,-3.9671,-3.916,0.0,0.0,0.0,0.0,0.0,0.0,-3.8312,-3.833,0.0,0.0,0.0,0.0,0.0,0.0,0.0,0.0,0.0,0.0,0.0,0.0,0.0,0.0,0.0,0.0,0.0,0.0,0.0,0.0,0.0,0.0,0.0,0.0,0.0,0.0,0.0,0.0,0.0,0.0,0.0,0.0,0.0,0.0,0.0,0.0,0.0,0.0,0.0,0.0,0.0,0.0,0.0,0.0,0.0,0.0,0.0,0.0,0.0,0.0,0.0,0.0,0.0,0.0,0.0,-3.4797,-3.5302,-3.6122,-3.7223,-3.7361,-3.7404,-3.7389,-3.6772,-3.6163,0.0,0.0,0.0,0.0,0.0,0.0,0.0,0.0,0.0,0.0,0.0,0.0,0.0,0.0,0.0,0.0,0.0,0.0,0.0,0.0,0.0,0.0,0.0,0.0,0.0,0.0,0.0,0.0,0.0,0.0,0.0,0.0,0.0,0.0,0.0,0.0,0.0,0.0,0.0,0.0,0.0,-3.9866,-3.9032,-3.9325,0.0,0.0,0.0,0.0,-3.842,-3.8325,0.0,0.0,0.0,0.0,0.0,0.0,0.0,0.0,0.0,0.0,0.0,0.0,0.0,0.0,0.0,0.0,0.0,0.0,0.0,0.0,0.0,0.0,0.0,0.0,0.0,0.0,0.0,0.0,0.0,0.0,0.0,0.0,0.0,0.0,0.0,0.0,0.0,0.0,0.0,0.0,0.0,0.0,0.0,0.0,0.0,0.0,0.0,0.0,0.0,0.0,0.0,0.0,0.0,0.0,0.0,0.0,-3.4019,-3.4901,-3.5837,-3.6837,-3.7222,-3.7404,-3.7355,-3.6656,-3.5915,0.0,0.0,0.0,0.0,0.0,0.0,0.0,0.0,0.0,0.0,0.0,0.0,0.0,0.0,0.0,0.0,0.0,0.0,0.0,0.0,0.0,0.0,0.0,0.0,0.0,0.0,0.0,0.0,0.0,0.0,0.0,0.0,0.0,0.0,0.0,0.0,0.0,0.0,0.0,0.0,0.0,-3.8521,-3.9145,-3.8658,-3.824,0.0,0.0,-3.8071,-3.7915,-3.7942,0.0,0.0,0.0,0.0,0.0,0.0,0.0,0.0,0.0,0.0,0.0,0.0,0.0,0.0,0.0,0.0,0.0,0.0,0.0,0.0,0.0,0.0,0.0,0.0,0.0,0.0,0.0,0.0,0.0,0.0,0.0,0.0,0.0,0.0,0.0,0.0,0.0,0.0,0.0,0.0,0.0,0.0,0.0,0.0,0.0,0.0,0.0,0.0,0.0,0.0,0.0,0.0,0.0,0.0,0.0,-3.2633,-3.3571,-3.4477,-3.5434,-3.6455,-3.7197,-3.7339,-3.6742,-3.6537,-3.6049,0.0,0.0,0.0,0.0,0.0,0.0,0.0,0.0,0.0,0.0,0.0,0.0,0.0,0.0,0.0,0.0,0.0,0.0,0.0,0.0,0.0,0.0,0.0,0.0,0.0,0.0,0.0,0.0,0.0,0.0,0.0,0.0,0.0,0.0,0.0,0.0,0.0,0.0,0.0,0.0,0.0,0.0,-3.8193,-3.8055,0.0,0.0,0.0,-3.7731,-3.7232,0.0,0.0,0.0,0.0,0.0,0.0,0.0,0.0,0.0,0.0,0.0,0.0,0.0,0.0,0.0,0.0,0.0,0.0,0.0,0.0,0.0,0.0,0.0,0.0,0.0,0.0,0.0,0.0,0.0,0.0,0.0,0.0,0.0,0.0,0.0,0.0,0.0,0.0,0.0,0.0,0.0,0.0,0.0,0.0,0.0,0.0,0.0,0.0,0.0,0.0,0.0,0.0,0.0,0.0,0.0,0.0,0.0,-3.2896,-3.4083,-3.5047,-3.5814,-3.6852,-3.7021,-3.6223,-3.606,0.0,0.0,0.0,0.0,0.0,0.0,0.0,0.0,0.0,0.0,0.0,0.0,0.0,0.0,0.0,0.0,0.0,0.0,0.0,0.0,0.0,0.0,0.0,0.0,0.0,0.0,0.0,-3.1977,0.0,0.0,0.0,0.0,0.0,0.0,0.0,0.0,0.0,0.0,0.0,0.0,0.0,0.0,-3.7955,-3.7434,-3.7663,-3.7578,0.0,0.0,-3.7558,-3.7082,-3.7611,-3.7856,0.0,0.0,0.0,0.0,0.0,0.0,0.0,0.0,0.0,0.0,0.0,0.0,0.0,0.0,0.0,0.0,0.0,0.0,0.0,0.0,0.0,0.0,0.0,0.0,0.0,0.0,0.0,0.0,0.0,0.0,0.0,0.0,0.0,0.0,0.0,0.0,0.0,0.0,0.0,0.0,0.0,0.0,0.0,0.0,0.0,0.0,0.0,0.0,0.0,0.0,0.0,0.0,0.0,0.0,-3.1737,-3.1884,-3.3729,-3.4692,-3.4815,-3.5788,-3.629,-3.617,-3.4989,-3.442,0.0,0.0,0.0,0.0,0.0,0.0,0.0,0.0,0.0,0.0,0.0,0.0,0.0,0.0,0.0,0.0,0.0,0.0,0.0,0.0,0.0,0.0,0.0,0.0,0.0,0.0,0.0,0.0,0.0,0.0,0.0,0.0,0.0,0.0,0.0,0.0,0.0,0.0,0.0,0.0,0.0,-3.7511,-3.7585,-3.7623,-3.7839,0.0,-3.8035,-3.7663,-3.7804,-3.7899,-3.7673,-3.6735,0.0,0.0,0.0,0.0,0.0,0.0,0.0,0.0,0.0,0.0,0.0,0.0,0.0,0.0,0.0,0.0,0.0,0.0,0.0,0.0,0.0,0.0,0.0,0.0,0.0,0.0,0.0,0.0,-3.4542,0.0,0.0,0.0,0.0,0.0,0.0,0.0,0.0,0.0,0.0,0.0,0.0,0.0,0.0,0.0,0.0,0.0,0.0,0.0,0.0,0.0,0.0,0.0,0.0,-3.1288,-3.1165,-3.2857,-3.3713,-3.3755,-3.4733,-3.4966,-3.429,-3.3965,-3.3634,0.0,0.0,0.0,0.0,0.0,0.0,0.0,0.0,0.0,0.0,0.0,0.0,0.0,0.0,0.0,0.0,0.0,0.0,0.0,0.0,0.0,0.0,0.0,0.0,0.0,0.0,0.0,0.0,-2.7099,-2.6618,-2.6442,0.0,0.0,0.0,0.0,0.0,0.0,0.0,0.0,0.0,0.0,-3.5369,-3.5366,-3.5254,0.0,0.0,-3.5641,-3.574,-3.6047,-3.642,-3.6647,-3.6627,-3.6513,0.0,0.0,0.0,0.0,0.0,0.0,0.0,0.0,0.0,0.0,0.0,0.0,0.0,0.0,0.0,0.0,0.0,0.0,0.0,0.0,0.0,0.0,0.0,0.0,0.0,0.0,-3.3947,-3.3785,0.0,0.0,0.0,0.0,0.0,0.0,0.0,0.0,0.0,0.0,0.0,0.0,0.0,0.0,0.0,0.0,0.0,0.0,0.0,0.0,0.0,0.0,0.0,0.0,-3.0553,-3.0933,-3.197,-3.2742,-3.3068,-3.3839,-3.3882,-3.3129,-3.3005,-3.2673,0.0,0.0,0.0,0.0,0.0,0.0,0.0,0.0,0.0,0.0,0.0,0.0,0.0,0.0,0.0,0.0,0.0,0.0,0.0,0.0,0.0,0.0,0.0,0.0,0.0,0.0,0.0,0.0,-2.5883,-2.5548,-2.587,0.0,0.0,0.0,0.0,0.0,0.0,0.0,0.0,0.0,0.0,-3.3991,-3.4005,-3.3933,-3.3926,-3.4075,-3.4322,-3.4704,-3.5122,-3.5682,-3.6069,-3.6137,0.0,0.0,0.0,0.0,0.0,0.0,0.0,0.0,0.0,0.0,0.0,0.0,0.0,0.0,0.0,0.0,0.0,0.0,0.0,0.0,0.0,0.0,0.0,0.0,0.0,0.0,0.0,-3.283,0.0,0.0,-3.1706,0.0,0.0,0.0,0.0,0.0,0.0,0.0,0.0,0.0,0.0,0.0,0.0,0.0,0.0,0.0,0.0,0.0,0.0,0.0,0.0,0.0,0.0,-2.948,-3.1119,-3.1181,-3.1821,-3.2982,-3.3124,-3.3111,-3.3056,-3.203,-3.1521,-3.1605,0.0,0.0,0.0,0.0,0.0,0.0,0.0,0.0,0.0,0.0,0.0,0.0,0.0,0.0,0.0,0.0,0.0,0.0,0.0,0.0,0.0,0.0,0.0,0.0,0.0,0.0,-2.7228,-2.5584,-2.4982,0.0,0.0,0.0,0.0,0.0,0.0,0.0,0.0,0.0,-3.2845,-3.3418,-3.386,-3.3997,-3.4241,-3.4449,-3.5024,-3.4958,-3.5035,-3.5518,-3.614,-3.6206,0.0,0.0,0.0,0.0,0.0,0.0,0.0,0.0,0.0,0.0,0.0,0.0,0.0,0.0,0.0,0.0,0.0,0.0,0.0,0.0,0.0,0.0,0.0,0.0,0.0,0.0,0.0,-3.2513,-3.1571,0.0,0.0,0.0,0.0,0.0,0.0,0.0,0.0,0.0,0.0,0.0,-2.7051,-2.7051,0.0,0.0,0.0,0.0,0.0,0.0,0.0,0.0,0.0,0.0,0.0,0.0,-2.8559,-2.9235,-2.9748,-3.0226,-3.0643,-3.1412,-3.1821,-3.1853,-3.1131,-2.9774,-2.7689,0.0,0.0,0.0,0.0,0.0,0.0,0.0,0.0,0.0,0.0,0.0,0.0,0.0,0.0,0.0,0.0,0.0,0.0,0.0,0.0,0.0,0.0,0.0,0.0,0.0,-2.6964,0.0,0.0,0.0,0.0,0.0,0.0,0.0,0.0,0.0,0.0,-3.0649,-3.0669,-3.0925,-3.1325,-3.1557,-3.1633,-3.1876,-3.2262,0.0,0.0,0.0,0.0,0.0,0.0,0.0,0.0,0.0,0.0,0.0,0.0,0.0,0.0,-3.4845,-3.4605,-3.3898,-3.3327,-3.316,0.0,0.0,0.0,0.0,0.0,0.0,0.0,0.0,0.0,0.0,0.0,0.0,0.0,0.0,-3.1507,-3.0744,-3.0629,0.0,0.0,0.0,0.0,0.0,0.0,0.0,0.0,-2.6957,-2.6475,-2.572,-2.5815,-2.5518,-2.4885,-2.5401,-2.568,0.0,0.0,0.0,0.0,0.0,0.0,0.0,0.0,-2.7572,-2.8278,-2.8609,-2.9004,-2.9407,-3.0181,-3.0586,-3.0574,-2.991,-2.8194,-2.5412,-2.515,-2.4648,0.0,0.0,0.0,0.0,0.0,0.0,0.0,0.0,0.0,0.0,0.0,0.0,0.0,0.0,0.0,0.0,0.0,0.0,0.0,0.0,0.0,0.0,0.0,-2.6187,0.0,0.0,0.0,0.0,0.0,0.0,0.0,0.0,0.0,-2.8726,-2.8659,-2.8639,-2.9141,-2.9702,-3.0049,-3.0043,0.0,0.0,0.0,0.0,0.0,0.0,0.0,-3.3314,-3.3487,-3.3224,-3.3029,-3.3166,-3.3668,-3.3896,-3.3324,0.0,0.0,-3.3424,-3.2966,-3.2556,-3.2443,-3.2402,-3.2391,-3.2391,-3.231,-3.2229,0.0,0.0,0.0,0.0,-3.2136,0.0,0.0,0.0,-3.0431,-3.0345,0.0,-3.0057,0.0,0.0,0.0,0.0,-2.629,-2.556,0.0,0.0,-2.636,-2.5498,-2.417,-2.4432,-2.3636,-2.1878,-2.3302,-2.3947,-2.379,-2.4978,-2.5517,0.0,0.0,0.0,0.0,0.0,-2.6588,-2.8111,-2.7767,-2.8085,-2.9166,-2.9315,-2.9361,-2.9339,-2.8377,-2.6899,-2.4893,-2.4907,-2.4202,-2.2532,-2.3717,0.0,0.0,0.0,0.0,0.0,0.0,0.0,0.0,0.0,0.0,0.0,0.0,0.0,0.0,0.0,0.0,0.0,0.0,0.0,0.0,-2.6298,0.0,0.0,0.0,0.0,0.0,0.0,0.0,0.0,0.0,-2.5023,-2.6432,-2.6375,-2.6544,-2.7535,0.0,0.0,0.0,0.0,-3.0908,-3.1028,-3.1563,-3.2137,-3.2583,-3.3095,-3.3305,-3.2704,0.0,0.0,-3.1878,-3.2615,-3.3107,-3.2742,-3.2527,-3.2415,-3.2455,-3.2416,-3.2308,-3.2102,-3.2048,-3.2048,-3.2058,-3.1993,-3.2004,-3.1662,0.0,0.0,0.0,0.0,-3.0804,-3.0501,-2.9766,-2.9901,-2.9755,-2.9436,-2.9054,0.0,0.0,0.0,0.0,0.0,0.0,-2.3959,-2.4065,-2.393,-2.3574,-2.2959,-2.291,-2.2561,-2.1984,-2.2265,-2.218,-2.1819,-2.218,-2.3112,-2.4531,0.0,0.0,0.0,0.0,-2.5559,-2.6628,-2.6428,-2.6428,-2.6744,-2.7683,-2.8143,-2.8132,-2.7497,-2.6201,-2.4191,-2.3871,-2.3363,-2.2524,-2.2793,0.0,0.0,0.0,0.0,0.0,0.0,0.0,0.0,0.0,0.0,0.0,0.0,0.0,0.0,0.0,0.0,0.0,0.0,0.0,-2.5028,-2.4165,-2.37,0.0,0.0,0.0,0.0,0.0,0.0,0.0,0.0,0.0,-2.3223,-2.4153,-2.5285,0.0,0.0,-2.75,-2.8316,-2.9253,-3.0158,-3.099,-3.1639,0.0,-3.299,-3.3185,-3.2995,-3.2276,-3.1949,-3.1702,-3.1584,-3.2098,-3.2366,-3.1929,-3.1781,-3.1692,-3.1414,-3.1348,-3.1338,-3.1234,-3.1244,-3.1244,-3.1244,-3.1244,-3.1234,-3.0579,-3.0381,-3.0798,-3.0577,-2.9953,-3.0358,-3.0118,-2.9449,-2.8923,-2.8568,-2.8261,-2.7229,-2.6053,-2.4787,-2.4188,0.0,0.0,0.0,-2.2671,-2.2732,-2.2926,-2.2551,-2.1733,-2.1715,-2.1268,-2.0499,-2.0903,-2.0869,-2.0477,-2.0779,-2.1569,-2.2768,0.0,-2.27,-2.3175,-2.3347,-2.3996,-2.5089,-2.5011,-2.5177,-2.5693,-2.6428,-2.6849,-2.6839,-2.639,-2.5597,-2.4362,-2.3877,-2.3472,-2.305,-2.2958,-2.3318,0.0,0.0,0.0,0.0,0.0,0.0,0.0,0.0,0.0,0.0,0.0,-2.7439,-2.6606,0.0,0.0,0.0,-2.2983,-2.3102,-2.3122,-2.281,0.0,0.0,0.0,0.0,0.0,0.0,0.0,-2.2711,-2.1883,-2.14,-2.1752,-2.2602,-2.3595,-2.4711,-2.5471,-2.6027,-2.6564,0.0,-2.8351,-2.9117,-2.9696,-3.0291,-3.0983,-3.1006,-3.0713,-2.9972,-3.0268,-3.0443,-3.0301,-3.1173,-3.1797,-3.1592,-3.1514,-3.1435,-3.1191,-3.1016,-3.0898,-3.0898,-3.0898,-3.0898,-3.0898,-3.0898,-3.0898,-2.9963,-2.9612,-3.0606,-3.0666,-3.0163,-3.0193,-2.9823,-2.9141,-2.7633,-2.696,-2.6834,-2.5074,-2.3842,-2.2972,-2.1721,0.0,-2.1464,-2.1495,-2.1781,-2.2258,-2.2697,-2.2018,-2.0438,-2.0744,-1.9921,-1.8116,-1.9374,-1.9761,-1.9524,-2.0269,-2.0526,-2.0321,-2.0578,-2.08,-2.0966,-2.1436,-2.2265,-2.3534,-2.3692,-2.4402,-2.5684,-2.5684,-2.5684,-2.5732,-2.5332,-2.5145,-2.5106,-2.4678,-2.4277,-2.3848,-2.3707,-2.3541,-2.337,0.0,0.0,0.0,0.0,0.0,0.0,0.0,0.0,0.0,0.0,0.0,0.0,0.0,0.0,0.0,-2.0587,0.0,-2.1312,-2.1896,0.0,0.0,0.0,-2.2019,-2.175,-2.1457,-2.1323,-2.1423,0.0,0.0,-2.1596,-2.1554,-2.1733,-2.2375,-2.3814,-2.4725,-2.4571,-2.5338,-2.5933,-2.6335,-2.6701,-2.7228,-2.7919,-2.788,-2.7676,-2.7089,-2.7878,-2.8651,-2.8469,-2.9895,-3.1127,-3.1283,-3.1453,-3.1553,-3.1523,-3.1201,-3.0928,-3.0908,-3.0898,-3.0898,-3.0898,-3.0898,-3.0898,-2.9928,-2.8735,-2.8969,-2.8616,-2.7899,-2.826,-2.762,-2.6318,-2.5898,-2.573,-2.5671,-2.4729,-2.3352,-2.1584,-2.0158,-1.9528,-1.9598,-1.9835,-2.0046,-2.016,-2.023,-2.0059,-1.9654,-1.9482,-1.9176,-1.8691,-1.8578,-1.8474,-1.8398,-1.8369,-1.8356,-1.8304,-1.8383,-1.9162,-2.0597,-2.1135,-2.1667,-2.2156,-2.3375,-2.455,-2.5635,-2.5684,-2.5684,-2.5684,-2.5635,-2.542,-2.5088,-2.5018,-2.4717,-2.4277,-2.2737,-2.23,-2.3114,-2.2339,0.0,0.0,0.0,0.0,0.0,0.0,0.0,0.0,0.0,-2.4031,-2.3006,0.0,-2.0523,0.0,-1.8315,-1.8567,-2.0684,-2.0187,0.0,0.0,-2.1152,-2.1254,-2.0985,-2.0752,-2.0643,-2.0879,-2.0451,-2.0333,-2.0877,-2.0955,-2.1012,-2.1463,-2.2473,-2.334,-2.3783,-2.4448,-2.5175,-2.568,-2.6238,-2.6848,-2.7179,-2.7101,-2.6698,-2.6633,-2.6675,-2.6776,-2.6856,-2.8445,-2.9729,-3.0015,-3.1114,-3.1764,-3.1601,-3.1435,-3.125,-3.0976,-3.0898,-3.0898,-3.0898,-3.0898,-3.0898,-2.9903,-2.8417,-2.8417,-2.7327,-2.5601,-2.6568,-2.6466,-2.5559,-2.4843,-2.4461,-2.4204,-2.29,-2.1661,-2.0537,-1.9567,-1.9118,-1.9132,-1.9292,-1.9424,-1.9424,-1.9424,-1.9424,-1.9417,-1.9199,-1.9058,-1.8911,-1.8464,-1.8122,-1.7982,-1.7736,-1.7589,-1.7589,-1.7722,-1.8314,-1.9357,-1.9569,-2.0092,-2.0947,-2.2528,-2.3601,-2.4072,-2.4113,-2.419,-2.4421,-2.4461,-2.4506,-2.4639,-2.4678,-2.4458,-2.4078,-2.2682,-2.2153,-2.27,-2.1675,-2.1544,0.0,0.0,0.0,0.0,0.0,0.0,0.0,0.0,0.0,0.0,0.0,-1.9381,-1.8671,-1.7804,-1.8004,-1.9717,-1.9505,-1.9443,-1.9902,-2.0335,-2.0416,-2.0146,-2.0007,-1.9931,-2.0104,-1.9932,-1.9956,-2.0409,-2.0584,-2.078,-2.1049,-2.1607,-2.2041,-2.2418,-2.2849,-2.3219,-2.3632,-2.4074,-2.447,-2.4746,-2.4553,-2.4316,-2.4234,-2.4657,-2.5194,-2.5313,-2.6856,-2.8472,-2.9574,-3.0488,-3.1275,-3.1888,-3.1738,-3.1435,-3.123,-3.1016,-3.0908,-3.0898,-3.0898,-3.0898,-2.9471,-2.7811,-2.7751,-2.6053,-2.3387,-2.477,-2.5375,-2.5245,-2.3869,-2.3079,-2.2679,-2.0741,-1.9833,-1.978,-1.9499,-1.9424,-1.9424,-1.9424,-1.9424,-1.9424,-1.9424,-1.9424,-1.9424,-1.9424,-1.9232,-1.8971,-1.8691,-1.841,-1.8102,-1.7842,-1.7702,-1.7709,-1.7969,-1.8049,-1.8035,-1.7836,-1.8499,-2.005,-2.1478,-2.216,-2.2116,-2.2116,-2.2321,-2.283,-2.2811,-2.3153,-2.3917,-2.3926,-2.3827,-2.356,-2.2791,-2.2247,-2.1987,-2.1263,-2.1052,0.0,-2.1396,0.0,0.0,0.0,0.0,0.0,0.0,0.0,0.0,-1.9143,-1.8436,-1.8383,-1.8186,-1.8249,-1.8746,-1.932,-1.9597,-1.9362,-1.9543,-1.9649,-1.9424,-1.9424,-1.9424,-1.9424,-1.9586,-1.9867,-2.0187,-2.0461,-2.0728,-2.1036,-2.1102,-2.1229,-2.1172,-2.1229,-2.1299,-2.1102,-2.1323,-2.1906,-2.1869,-2.1683,-2.1653,-2.1443,-2.2589,-2.3686,-2.3745,-2.5349,-2.728,-2.898,-2.9627,-3.0387,-3.2167,-3.1793,-3.137,-3.1394,-3.0975,-3.0615,-3.085,-3.0898,-3.0898,-2.7151,-2.454,-2.4479,-2.338,-2.1601,-2.1908,-2.2027,-2.2027,-2.1727,-2.1436,-2.1136,-2.0422,-2.0013,-1.9786,-1.9558,-1.9424,-1.9424,-1.9424,-1.9424,-1.9424,-1.9424,-1.9424,-1.9424,-1.9424,-1.9339,-1.9265,-1.8985,-1.8811,-1.8758,-1.8464,-1.8323,-1.8323,-1.8377,-1.8404,-1.8404,0.0,0.0,0.0,-2.0513,-2.1063,-2.2064,-2.2116,-2.2239,-2.2569,-2.2393,0.0,-2.3094,-2.2944,-2.2894,-2.2985,-2.1445,0.0,0.0,0.0,0.0,0.0,0.0,0.0,0.0,0.0,0.0,0.0,-1.6126,-1.6927,-1.9251,-1.8869,-1.8481,-1.8481,-1.8433,-1.8554,-1.883,-1.9014,-1.9132,-1.9361,-1.9448,-1.9482,-1.9424,-1.9424,-1.9424,-1.9424,-1.9477,-1.9646,-2.0147,-2.0227,-2.0521,-2.1015,-2.1102,-2.1102,-2.1102,-2.1102,-2.1102,-2.1116,-2.1176,-2.1203,-2.1189,-2.1203,-2.1203,-2.1212,-2.1541,-2.2134,-2.2555,-2.4072,-2.55,-2.6526,-2.87,-3.0437,-3.0709,-3.0517,-3.0631,-3.1341,-3.0323,-2.9624,-3.0654,-3.0898,-3.0898,-2.5802,-2.3628,-2.3566,-2.2654,0.0,-2.1102,-2.1102,-2.1102,-2.1102,-2.1022,-2.0862,-2.0421,-2.0154,-1.9987,-1.9566,-1.9424,-1.9424,-1.9424,-1.9424,-1.9424,-1.9424,-1.9424,-1.9424,-1.9424,-1.9424,-1.941,-1.9065,-1.8868,-1.8905,-1.8631,-1.8497,-1.8497,-1.8631,-1.8704,-1.8704,-1.8704,-1.9007,-1.9709,-1.9702,-1.9975,-2.0513,-2.0505,-2.0672,-2.0876,-2.0802,0.0,0.0,0.0,0.0,0.0,0.0,0.0,0.0,0.0,0.0,-1.8671,-1.8156,-1.7613,-1.7095,-1.6212,-1.5362,-1.4745,-1.451,-1.5093,-1.6649,-1.6394,-1.6538,-1.7416,-1.7541,-1.795,-1.899,-1.9138,-1.9205,-1.9345,-1.9424,-1.9424,-1.9424,-1.9424,-1.9424,-1.9424,-1.9424,-1.9586,-2.0154,-2.0173,-2.0481,-2.1002,-2.1102,-2.1102,-2.1102,-2.1102,-2.1102,-2.1102,-2.1102,-2.1102,-2.1102,-2.1102,-2.1109,-2.1149,-2.1476,-2.179,-2.1964,-2.3126,-2.4281,-2.5353,-2.7023,-2.8335,-2.9103,-2.9042,-2.9184,-3.015,-2.9644,-2.9397,-3.0566,-3.0898,-3.0898,-2.4655,-2.3201,-2.3146,-2.2341,-2.1102,-2.1102,-2.1102,-2.1102,-2.1102,0.0,0.0,-2.0468,-2.0147,-2.0114,-1.9606,-1.9424,-1.9424,-1.9424,-1.9424,-1.9424,-1.9424,-1.9424,-1.9424,-1.9424,-1.9424,-1.941,-1.9118,-1.9005,-1.8991,-1.8711,-1.8564,-1.8584,-1.8758,-1.8851,-1.8851,-1.8851,-1.8844,-1.8851,-1.9118,-1.9118,-1.8851,-1.8844,-1.8938,-1.9237,-1.9117,-1.9309,-1.9828,-1.982,-1.9717,-1.9569,-1.9316,-1.8893,-1.8297,-1.8042,-1.7877,-1.7759,-1.6577,-1.5731,-1.5557,-1.4282,-1.3348,-1.2998,-1.3258,-1.3635,-1.4049,-1.3956,-1.463,-1.6454,-1.6587,-1.7386,-1.9216,-1.9424,-1.9424,-1.9424,-1.9424,-1.9424,-1.9424,-1.9424,-1.9424,-1.943,-1.9477,-1.9639,-2.0147,-2.0287,-2.0508,-2.0969,-2.1102,-2.1102,-2.1102,-2.1102,-2.1102,-2.1102,-2.1102,-2.1102,-2.1102,-2.1102,-2.1129,-2.1223,-2.1643,-2.1984,-2.2124,-2.2505,-2.342,-2.4648,-2.5188,-2.6142,-2.7274,-2.736,-2.7729,-2.9093,-2.8932,-2.9073,-3.0563,-3.0947,-3.0898,-2.2952,-2.1418,-2.1481,-2.1292,-2.1102,-2.1102,-2.1102,-2.1102,-2.1102,-2.0969,-2.0715,-2.0381,-2.0094,-1.9846,-1.9571,-1.9424,-1.9424,-1.9424,-1.9424,-1.9424,-1.9424,-1.9424,-1.9424,-1.9424,-1.9424,-1.9424,-1.9325,-1.9305,-1.9272,-1.8998,-1.8865,-1.8831,-1.8651,-1.8557,-1.8551,-1.8551,-1.8551,-1.8557,-1.8854,-1.8798,-1.8557,-1.8551,-1.8677,-1.8892,-1.8452,-1.8426,-1.8982,-1.8781,-1.8729,-1.8938,-1.8677,-1.7832,-1.6327,-1.6168,-1.5524,-1.4191,-1.3933,-1.3342,-1.2144,-1.1916,-1.1356,-1.0321,-1.0359,-1.1439,-1.394,-1.4392,-1.5167,-1.6733,-1.6839,-1.7582,-1.9178,-1.9424,-1.9424,-1.9424,-1.9424,-1.9424,-1.9424,-1.9424,-1.9424,-1.943,-1.9586,-1.9846,-2.0174,-2.0434,-2.0708,-2.1015,-2.1102,-2.1102,-2.1102,-2.1102,-2.1102,-2.1102,-2.1102,-2.1102,-2.1102,-2.1102,-2.1203,-2.1521,-2.175,-2.2064,-2.2291,-2.2619,-2.3051,-2.3263,-2.4452,-2.5353,-2.5609,-2.5707,-2.6727,-2.8462,-2.8216,-2.8332,-3.0799,-3.1191,-3.0947,-2.179,-2.1102,-2.1102,-2.1102,-2.1102,-2.1102,-2.1102,-2.1102,-2.1102,-2.0942,-2.0661,-2.0361,-2.0067,-1.9786,-1.9499,-1.9424,-1.9424,-1.9424,-1.9424,-1.9424,-1.9424,-1.9424,-1.941,-1.9205,-1.9212,-1.9403,-1.9038,-1.8978,-1.9085,-1.8831,-1.8684,-1.8684,-1.8557,-1.8417,-1.827,-1.841,-1.833,-1.8016,-1.8457,-1.8624,-1.8497,-1.8497,-1.8472,-1.8414,-1.8131,-1.8021,-1.816,-1.8003,-1.7674,-1.6962,-1.6804,-1.6056,-1.4556,-1.4449,-1.4073,-1.3329,-1.2652,-1.2031,-1.1463,-1.0872,-1.0354,-0.978,-0.9785,-1.0329,-1.1673,-1.1923,-1.3048,-1.5365,-1.5725,-1.6738,-1.9127,-1.9424,-1.9424,-1.9424,-1.9424,-1.9424,-1.9424,-1.9424,-1.9424,-1.945,-1.9626,-1.9907,-2.0133,-2.0488,-2.0788,-2.1042,-2.1102,-2.1102,-2.1102,-2.1102,-2.1102,-2.1102,-2.1102,-2.1102,-2.1102,-2.1102,-2.1229,-2.1568,-2.179,-2.2084,-2.2365,-2.2665,-2.2832,-2.2928,-2.3652,-2.3943,-2.3976,-2.4663,-2.6001,-2.7602,-2.8242,-2.9046,-3.1086,-3.1699,-3.1435,-2.1102,-2.1102,-2.1102,-2.1102,-2.1102,-2.1102,-2.1102,-2.1102,-2.1042,-2.0848,-2.0568,-2.0334,-2.0034,-1.9693,-1.9524,-1.9424,-1.9424,-1.9424,-1.9424,-1.9424,-1.9424,-1.9332,-1.9252,-1.9025,-1.9011,-1.9112,-1.8704,-1.8611,-1.8771,-1.8531,-1.8357,-1.8297,-1.8283,-1.817,-1.7902,-1.817,-1.805,-1.7642,-1.8043,-1.8317,-1.839,-1.839,-1.8222,-1.8009,-1.7585,-1.7334,-1.7113,-1.6823,-1.6121,-1.5043,-1.4931,-1.4288,-1.2945,-1.2783,-1.2674,-1.2259,-1.1424,-1.0919,-1.1077,-1.0334,-0.9819,-0.9819,-0.9819,-0.9819,-0.9822,-1.0179,-1.1495,-1.4128,-1.502,-1.638,-1.8823,-1.9424,-1.9424,-1.9424,-1.9424,-1.9424,-1.9424,-1.9424,-1.9464,-1.9472,-1.972,-2.0013,-2.0301,-2.0595,-2.0862,-2.1056,-2.1102,-2.1102,-2.1102,-2.1102,-2.1102,-2.1102,-2.1102,-2.1102,-2.1102,-2.1102,-2.1236,-2.1568,-2.179,-2.2078,-2.2365,-2.2665,-2.2839,-2.2928,-2.3324,-2.3623,-2.3546,-2.467,-2.6213,-2.7849,-2.8603,-2.9806,-3.1636,-3.2226,-3.1992,-2.1102,-2.1102,-2.1102,-2.1102,-2.1102,-2.1102,-2.1102,-2.1062,-2.0835,-2.0548,-2.0274,-2.018,-1.992,-1.9452,-1.9437,-1.9424,-1.9424,-1.9424,-1.9424,-1.941,-1.9424,-1.9225,-1.8978,-1.8925,-1.8798,-1.8611,-1.8504,-1.8464,-1.851,-1.823,-1.7949,-1.7695,-1.7662,-1.7675,-1.7642,-1.7662,-1.7649,-1.7589,-1.7635,-1.7802,-1.8009,-1.8029,-1.8022,-1.7989,-1.646,-1.5607,-1.5583,-1.4347,-1.3642,-1.348,-1.348,-1.2832,-1.1483,-1.1269,-1.0731,-0.9493,-0.9536,-0.971,-0.9918,-0.9866,-0.9819,-0.9819,-0.9819,-0.9819,-0.9879,-1.114,-1.2693,-1.4426,-1.5908,-1.7443,-1.9127,-1.9424,-1.9424,-1.9424,-1.9424,-1.9424,-1.9424,-1.9424,-1.9524,-1.9733,-1.9967,-2.0294,-2.0535,-2.0835,-2.1049,-2.1089,-2.1102,-2.1102,-2.1102,-2.1102,-2.1102,-2.1102,-2.1102,-2.1102,-2.1102,-2.1102,-2.1236,-2.1574,-2.1849,-2.2044,-2.2318,-2.2599,-2.2846,-2.2821,-2.4043,-2.4648,-2.4804,-2.6101,-2.7977,-2.8696,-2.9645,-3.0622,-3.1825,-3.248,-3.2363,-2.1102,-2.1102,-2.1102,-2.1102,-2.1102,-2.1102,-2.1009,-2.0842,-2.0728,-2.0414,-2.0007,-1.9973,-1.9746,-1.943,-1.9424,-1.9424,-1.9424,-1.9424,-1.9272,-1.9118,-1.9098,-1.8945,-1.8677,-1.8422,-1.8424,-1.8444,-1.813,-1.8056,-1.8095,-1.7923,-1.7709,-1.7602,-1.7589,-1.7589,-1.7589,-1.7589,-1.7589,-1.7582,-1.6717,-1.6342,-1.6442,-1.646,-1.6454,-1.6281,-1.4934,-1.4126,-1.4126,-1.3588,-1.2891,-1.2077,-1.2028,-1.1319,-0.986,-0.9809,-0.9537,-0.8954,-0.9218,-0.9473,-0.9683,-0.9774,-0.9819,-0.9819,-0.9819,-0.9819,-0.994,-1.2097,-1.3944,-1.4604,-1.6079,-1.7683,-1.9127,-1.9424,-1.9424,-1.9424,-1.9424,-1.9424,-1.9424,-1.9424,-1.9484,-1.9566,-1.9953,-2.0274,-2.0454,-2.0822,-2.1076,-2.1102,-2.1102,-2.1102,-2.1102,-2.1102,-2.1102,-2.1102,-2.1102,-2.1102,-2.1102,-2.1102,-2.1243,-2.1541,-2.1708,-2.1896,-2.2124,-2.2238,-2.2338,-2.2372,-2.3987,-2.4891,-2.444,-2.6928,-2.9151,-2.9875,-3.1196,-3.2247,-3.2484,-3.2871,-3.2832,-2.1102,-2.1102,-2.1102,-2.1102,-2.1102,-2.1102,-2.0942,-2.0675,-2.0595,-2.0267,-1.9813,-1.972,-1.9566,-1.9444,-1.9424,-1.9424,-1.9424,-1.9424,-1.9205,-1.8888,-1.8868,-1.8731,-1.8377,-1.8156,-1.811,-1.815,-1.7802,-1.7702,-1.7822,-1.7702,-1.7589,-1.7589,-1.7589,-1.7417,-1.7035,-1.6988,-1.677,-1.6333,-1.531,-1.4829,-1.4776,-1.4449,-1.4395,-1.4663,-1.3426,-1.2674,-1.2674,-1.2295,-1.1592,-1.0562,-1.0511,-1.0025,-0.8992,-0.8937,-0.8902,-0.9008,-0.9195,-0.9405,-0.9595,-0.9703,-0.9781,-0.9815,-0.9819,-0.9819,-1.0361,-1.2753,-1.4485,-1.4723,-1.6444,-1.8279,-1.9127,-1.9424,-1.9424,-1.9424,-1.9424,-1.9424,-1.9424,-1.9424,-1.9399,-1.9512,-1.9947,-2.0253,-2.0433,-2.0842,-2.1102,-2.1102,-2.1102,-2.1102,-2.1102,-2.1102,-2.1102,-2.1102,-2.1102,-2.1102,-2.1102,-2.1102,-2.1243,-2.1534,-2.1688,-2.1889,-2.2058,-2.2144,-2.2238,-2.2755,-2.4188,-2.5405,-2.6068,-2.8103,-3.0551,-3.1188,-3.2254,-3.3175,-3.3027,-3.3262,-3.3252,-2.1102,-2.1102,-2.1102,-2.1102,-2.1102,-2.1089,-2.0929,-2.0621,-2.0374,-2.0074,-1.976,-1.9519,-1.9444,-1.9424,-1.9424,-1.9424,-1.9424,-1.9424,-1.9192,-1.8918,-1.8841,-1.8555,-1.8035,-1.7989,-1.7903,-1.7716,-1.7642,-1.7602,-1.7622,-1.7595,-1.7589,-1.7582,-1.7477,-1.6823,-1.5683,-1.5476,-1.4824,-1.3911,-1.3534,-1.3372,-1.321,-1.2023,-1.2023,-1.2994,-1.1973,-1.1214,-1.1051,-0.986,-0.9099,-0.9047,-0.9103,-0.8992,-0.8937,-0.8937,-0.8994,-0.9173,-0.921,-0.93,-0.9551,-0.9618,-0.9683,-0.9798,-0.994,-0.9879,-1.024,-1.2988,-1.4718,-1.4663,-1.7455,-1.9243,-1.9366,-1.9424,-1.9424,-1.9424,-1.9424,-1.9424,-1.9424,-1.9424,-1.9499,-1.9733,-2.0054,-2.0454,-2.0955,-2.1082,-2.1102,-2.1102,-2.1102,-2.1102,-2.1102,-2.1102,-2.1102,-2.1102,-2.1102,-2.1102,-2.1102,-2.1176,-2.1289,-2.1483,-2.1815,-2.2011,-2.2338,-2.2599,-2.2679,-2.352,-2.5601,-2.7125,-2.8016,-2.9646,-3.1954,-3.2903,-3.285,-3.333,-3.3252,-3.335,-3.335,-2.1102,-2.1102,-2.1102,-2.1102,-2.1082,-2.0915,-2.0661,-2.0374,-2.008,-1.9793,-1.9539,-1.9412,-1.9424,-1.9424,-1.9424,-1.9424,-1.9424,-1.9424,-1.9105,-1.8691,-1.8644,-1.8323,-1.7796,-1.7749,-1.7709,-1.7602,-1.7589,-1.7589,-1.7589,-1.7589,-1.7094,-1.628,-1.6174,-1.5476,-1.4288,-1.4019,-1.3804,-1.3264,-1.2403,-1.1919,-1.181,-1.0457,-0.997,-1.0402,-1.0021,-0.9699,-0.9702,-0.9154,-0.8937,-0.8937,-0.8937,-0.8937,-0.8937,-0.8937,-0.8905,-0.9015,-0.9103,-0.9299,-0.9439,-0.9557,-0.9669,-0.9862,-1.0778,-1.1318,-1.1856,-1.4178,-1.6138,-1.6556,-1.7987,-1.9307,-1.9424,-1.9424,-1.9424,-1.9424,-1.9424,-1.9424,-1.9424,-1.943,-1.9479,-1.9793,-2.0201,-2.0681,-2.0969,-2.1102,-2.1102,-2.1102,-2.1102,-2.1102,-2.1102,-2.1102,-2.1102,-2.1102,-2.1102,-2.1102,-2.1102,-2.1296,-2.1521,-2.1641,-2.1829,-2.1951,-2.2225,-2.2318,-2.2385,-2.3697,-2.6137,-2.8016,-2.8652,-3.0619,-3.2903,-3.3136,-3.3155,-3.3418,-3.3408,-3.3418,-3.3418,-2.1102,-2.1102,-2.1102,-2.1102,-2.1076,-2.0802,-2.0508,-2.0214,-1.992,-1.9639,-1.9457,-1.9424,-1.9424,-1.9424,-1.9424,-1.9424,-1.9424,-1.9417,-1.9052,-1.8524,-1.8497,-1.817,-1.7669,-1.7589,-1.7589,-1.7589,-1.7589,-1.7589,-1.7529,-1.7094,-1.6393,-1.547,-1.4984,-1.4014,-1.2832,-1.2615,-1.2398,-1.181,-1.0891,-1.0406,-1.0241,-0.9427,-0.8937,-0.8937,-0.8937,-0.8937,-0.8937,-0.8937,-0.8937,-0.8937,-0.8937,-0.8937,-0.8937,-0.8937,-0.8937,-0.895,-0.9028,-0.9426,-0.9975,-1.02,-1.0591,-1.122,-1.2243,-1.2993,-1.3172,-1.5488,-1.6791,-1.7325,-1.846,-1.9424,-1.9424,-1.9424,-1.9424,-1.9424,-1.9424,-1.9424,-1.9424,-1.9424,-1.9553,-1.992,-2.0361,-2.0762,-2.1036,-2.1089,-2.1102,-2.1102,-2.1102,-2.1102,-2.1102,-2.1102,-2.1102,-2.1102,-2.1102,-2.1102,-2.1196,-2.1416,-2.1643,-2.1777,-2.1991,-2.2098,-2.2191,-2.2211,-2.2736,-2.4116,-2.5864,-2.786,-2.9806,-3.1662,-3.242,-3.2698,-3.3092,-3.3418,-3.3418,-3.3418,-3.3418,-2.1102,-2.1102,-2.1102,-2.1076,-2.1022,-2.0722,-2.0474,-2.0174,-1.99,-1.9606,-1.9437,-1.9424,-1.9424,-1.9424,-1.9424,-1.9424,-1.9424,-1.9397,-1.9025,-1.8524,-1.8497,-1.8163,-1.7655,-1.7589,-1.7589,-1.7589,-1.7589,-1.7589,-1.7529,-1.634,-1.547,-1.5091,-1.3852,-1.2566,-1.1105,-1.1051,-1.0402,-0.9537,-0.9154,-0.9047,-0.8937,-0.8937,-0.8937,-0.8937,-0.8937,-0.8937,-0.8937,-0.8937,-0.8937,-0.8937,-0.8937,-0.8937,-0.8937,-0.8937,-0.8937,-0.8937,-0.8888,-0.9672,-1.104,-1.1452,-1.2143,-1.3509,-1.435,-1.4574,-1.4831,-1.6203,-1.7267,-1.7501,-1.846,-1.9424,-1.9424,-1.9424,-1.9424,-1.9424,-1.9424,-1.9424,-1.9424,-1.945,-1.9593,-2.0114,-2.0508,-2.0795,-2.1015,-2.1102,-2.1102,-2.1102,-2.1102,-2.1102,-2.1102,-2.1102,-2.1102,-2.1102,-2.1102,-2.1102,-2.1316,-2.1563,-2.179,-2.2011,-2.2258,-2.2445,-2.2572,-2.2686,-2.3052,-2.4247,-2.6327,-2.8353,-2.9955,-3.1666,-3.2039,-3.2428,-3.2892,-3.3355,-3.3418,-3.3418,-3.3418,-2.1102,-2.1076,-2.0889,-2.0815,-2.0742,-2.0287,-2.0013,-1.99,-1.9626,-1.9452,-1.9437,-1.9424,-1.9424,-1.9424,-1.9424,-1.9424,-1.9403,-1.9158,-1.8851,-1.8544,-1.849,-1.8163,-1.7682,-1.7589,-1.7589,-1.7589,-1.7589,-1.7589,-1.7312,-1.6062,-1.4984,-1.3857,-1.2507,-1.1051,-0.975,-0.9537,-0.9265,-0.8992,-0.8937,-0.8937,-0.8937,-0.8937,-0.8937,-0.8937,-0.8937,-0.8937,-0.8937,-0.8937,-0.8937,-0.8937,-0.8937,-0.8937,-0.8937,-0.8937,-0.8937,-0.8937,-0.8937,-0.9602,-1.1011,-1.1487,-1.2402,-1.3996,-1.5257,-1.5971,-1.641,-1.7689,-1.8525,-1.8583,-1.9127,-1.9424,-1.9424,-1.9424,-1.9424,-1.9424,-1.9424,-1.943,-1.9497,-1.972,-2.0007,-2.0234,-2.0668,-2.0989,-2.1076,-2.1102,-2.1102,-2.1102,-2.1102,-2.1102,-2.1102,-2.1102,-2.1102,-2.1102,-2.1102,-2.1109,-2.1263,-2.1543,-2.1864,-2.2111,-2.2385,-2.2625,-2.2786,-2.2996,-2.3393,-2.452,-2.6647,-2.8361,-3.006,-3.1176,-3.157,-3.2365,-3.3019,-3.3282,-3.3355,-3.3418,-3.3418,-2.1102,-2.1069,-2.0795,-2.0675,-2.0608,-2.0047,-1.9806,-1.976,-1.9492,-1.9424,-1.9424,-1.9424,-1.9424,-1.9424,-1.9424,-1.9424,-1.9332,-1.9058,-1.8764,-1.8504,-1.8357,-1.805,-1.7629,-1.7589,-1.7589,-1.7589,-1.7589,-1.7312,-1.6711,-1.531,-1.3906,-1.2457,-1.1,-0.986,-0.8992,-0.8937,-0.8937,-0.8937,-0.8937,-0.8937,-0.8937,-0.8937,-0.8937,-0.8937,-0.8937,-0.8937,-0.8937,-0.8937,-0.8937,-0.8937,-0.8937,-0.8937,-0.8937,-0.8937,-0.8937,-0.8992,-0.9541,-1.0453,-1.187,-1.2774,-1.379,-1.5551,-1.6762,-1.7523,-1.7977,-1.9004,-1.9366,-1.9424,-1.9424,-1.9424,-1.9424,-1.9424,-1.9424,-1.9424,-1.9424,-1.947,-1.9553,-1.994,-2.0267,-2.0454,-2.0822,-2.1049,-2.1102,-2.1102,-2.1102,-2.1102,-2.1102,-2.1102,-2.1102,-2.1102,-2.1102,-2.1102,-2.1102,-2.1122,-2.1156,-2.149,-2.1917,-2.2198,-2.2458,-2.2665,-2.2853,-2.2928,-2.3195,-2.452,-2.638,-2.737,-2.8943,-3.0384,-3.1166,-3.2155,-3.3082,-3.3282,-3.3418,-3.3418,-3.3418,-2.1102,-2.1069,-2.0775,-2.0628,-2.0555,-2.0,-1.9746,-1.972,-1.9551,-1.9424,-1.9424,-1.9424,-1.9424,-1.9424,-1.9424,-1.9424,-1.9363,-1.8998,-1.8731,-1.8457,-1.8183,-1.7842,-1.7661,-1.7589,-1.7589,-1.7589,-1.7424,-1.6711,-1.563,-1.3965,-1.2507,-1.1269,-0.9915,-0.8992,-0.8937,-0.8937,-0.8937,-0.8937,-0.8937,-0.8937,-0.8937,-0.8937,-0.8937,-0.8937,-0.8937,-0.8937,-0.8937,-0.8937,-0.8937,-0.8937,-0.8937,-0.8937,-0.8937,-0.8937,-0.8937,-0.8992,-1.0292,-1.1592,-1.3212,-1.4478,-1.6179,-1.7811,-1.8337,-1.9038,-1.917,-1.9243,-1.9424,-1.9424,-1.9424,-1.9424,-1.9424,-1.9424,-1.9424,-1.9424,-1.9424,-1.9479,-1.976,-2.0047,-2.0314,-2.0621,-2.0915,-2.1102,-2.1102,-2.1102,-2.1102,-2.1102,-2.1102,-2.1102,-2.1102,-2.1102,-2.1102,-2.1102,-2.1109,-2.1196,-2.1256,-2.159,-2.1997,-2.2271,-2.2525,-2.2726,-2.2866,-2.2928,-2.2989,-2.4385,-2.5517,-2.6514,-2.7834,-2.9335,-3.0845,-3.1963,-3.2692,-3.3155,-3.3418,-3.3418,-3.3418,-2.1102,-2.1049,-2.0561,-2.0347,-2.0267,-1.9726,-1.9486,-1.9472,-1.9412,-1.9424,-1.9424,-1.9424,-1.9424,-1.9424,-1.9424,-1.9424,-1.9316,-1.8858,-1.8591,-1.841,-1.7936,-1.7689,-1.7595,-1.7589,-1.7582,-1.7417,-1.6552,-1.579,-1.5198,-1.294,-1.1538,-1.1051,-0.9588,-0.8937,-0.8937,-0.8937,-0.8937,-0.8937,-0.8937,-0.8937,-0.8937,-0.8937,-0.8937,-0.8937,-0.8937,-0.8937,-0.8937,-0.8937,-0.8937,-0.8937,-0.8937,-0.8937,-0.8937,-0.8937,-0.8937,-0.9265,-1.0347,-1.1805,-1.328,-1.4795,-1.6465,-1.8196,-1.8597,-1.8824,-1.9377,-1.9424,-1.9424,-1.9424,-1.9424,-1.9424,-1.9424,-1.9424,-1.9424,-1.9424,-1.9444,-1.9512,-1.9793,-2.006,-2.0347,-2.0641,-2.0942,-2.1069,-2.1102,-2.1102,-2.1102,-2.1102,-2.1102,-2.1102,-2.1102,-2.1109,-2.1109,-2.1109,-2.1136,-2.1263,-2.1436,-2.175,-2.2064,-2.2338,-2.2579,-2.2786,-2.2866,-2.2928,-2.2996,-2.3522,-2.4392,-2.5323,-2.7047,-2.8698,-3.0133,-3.1963,-3.2756,-3.3418,-3.3418,-3.3418,-3.3418,-2.1102,-2.1076,-2.0608,-2.0347,-2.0187,-1.9746,-1.9486,-1.9444,-1.9424,-1.9424,-1.9424,-1.9424,-1.9424,-1.9424,-1.9424,-1.9424,-1.9357,-1.8891,-1.8285,-1.7428,-1.6344,-1.6483,-1.7239,-1.7589,-1.7312,-1.6605,-1.5796,-1.4716,-1.3534,-1.1805,-1.0887,-1.0076,-0.9316,-0.8937,-0.8937,-0.8937,-0.8937,-0.8937,-0.8937,-0.8937,-0.8937,-0.8937,-0.8937,-0.8937,-0.8937,-0.8937,-0.8937,-0.8937,-0.8937,-0.8937,-0.8937,-0.8937,-0.8937,-0.8937,-0.9158,-0.975,-1.1214,-1.267,-1.4099,-1.563,-1.7051,-1.8238,-1.8577,-1.8898,-1.931,-1.9424,-1.9424,-1.9424,-1.9424,-1.9424,-1.9424,-1.9424,-1.9424,-1.9437,-1.9472,-1.9659,-1.9953,-2.0254,-2.0535,-2.0802,-2.0995,-2.1102,-2.1102,-2.1102,-2.1102,-2.1102,-2.1102,-2.1102,-2.1102,-2.1109,-2.1162,-2.1216,-2.1296,-2.1443,-2.1677,-2.1991,-2.2171,-2.2432,-2.2639,-2.2846,-2.2866,-2.2866,-2.2928,-2.3126,-2.3597,-2.4595,-2.6781,-2.8829,-3.0725,-3.2228,-3.3019,-3.3418,-3.3418,-3.3418,-3.3418,-2.1102,-2.1082,-2.0762,-2.0474,-2.0201,-1.9887,-1.9573,-1.9457,-1.9424,-1.9424,-1.9424,-1.9424,-1.9424,-1.9424,-1.9424,-1.9424,-1.9345,-1.9025,-1.7831,-1.647,-1.5055,-1.486,-1.6546,-1.663,-1.6127,-1.5257,-1.5097,-1.3529,-1.1914,-1.1051,-1.0186,-0.9372,-0.8992,-0.8937,-0.8937,-0.8937,-0.8937,-0.8937,-0.8937,-0.8937,-0.8937,-0.8937,-0.8937,-0.8937,-0.8937,-0.8937,-0.8937,-0.8937,-0.8937,-0.8937,-0.8937,-0.8937,-0.8937,-0.8992,-0.9699,-1.1051,-1.2512,-1.4073,-1.5298,-1.6744,-1.8041,-1.8457,-1.8751,-1.9045,-1.9285,-1.9424,-1.9424,-1.9424,-1.9424,-1.9424,-1.9424,-1.9424,-1.9424,-1.9477,-1.9626,-1.9953,-2.0207,-2.0494,-2.0788,-2.1056,-2.1102,-2.1102,-2.1102,-2.1102,-2.1102,-2.1102,-2.1102,-2.1102,-2.1102,-2.1109,-2.1256,-2.1514,-2.1614,-2.1728,-2.1937,-2.2231,-2.2365,-2.2532,-2.2706,-2.2866,-2.2866,-2.2866,-2.2866,-2.3126,-2.3856,-2.5383,-2.7445,-2.9418,-3.1249,-3.2428,-3.3219,-3.3418,-3.3418,-3.3418,-3.3418,-2.1102,-2.1069,-2.0548,-2.0294,-2.0154,-1.9686,-1.9426,-1.943,-1.9424,-1.9424,-1.9424,-1.9424,-1.9424,-1.9424,-1.9424,-1.9424,-1.9332,-1.8836,-1.7937,-1.6127,-1.4359,-1.3764,-1.4358,-1.4277,-1.4073,-1.3534,-1.2561,-1.1697,-1.0941,-0.9966,-0.9261,-0.8992,-0.8937,-0.8937,-0.8937,-0.8937,-0.8937,-0.8937,-0.8937,-0.8937,-0.8937,-0.8937,-0.8937,-0.8937,-0.8937,-0.8937,-0.8937,-0.8937,-0.8937,-0.8937,-0.8937,-0.8937,-0.9103,-0.9915,-1.0726,-1.1592,-1.3529,-1.5037,-1.569,-1.7016,-1.8129,-1.8504,-1.8798,-1.9045,-1.9383,-1.9424,-1.9424,-1.9424,-1.9424,-1.9424,-1.9424,-1.9424,-1.9444,-1.9486,-1.982,-2.0147,-2.0207,-2.0508,-2.0815,-2.1022,-2.1102,-2.1102,-2.1102,-2.1102,-2.1102,-2.1102,-2.1102,-2.1102,-2.1102,-2.1102,-2.1329,-2.1635,-2.1735,-2.1869,-2.2218,-2.2452,-2.2532,-2.2625,-2.2772,-2.2866,-2.2866,-2.2866,-2.2866,-2.3461,-2.4392,-2.6046,-2.7701,-2.9865,-3.1634,-3.2556,-3.3282,-3.3418,-3.3418,-3.3418,-3.3418,-2.1102,-2.1056,-2.0621,-2.0354,-2.0174,-1.976,-1.9499,-1.9444,-1.9424,-1.9424,-1.9424,-1.9424,-1.9424,-1.9424,-1.9424,-1.9424,-1.8919,-1.7554,-1.6345,-1.4781,-1.2909,-1.1582,-1.1458,-1.1427,-1.1483,-1.1973,-1.1592,-1.0836,-1.0021,-0.9372,-0.8992,-0.8937,-0.8937,-0.8937,-0.8937,-0.8937,-0.8937,-0.8937,-0.8937,-0.8937,-0.8937,-0.8937,-0.8937,-0.8937,-0.8937,-0.8937,-0.8937,-0.8937,-0.8937,-0.8937,-0.8937,-0.8937,-0.9154,-1.0292,-1.1324,-1.2398,-1.4014,-1.5821,-1.6665,-1.7581,-1.8397,-1.8671,-1.8965,-1.9165,-1.9383,-1.9424,-1.9424,-1.9424,-1.9424,-1.9424,-1.9424,-1.9424,-1.9464,-1.9626,-1.9953,-2.0267,-2.0448,-2.0695,-2.0922,-2.1076,-2.1102,-2.1102,-2.1102,-2.1102,-2.1102,-2.1102,-2.1102,-2.1102,-2.1109,-2.1156,-2.1416,-2.1623,-2.1737,-2.1977,-2.2438,-2.2665,-2.2699,-2.2759,-2.2819,-2.2866,-2.2866,-2.2866,-2.2866,-2.3659,-2.4452,-2.5644,-2.7362,-2.9661,-3.1304,-3.1826,-3.2355,-3.2956,-3.3418,-3.3418,-3.3418,-2.1102,-2.1082,-2.0748,-2.0461,-2.014,-1.986,-1.9573,-1.9444,-1.9424,-1.9424,-1.9424,-1.9424,-1.9424,-1.9424,-1.9424,-1.9424,-1.8583,-1.6315,-1.481,-1.4306,-1.1273,-1.005,-0.9692,-0.9594,-0.9805,-1.0672,-1.0621,-0.997,-0.9265,-0.8937,-0.8937,-0.8937,-0.8937,-0.8937,-0.8937,-0.8937,-0.8937,-0.8937,-0.8937,-0.8937,-0.8937,-0.8937,-0.8937,-0.8937,-0.8937,-0.8937,-0.8937,-0.8937,-0.8937,-0.8937,-0.8937,-0.9047,-0.9592,-1.0621,-1.2077,-1.3534,-1.5097,-1.6404,-1.7484,-1.8174,-1.8591,-1.8905,-1.9192,-1.9339,-1.9424,-1.9424,-1.9424,-1.9424,-1.9424,-1.9424,-1.9424,-1.9424,-1.9512,-1.9753,-2.0047,-2.0347,-2.0648,-2.0929,-2.1069,-2.1096,-2.1102,-2.1102,-2.1102,-2.1102,-2.1102,-2.1102,-2.1102,-2.1102,-2.1109,-2.1229,-2.149,-2.1784,-2.1937,-2.2171,-2.2612,-2.2752,-2.2874,-2.2826,-2.2866,-2.2866,-2.2866,-2.2866,-2.2996,-2.3665,-2.4595,-2.5651,-2.6906,-2.8812,-3.0125,-3.0707,-3.1561,-3.2292,-3.2883,-3.3282,-3.3418,-2.1102,-2.1062,-2.0535,-2.0274,-2.0154,-1.9666,-1.9484,-1.943,-1.9424,-1.9424,-1.9424,-1.9424,-1.9424,-1.9424,-1.9424,-1.9424,-1.8467,-1.6085,-1.4504,-1.3839,-1.1016,-0.9398,-0.9262,-0.9052,-0.9109,-0.9154,-0.9372,-0.921,-0.8992,-0.8937,-0.8937,-0.8937,-0.8937,-0.8937,-0.8937,-0.8937,-0.8937,-0.8937,-0.8937,-0.8937,-0.8937,-0.8937,-0.8937,-0.8937,-0.8937,-0.8937,-0.8937,-0.8937,-0.8937,-0.8937,-0.8937,-0.9592,-1.0672,-1.2077,-1.3426,-1.4829,-1.6211,-1.7389,-1.7961,-1.835,-1.8624,-1.8905,-1.9199,-1.941,-1.9424,-1.9424,-1.9424,-1.9424,-1.9424,-1.9424,-1.9424,-1.9457,-1.9526,-1.978,-2.0094,-2.0381,-2.0675,-2.0922,-2.1102,-2.1102,-2.1102,-2.1102,-2.1102,-2.1102,-2.1102,-2.1102,-2.1102,-2.1102,-2.1102,-2.1296,-2.1577,-2.1884,-2.2184,-2.2458,-2.2779,-2.2812,-2.2846,-2.2846,-2.2866,-2.2866,-2.2866,-2.2866,-2.3195,-2.3529,-2.4331,-2.5323,-2.6706,-2.8089,-2.9213,-3.006,-3.0909,-3.1762,-3.2629,-3.3418,-3.3418,-2.1102,-2.1049,-2.0481,-2.0173,-2.0134,-1.9613,-1.9424,-1.9424,-1.9424,-1.9424,-1.9424,-1.9424,-1.9424,-1.9424,-1.9424,-1.9004,-1.763,-1.579,-1.4178,-1.2854,-1.0704,-0.9327,-0.9262,-0.9035,-0.896,-0.8937,-0.8937,-0.8937,-0.8937,-0.8937,-0.8937,-0.8937,-0.8937,-0.8937,-0.8937,-0.8937,-0.8937,-0.8937,-0.8937,-0.8937,-0.8937,-0.8937,-0.8937,-0.8937,-0.8937,-0.8937,-0.8937,-0.8937,-0.8937,-0.8937,-0.8937,-1.0131,-1.1755,-1.2945,-1.3965,-1.5393,-1.6904,-1.7943,-1.825,-1.8551,-1.8851,-1.9118,-1.9357,-1.941,-1.9424,-1.9424,-1.9424,-1.9424,-1.9424,-1.9424,-1.9424,-1.9486,-1.972,-1.9993,-2.0274,-2.0561,-2.0828,-2.1022,-2.1082,-2.1102,-2.1102,-2.1102,-2.1102,-2.1102,-2.1102,-2.1102,-2.1102,-2.1102,-2.1102,-2.1309,-2.1577,-2.2004,-2.2318,-2.2565,-2.2792,-2.2819,-2.2806,-2.2799,-2.2866,-2.2866,-2.2866,-2.2866,-2.2866,-2.3065,-2.3992,-2.4926,-2.5457,-2.6447,-2.79,-2.9344,-3.0263,-3.124,-3.2619,-3.3418,-3.3418,-2.1076,-2.0975,-2.0393,-2.0201,-2.006,-1.9593,-1.9424,-1.9424,-1.9424,-1.9424,-1.9424,-1.9424,-1.9424,-1.9424,-1.9243,-1.8525,-1.6962,-1.5333,-1.3716,-1.2043,-1.0269,-0.9316,-0.9204,-0.9022,-0.8937,-0.8937,-0.8937,-0.8937,-0.8937,-0.8937,-0.8937,-0.8937,-0.8937,-0.8937,-0.8937,-0.8937,-0.8937,-0.8937,-0.8937,-0.8937,-0.8937,-0.8937,-0.8937,-0.8937,-0.8937,-0.8937,-0.8937,-0.8937,-0.921,-0.9372,-0.9754,-1.0726,-1.3166,-1.3797,-1.4472,-1.5857,-1.7292,-1.8026,-1.8537,-1.8751,-1.9005,-1.9285,-1.9403,-1.9424,-1.9424,-1.9424,-1.9424,-1.9424,-1.9424,-1.9424,-1.9457,-1.9626,-1.99,-2.0187,-2.0474,-2.0768,-2.0962,-2.1096,-2.1089,-2.1102,-2.1102,-2.1102,-2.1102,-2.1102,-2.1102,-2.1102,-2.1102,-2.1102,-2.1122,-2.1256,-2.1557,-2.2064,-2.2425,-2.2645,-2.2786,-2.2806,-2.2746,-2.2665,-2.2786,-2.2866,-2.2866,-2.2866,-2.2866,-2.2928,-2.3461,-2.4324,-2.4527,-2.4993,-2.6514,-2.7957,-2.9335,-3.0918,-3.2565,-3.3355,-3.3418,-2.0962,-2.0702,-2.0368,-2.0087,-1.9826,-1.9564,-1.9424,-1.9424,-1.9424,-1.9424,-1.9424,-1.9424,-1.9424,-1.9424,-1.9424,-1.8467,-1.6915,-1.5237,-1.3547,-1.1916,-1.0119,-0.9241,-0.9183,-0.9005,-0.8947,-0.8937,-0.8937,-0.8937,-0.8937,-0.8937,-0.8937,-0.8937,-0.8937,-0.8937,-0.8937,-0.8937,-0.8937,-0.8937,-0.8937,-0.8937,-0.8937,-0.8937,-0.8937,-0.8937,-0.8937,-0.8937,-0.8937,-0.9099,-0.9533,-1.0617,-1.0781,-1.2295,-1.4643,-1.5484,-1.635,-1.7267,-1.7968,-1.8235,-1.8744,-1.8931,-1.9072,-1.9312,-1.9424,-1.9424,-1.9424,-1.9424,-1.9424,-1.9424,-1.9424,-1.9424,-1.9477,-1.9646,-1.992,-2.0221,-2.0541,-2.0815,-2.1036,-2.1102,-2.1102,-2.1102,-2.1102,-2.1102,-2.1102,-2.1102,-2.1102,-2.1102,-2.1102,-2.1102,-2.1189,-2.1349,-2.1543,-2.2044,-2.2498,-2.2732,-2.2792,-2.2812,-2.2759,-2.2619,-2.2719,-2.2859,-2.2866,-2.2866,-2.2866,-2.3065,-2.3461,-2.3597,-2.3665,-2.4263,-2.539,-2.6781,-2.8361,-3.0531,-3.2829,-3.3219,-3.3355,-2.0788,-2.0641,-2.0174,-1.9913,-1.9773,-1.9551,-1.9424,-1.9424,-1.9424,-1.9424,-1.9424,-1.9424,-1.9424,-1.9424,-1.9424,-1.8525,-1.6909,-1.5184,-1.3495,-1.176,-1.0109,-0.9166,-0.9032,-0.8971,-0.894,-0.8937,-0.8937,-0.8937,-0.8937,-0.8937,-0.8937,-0.8937,-0.8937,-0.8937,-0.8937,-0.8937,-0.8937,-0.8937,-0.8937,-0.8937,-0.8937,-0.8937,-0.8937,-0.8937,-0.8937,-0.8937,-0.9099,-0.986,-1.0351,-1.1269,-1.1755,-1.3335,-1.5118,-1.5933,-1.663,-1.8315,-1.8488,-1.8677,-1.8898,-1.9072,-1.9225,-1.9312,-1.9424,-1.9424,-1.9424,-1.9424,-1.9424,-1.9424,-1.9424,-1.943,-1.9531,-1.9793,-2.0027,-2.0307,-2.0635,-2.0848,-2.1049,-2.1069,-2.1102,-2.1102,-2.1102,-2.1102,-2.1102,-2.1102,-2.1102,-2.1102,-2.1109,-2.1122,-2.1296,-2.155,-2.1764,-2.2031,-2.2452,-2.2819,-2.2826,-2.2826,-2.2826,-2.2739,-2.2752,-2.2859,-2.2859,-2.2866,-2.2866,-2.2866,-2.3133,-2.3065,-2.2866,-2.3393,-2.4392,-2.592,-2.7511,-2.9605,-3.1707,-3.3165,-3.3228,-2.0568,-2.0514,-2.0013,-1.976,-1.9679,-1.9459,-1.9424,-1.9424,-1.9424,-1.9424,-1.9424,-1.9424,-1.9424,-1.9424,-1.9243,-1.8286,-1.6239,-1.5009,-1.311,-1.1372,-1.0016,-0.9192,-0.8991,-0.8937,-0.8937,-0.8937,-0.8937,-0.8937,-0.8937,-0.8937,-0.8937,-0.8937,-0.8937,-0.8937,-0.8937,-0.8937,-0.8937,-0.8937,-0.8937,-0.8937,-0.8937,-0.8937,-0.8937,-0.8937,-0.8937,-0.9047,-0.9592,-1.0351,-1.1,-1.2566,-1.3264,-1.4633,-1.6126,-1.6781,-1.73,-1.8509,-1.8818,-1.8998,-1.9112,-1.9225,-1.9403,-1.9424,-1.9424,-1.9424,-1.9424,-1.9424,-1.9424,-1.9424,-1.9424,-1.9464,-1.9559,-1.9947,-2.0207,-2.0481,-2.0795,-2.0969,-2.1102,-2.1102,-2.1102,-2.1102,-2.1102,-2.1102,-2.1102,-2.1102,-2.1102,-2.1102,-2.1116,-2.1136,-2.1376,-2.1677,-2.1937,-2.2164,-2.2505,-2.2799,-2.2719,-2.2739,-2.2772,-2.2826,-2.2839,-2.2859,-2.2859,-2.2866,-2.2866,-2.2866,-2.2866,-2.2866,-2.2866,-2.3065,-2.3461,-2.5188,-2.6906,-2.8484,-3.0319,-3.2036,-3.3155,-2.0267,-2.018,-1.9927,-1.9639,-1.9412,-1.9437,-1.9424,-1.9424,-1.9424,-1.9424,-1.9424,-1.9424,-1.9424,-1.9424,-1.9185,-1.7877,-1.5069,-1.4542,-1.2762,-1.0801,-0.9279,-0.9076,-0.8981,-0.8937,-0.8937,-0.8937,-0.8937,-0.8937,-0.8937,-0.8937,-0.8937,-0.8937,-0.8937,-0.8937,-0.8937,-0.8937,-0.8937,-0.8937,-0.8937,-0.8937,-0.8937,-0.8937,-0.8937,-0.8937,-0.9047,-0.9537,-1.0836,-1.1378,-1.2403,-1.4449,-1.499,-1.5791,-1.7111,-1.7672,-1.8255,-1.8639,-1.9072,-1.9225,-1.9357,-1.937,-1.941,-1.9424,-1.9424,-1.9424,-1.9424,-1.9424,-1.9424,-1.9464,-1.9511,-1.9559,-1.976,-2.0047,-2.0374,-2.0595,-2.0842,-2.1009,-2.1102,-2.1102,-2.1102,-2.1102,-2.1102,-2.1102,-2.1102,-2.1102,-2.1102,-2.1102,-2.1129,-2.1156,-2.1456,-2.175,-2.2058,-2.2325,-2.2625,-2.2746,-2.2559,-2.2599,-2.2766,-2.2799,-2.2799,-2.2832,-2.2866,-2.2866,-2.2866,-2.2866,-2.2866,-2.2866,-2.2866,-2.2996,-2.3529,-2.4783,-2.6298,-2.7817,-2.9717,-3.1634,-3.2629,-2.0173,-2.0187,-1.9733,-1.9472,-1.9424,-1.9424,-1.9424,-1.9424,-1.9424,-1.9424,-1.9424,-1.9424,-1.9424,-1.9424,-1.9424,-1.8887,-1.7295,-1.5131,-1.3514,-1.1933,-1.0568,-0.93,-0.8984,-0.895,-0.8937,-0.8885,-0.894,-0.8937,-0.8937,-0.8937,-0.8937,-0.8937,-0.8937,-0.8937,-0.8937,-0.8937,-0.8937,-0.8937,-0.8937,-0.8937,-0.8937,-0.8937,-0.8937,-0.8937,-1.0025,-1.0402,-1.1265,-1.294,-1.4228,-1.5304,-1.6227,-1.7096,-1.7841,-1.835,-1.8631,-1.8905,-1.9296,-1.939,-1.9424,-1.9424,-1.9424,-1.9424,-1.9424,-1.9424,-1.9424,-1.9424,-1.9479,-1.9553,-1.9619,-1.9726,-2.004,-2.0327,-2.0588,-2.0728,-2.0875,-2.1042,-2.1102,-2.1102,-2.1102,-2.1102,-2.1102,-2.1102,-2.1102,-2.1102,-2.1102,-2.1102,-2.1136,-2.1229,-2.155,-2.1916,-2.2158,-2.2418,-2.2706,-2.2832,-2.2672,-2.2726,-2.2812,-2.2792,-2.2772,-2.2819,-2.2866,-2.2866,-2.2866,-2.2866,-2.2866,-2.2866,-2.2866,-2.2866,-2.3324,-2.4121,-2.5442,-2.7089,-2.9065,-3.124,-3.1963,-2.0187,-2.0047,-1.9573,-1.9424,-1.9424,-1.9424,-1.9424,-1.9424,-1.9424,-1.9424,-1.9424,-1.9424,-1.9424,-1.9424,-1.9424,-1.8467,-1.7237,-1.5381,-1.3839,-1.2116,-1.0317,-0.9291,-0.9079,-0.9039,-0.9055,-0.8988,-0.8991,-0.9005,-0.8937,-0.8937,-0.8937,-0.8937,-0.8937,-0.8937,-0.8937,-0.8937,-0.9103,-0.9427,-0.9047,-0.9316,-0.9427,-0.9099,-0.8937,-0.9154,-1.0241,-1.1324,-1.224,-1.3852,-1.531,-1.6174,-1.698,-1.7749,-1.8176,-1.8497,-1.8764,-1.9072,-1.9312,-1.9417,-1.9424,-1.9424,-1.9424,-1.9424,-1.9424,-1.9424,-1.9424,-1.9437,-1.9479,-1.9733,-1.98,-1.9953,-2.0281,-2.0548,-2.0728,-2.0855,-2.0962,-2.1102,-2.1102,-2.1102,-2.1102,-2.1102,-2.1102,-2.1102,-2.1102,-2.1102,-2.1116,-2.1169,-2.1289,-2.143,-2.1724,-2.2017,-2.2285,-2.2525,-2.2752,-2.2826,-2.2853,-2.2846,-2.2832,-2.2832,-2.2826,-2.2832,-2.2866,-2.2866,-2.2866,-2.2866,-2.2866,-2.2866,-2.2866,-2.2866,-2.2866,-2.2996,-2.4918,-2.723,-2.8747,-3.0716,-3.1304,-2.006,-1.978,-1.9499,-1.9424,-1.9424,-1.9424,-1.9424,-1.9424,-1.9424,-1.9424,-1.9424,-1.9424,-1.9424,-1.9424,-1.9424,-1.811,-1.6085,-1.4924,-1.3258,-1.0985,-1.0043,-0.9439,-0.9279,-0.9222,-0.9191,-0.9032,-0.9066,-0.9089,-0.8957,-0.8977,-0.8967,-0.8895,-0.8905,-0.8957,-0.8944,-0.8888,-0.9651,-1.0629,-0.9551,-0.978,-1.0358,-0.9809,-0.9411,-0.9629,-1.1101,-1.2519,-1.3426,-1.4829,-1.6246,-1.7178,-1.7331,-1.7829,-1.8155,-1.841,-1.8671,-1.8991,-1.9252,-1.941,-1.9424,-1.9424,-1.9424,-1.9424,-1.9424,-1.9424,-1.943,-1.9412,-1.9546,-1.9867,-1.992,-2.0154,-2.0441,-2.0708,-2.0862,-2.0962,-2.1062,-2.1102,-2.1102,-2.1102,-2.1102,-2.1102,-2.1102,-2.1102,-2.1102,-2.1109,-2.1129,-2.1216,-2.1403,-2.1695,-2.1891,-2.2144,-2.2405,-2.2612,-2.2806,-2.2826,-2.2866,-2.2866,-2.2859,-2.2866,-2.2866,-2.2866,-2.2866,-2.2866,-2.2866,-2.2866,-2.2866,-2.2866,-2.2866,-2.2866,-2.2866,-2.3195,-2.5659,-2.7768,-2.9083,-3.0068,-3.0651,-1.9893,-1.978,-1.9492,-1.9424,-1.9424,-1.9424,-1.9424,-1.9424,-1.9424,-1.9424,-1.9424,-1.9424,-1.9424,-1.9424,-1.9243,-1.8169,-1.6321,-1.4772,-1.3067,-1.126,-1.0143,-0.9604,-0.9381,-0.9354,-0.933,-0.9273,-0.9283,-0.9225,-0.9086,-0.9083,-0.9011,-0.8977,-0.9042,-0.9018,-0.8994,-0.9123,-0.9861,-1.0795,-1.0144,-0.9845,-1.1214,-1.0915,-1.0516,-1.0572,-1.2712,-1.419,-1.4671,-1.5981,-1.713,-1.7776,-1.7782,-1.7949,-1.8384,-1.8637,-1.8724,-1.9072,-1.9417,-1.9417,-1.9424,-1.9424,-1.9424,-1.9424,-1.9424,-1.9424,-1.943,-1.9566,-1.9786,-2.004,-2.0214,-2.0514,-2.0869,-2.0949,-2.1042,-2.1049,-2.1102,-2.1102,-2.1102,-2.1102,-2.1102,-2.1102,-2.1102,-2.1102,-2.1102,-2.1196,-2.1236,-2.137,-2.1563,-2.1737,-2.1971,-2.2231,-2.2485,-2.2686,-2.2846,-2.2853,-2.2866,-2.2866,-2.2866,-2.2866,-2.2866,-2.2866,-2.2866,-2.2866,-2.2866,-2.2866,-2.2866,-2.2866,-2.2866,-2.2866,-2.2866,-2.3727,-2.5457,-2.7047,-2.8163,-2.9148,-3.0125,-1.974,-1.9633,-1.9446,-1.9424,-1.9424,-1.9424,-1.9424,-1.9424,-1.9424,-1.9424,-1.9424,-1.9424,-1.9424,-1.9424,-1.9243,-1.7994,-1.6256,-1.5128,-1.3025,-1.1446,-1.0211,-0.9647,-0.9513,-0.949,-0.9466,-0.9442,-0.9418,-0.9367,-0.9214,-0.9265,-0.9188,-0.9161,-0.9181,-0.9181,-0.9157,-0.9365,-1.0357,-1.1142,-1.0871,-1.0395,-1.1631,-1.1999,-1.1481,-1.2257,-1.3856,-1.5863,-1.6181,-1.6927,-1.7983,-1.8076,-1.8136,-1.8217,-1.8657,-1.8838,-1.8891,-1.9276,-1.9424,-1.9424,-1.9424,-1.9424,-1.9424,-1.9424,-1.9424,-1.9424,-1.9477,-1.9613,-1.99,-2.0194,-2.0501,-2.0788,-2.1022,-2.1082,-2.1102,-2.1102,-2.1102,-2.1102,-2.1102,-2.1102,-2.1102,-2.1102,-2.1102,-2.1102,-2.1129,-2.1269,-2.1363,-2.1543,-2.1737,-2.1911,-2.2098,-2.2358,-2.2579,-2.2739,-2.2866,-2.2866,-2.2866,-2.2866,-2.2866,-2.2866,-2.2866,-2.2866,-2.2866,-2.2866,-2.2866,-2.2928,-2.2996,-2.2996,-2.2928,-2.2866,-2.2996,-2.3195,-2.3863,-2.539,-2.6972,-2.8418,-2.98,-1.9626,-1.9444,-1.9424,-1.9424,-1.9424,-1.9424,-1.9424,-1.9424,-1.9424,-1.9424,-1.9424,-1.9424,-1.9424,-1.9424,-1.9424,-1.7695,-1.5316,-1.4718,-1.2675,-1.0759,-0.9899,-0.97,-0.9686,-0.9703,-0.9629,-0.9537,-0.9503,-0.949,-0.9282,-0.9333,-0.9334,-0.9351,-0.9361,-0.9361,-0.9367,-0.9975,-1.124,-1.2192,-1.1499,-1.1767,-1.3423,-1.3131,-1.287,-1.3596,-1.517,-1.643,-1.6987,-1.7669,-1.8307,-1.8464,-1.847,-1.8657,-1.8831,-1.8918,-1.9112,-1.933,-1.9417,-1.9424,-1.9424,-1.9424,-1.9424,-1.9424,-1.9424,-1.9424,-1.9504,-1.9633,-1.992,-2.0207,-2.0501,-2.0795,-2.1042,-2.1076,-2.1102,-2.1102,-2.1102,-2.1102,-2.1102,-2.1102,-2.1102,-2.1102,-2.1102,-2.1116,-2.1156,-2.1276,-2.151,-2.173,-2.1944,-2.2225,-2.2405,-2.2579,-2.2746,-2.2772,-2.2866,-2.2866,-2.2866,-2.2866,-2.2866,-2.2866,-2.2866,-2.2866,-2.2866,-2.2866,-2.2866,-2.2928,-2.3058,-2.3058,-2.2996,-2.3065,-2.3195,-2.34,-2.34,-2.4324,-2.6046,-2.8418,-2.967,-1.9439,-1.9424,-1.9424,-1.9424,-1.9424,-1.9424,-1.9424,-1.9424,-1.9424,-1.9424,-1.9424,-1.9424,-1.9424,-1.9424,-1.9366,-1.7337,-1.5671,-1.4187,-1.2393,-1.0899,-0.9819,-0.9795,-0.9788,-0.9788,-0.9751,-0.973,-0.9696,-0.9642,-0.9486,-0.9456,-0.9391,-0.9381,-0.95,-0.9534,-1.0044,-1.0758,-1.2457,-1.3331,-1.2203,-1.3364,-1.4966,-1.5207,-1.4887,-1.5486,-1.6765,-1.7735,-1.8026,-1.8217,-1.8624,-1.8771,-1.8591,-1.8704,-1.9199,-1.9065,-1.9052,-1.9377,-1.9424,-1.9424,-1.9424,-1.9424,-1.9424,-1.9424,-1.9424,-1.9424,-1.9504,-1.9633,-1.992,-2.0207,-2.0501,-2.0795,-2.1015,-2.1089,-2.1102,-2.1102,-2.1102,-2.1102,-2.1102,-2.1102,-2.1102,-2.1102,-2.1102,-2.1156,-2.1203,-2.141,-2.165,-2.1891,-2.2151,-2.2445,-2.2639,-2.2779,-2.2846,-2.2859,-2.2866,-2.2866,-2.2866,-2.2866,-2.2866,-2.2866,-2.2866,-2.2866,-2.2866,-2.2866,-2.2866,-2.3065,-2.3256,-2.3195,-2.3003,-2.3331,-2.3992,-2.3263,-2.3263,-2.4121,-2.5315,-2.7362,-2.9083,-1.9424,-1.9424,-1.9424,-1.9424,-1.9424,-1.9424,-1.9424,-1.9424,-1.9424,-1.9424,-1.9424,-1.9424,-1.9424,-1.9424,-1.9243,-1.7695,-1.4782,-1.4426,-1.2868,-1.0479,-0.9819,-0.9815,-0.9819,-0.9819,-0.9808,-0.9819,-0.9802,-0.9724,-0.9622,-0.9551,-0.949,-0.9581,-0.9666,-1.0091,-1.0782,-1.171,-1.3309,-1.4138,-1.4471,-1.5007,-1.5946,-1.6977,-1.682,-1.7074,-1.8314,-1.8787,-1.8844,-1.8867,-1.8931,-1.9072,-1.8878,-1.8978,-1.9345,-1.9199,-1.9138,-1.9417,-1.9424,-1.9424,-1.9424,-1.9424,-1.9424,-1.9424,-1.9424,-1.9424,-1.9524,-1.9633,-1.992,-2.0207,-2.0501,-2.0775,-2.0955,-2.1102,-2.1102,-2.1102,-2.1102,-2.1102,-2.1102,-2.1102,-2.1102,-2.1102,-2.1142,-2.1196,-2.1336,-2.1628,-2.183,-2.2131,-2.2385,-2.2612,-2.2746,-2.2812,-2.2859,-2.2859,-2.2866,-2.2866,-2.2866,-2.2866,-2.2866,-2.2866,-2.2866,-2.2866,-2.2866,-2.2934,-2.2934,-2.3195,-2.359,-2.3659,-2.3999,-2.452,-2.4986,-2.4188,-2.3461,-2.3992,-2.4716,-2.5711,-2.7172,-1.9424,-1.9424,-1.9424,-1.9424,-1.9424,-1.9424,-1.9424,-1.9424,-1.9424,-1.9424,-1.9424,-1.9424,-1.9424,-1.9424,-1.9307,-1.7578,-1.5375,-1.4485,-1.2873,-0.9879,-0.9819,-0.9819,-0.9819,-0.9819,-0.9819,-0.9819,-0.9805,-0.9768,-0.9676,-0.9632,-0.968,-0.9819,-0.9802,-1.0389,-1.1703,-1.2431,-1.3851,-1.5199,-1.5718,-1.6169,-1.695,-1.7313,-1.7208,-1.7483,-1.8493,-1.9377,-1.9383,-1.9397,-1.9424,-1.9417,-1.9345,-1.939,-1.9397,-1.941,-1.941,-1.9417,-1.9424,-1.9424,-1.9424,-1.9424,-1.9424,-1.9424,-1.9424,-1.9424,-1.9517,-1.9546,-1.9786,-2.0147,-2.0454,-2.0755,-2.0962,-2.1076,-2.1102,-2.1102,-2.1102,-2.1102,-2.1102,-2.1102,-2.1102,-2.1102,-2.1116,-2.1203,-2.145,-2.1742,-2.1951,-2.2325,-2.2599,-2.2792,-2.2839,-2.2859,-2.2866,-2.2866,-2.2866,-2.2866,-2.2866,-2.2866,-2.2866,-2.2866,-2.2866,-2.2866,-2.2866,-2.2934,-2.3003,-2.3795,-2.4723,-2.5053,-2.545,-2.5979,-2.5979,-2.5113,-2.452,-2.4188,-2.446,-2.4858,-2.618,-1.9424,-1.9424,-1.9424,-1.9424,-1.9424,-1.9424,-1.9424,-1.9424,-1.9424,-1.9424,-1.9424,-1.9424,-1.9424,-1.9424,-1.9366,-1.7695,-1.5375,-1.448,-1.2573,-1.0721,-0.9879,-0.9819,-0.9819,-0.9819,-0.9819,-0.9819,-0.9812,-0.9741,-0.9761,-0.9761,-0.9774,-0.9815,-0.9819,-1.066,-1.2393,-1.3168,-1.454,-1.6085,-1.7273,-1.7812,-1.8409,-1.8765,-1.8881,-1.8823,-1.9424,-1.9424,-1.9424,-1.9424,-1.9424,-1.9424,-1.9424,-1.9417,-1.9424,-1.9424,-1.9424,-1.9424,-1.9424,-1.9424,-1.9424,-1.9424,-1.9424,-1.9424,-1.9424,-1.9424,-1.945,-1.9504,-1.9659,-2.0047,-2.0326,-2.0688,-2.0949,-2.1036,-2.1102,-2.1102,-2.1102,-2.1102,-2.1102,-2.1102,-2.1102,-2.1102,-2.1102,-2.1283,-2.153,-2.1804,-2.2091,-2.2378,-2.2665,-2.2914,-2.2853,-2.2866,-2.2866,-2.2866,-2.2866,-2.2866,-2.2866,-2.2866,-2.2866,-2.2866,-2.2866,-2.2866,-2.2866,-2.2934,-2.3133,-2.4926,-2.5979,-2.618,-2.6506,-2.7304,-2.7105,-2.6105,-2.4851,-2.4256,-2.3727,-2.3931,-2.5651,-1.9424,-1.9424,-1.9424,-1.9424,-1.9424,-1.9424,-1.9424,-1.9424,-1.9424,-1.9424,-1.9424,-1.9424,-1.9424,-1.9424,-1.9366,-1.8227,-1.5725,-1.4896,-1.3228,-1.1438,-1.0061,-0.9819,-0.9819,-0.9819,-0.9819,-0.9819,-0.9819,-0.9819,-0.9819,-0.9819,-0.9815,-0.9819,-0.994,-1.0899,-1.2868,-1.4247,-1.5316,-1.6862,-1.859,-1.9185,-1.9366,-1.9366,-1.9366,-1.9424,-1.9424,-1.9424,-1.9424,-1.9424,-1.9424,-1.9424,-1.9424,-1.9424,-1.9424,-1.9424,-1.9424,-1.9424,-1.9424,-1.9424,-1.9424,-1.9424,-1.9424,-1.9424,-1.9424,-1.9424,-1.9424,-1.9504,-1.9686,-1.9987,-2.0167,-2.0508,-2.0915,-2.1096,-2.1102,-2.1102,-2.1102,-2.1102,-2.1102,-2.1102,-2.1102,-2.1102,-2.1142,-2.1249,-2.1516,-2.1804,-2.2098,-2.2385,-2.2679,-2.2853,-2.2859,-2.2866,-2.2866,-2.2866,-2.2866,-2.2866,-2.2866,-2.2866,-2.2866,-2.2866,-2.2866,-2.2866,-2.2866,-2.2934,-2.3468,-2.4993,-2.618,-2.6773,-2.7304,-2.8032,-2.7966,-2.7105,-2.5584,-2.4128,-2.3659,-2.3597,-2.554,-1.9424,-1.9424,-1.9424,-1.9424,-1.9424,-1.9424,-1.9424,-1.9424,-1.9424,-1.9424,-1.9424,-1.9424,-1.9424,-1.9424,-1.9366,-1.8221,-1.6909,-1.5252,-1.3586,-1.1976,-1.0418,-1.0001,-0.9819,-0.9819,-0.9819,-0.9819,-0.9819,-0.9819,-0.9819,-0.9819,-0.9819,-0.9819,-1.0422,-1.1382,-1.3651,-1.4901,-1.5612,-1.7572,-1.8881,-1.9127,-1.9243,-1.9307,-1.9366,-1.9424,-1.9424,-1.9424,-1.9424,-1.9424,-1.9424,-1.9424,-1.9424,-1.9424,-1.9424,-1.9424,-1.9424,-1.9424,-1.9424,-1.9424,-1.9424,-1.9424,-1.9424,-1.9424,-1.9424,-1.9424,-1.9424,-1.9486,-1.9726,-1.998,-2.016,-2.0414,-2.0822,-2.1102,-2.1102,-2.1102,-2.1102,-2.1102,-2.1102,-2.1102,-2.1102,-2.1102,-2.1169,-2.1256,-2.1516,-2.1804,-2.2098,-2.2385,-2.2612,-2.2759,-2.2866,-2.2866,-2.2866,-2.2866,-2.2866,-2.2866,-2.2866,-2.2866,-2.2866,-2.2866,-2.2866,-2.2866,-2.2866,-2.2934,-2.3461,-2.4723,-2.5845,-2.6698,-2.7561,-2.8287,-2.8098,-2.8032,-2.618,-2.4655,-2.446,-2.467,-2.6107,-1.9424,-1.9424,-1.9424,-1.9424,-1.9424,-1.9424,-1.9424,-1.9424,-1.9424,-1.9424,-1.9424,-1.9424,-1.9424,-1.9424,-1.9424,-1.8583,-1.7267,-1.5488,-1.3765,-1.2097,-1.06,-1.0001,-0.9819,-0.9819,-0.9819,-0.9819,-0.9819,-0.9819,-0.9819,-0.9819,-0.9819,-0.9819,-0.9819,-1.1318,-1.4009,-1.496,-1.5666,-1.7689,-1.8823,-1.9068,-1.8402,-1.8583,-1.9307,-1.9424,-1.9424,-1.9424,-1.9424,-1.9424,-1.9424,-1.9424,-1.9424,-1.9424,-1.9424,-1.9424,-1.9424,-1.9424,-1.9424,-1.9424,-1.9424,-1.9424,-1.9424,-1.9424,-1.9424,-1.9424,-1.9424,-1.943,-1.9673,-2.0047,-2.0241,-2.0414,-2.0755,-2.1022,-2.1102,-2.1102,-2.1102,-2.1102,-2.1102,-2.1102,-2.1102,-2.1102,-2.1122,-2.1289,-2.1516,-2.1804,-2.2091,-2.2385,-2.2679,-2.2812,-2.2859,-2.2866,-2.2866,-2.2866,-2.2866,-2.2866,-2.2866,-2.2866,-2.2866,-2.2866,-2.2866,-2.2866,-2.2866,-2.2866,-2.359,-2.4918,-2.5771,-2.6565,-2.7421,-2.855,-2.9009,-2.8747,-2.6765,-2.5375,-2.5113,-2.5547,-2.6867]},{"header":{"parameterUnit":"m.s-1","parameterCategory":1,"la1":31.0,"la2":29.5877,"lo1":-88.7671,"lo2":-86.6584,"dy":0.0162,"dx":0.0185,"nx":115,"ny":88,"refTime":"2026-05-18T00:00:00:Z","depth":0,"parameterNumber":3,"parameterNumberName":"V-component_of_WINDS"},"data":[0.0,0.0,0.0,0.0,0.0,0.0,0.0,0.0,0.0,0.0,0.0,0.0,0.0,0.0,0.0,0.0,0.0,0.0,0.0,0.0,0.0,0.0,0.0,0.0,0.0,0.0,0.0,0.0,0.0,0.0,0.0,0.0,0.0,0.0,0.0,0.0,0.0,0.0,0.0,0.0,0.0,0.0,0.0,0.0,0.0,0.0,0.0,0.0,0.0,0.0,0.0,0.0,0.0,0.0,0.0,0.0,0.0,0.0,0.0,0.0,0.0,0.0,0.0,0.0,0.0,0.0,0.0,0.0,0.0,0.0,0.0,0.0,0.0,0.0,0.0,0.0,0.0,0.0,0.0,0.0,0.0,0.0,0.0,0.0,0.0,0.0,0.0,0.0,0.0,0.0,0.0,0.0,0.0,0.0,0.0,0.0,0.0,0.0,0.0,0.0,0.0,0.0,0.0,0.0,0.0,0.0,0.0,0.0,0.0,0.0,0.0,0.0,0.0,0.0,0.0,0.0,0.0,0.0,0.0,0.0,0.0,0.0,0.0,0.0,0.0,0.0,0.0,0.0,0.0,0.0,0.0,0.0,0.0,0.0,0.0,0.0,0.0,0.0,0.0,0.0,0.0,0.0,0.0,0.0,0.0,0.0,0.0,0.0,0.0,0.0,0.0,0.0,0.0,0.0,0.0,0.0,0.0,0.0,0.0,0.0,0.0,0.0,0.0,0.0,0.0,0.0,0.0,0.0,0.0,0.0,0.0,0.0,0.0,0.0,0.0,0.0,0.0,0.0,0.0,0.0,0.0,0.0,0.0,0.0,0.0,0.0,0.0,0.0,0.0,0.0,0.0,0.0,0.0,0.0,0.0,0.0,0.0,0.0,0.0,0.0,0.0,0.0,0.0,0.0,0.0,0.0,0.0,0.0,0.0,0.0,0.0,0.0,0.0,0.0,0.0,0.0,0.0,0.0,0.0,0.0,0.0,0.0,0.0,0.0,0.0,0.0,0.0,0.0,0.0,0.0,0.0,0.0,0.0,0.0,0.0,0.0,0.0,0.0,0.0,0.0,0.0,0.0,0.0,0.0,0.0,0.0,0.0,0.0,0.0,0.0,0.0,0.0,0.0,0.0,0.0,0.0,0.0,0.0,0.0,0.0,0.0,0.0,0.0,0.0,0.0,0.0,0.0,0.0,0.0,0.0,0.0,0.0,0.0,0.0,0.0,0.0,0.0,0.0,0.0,0.0,0.0,0.0,0.0,0.0,0.0,0.0,0.0,0.0,0.0,0.0,0.0,0.0,0.0,0.0,0.0,0.0,0.0,0.0,0.0,0.0,0.0,0.0,0.0,0.0,0.0,0.0,0.0,0.0,0.0,0.0,0.0,0.0,0.0,0.0,0.0,0.0,0.0,0.0,0.0,0.0,0.0,0.0,0.0,0.0,0.0,0.0,0.0,0.0,0.0,0.0,0.0,0.0,0.0,0.0,0.0,0.0,0.0,0.0,0.0,0.0,0.0,0.0,0.0,0.0,0.0,0.0,0.0,0.0,0.0,0.0,0.0,0.0,0.0,0.0,0.0,0.0,0.0,0.0,0.0,0.0,0.0,0.0,0.0,0.0,0.0,0.0,0.0,0.0,0.0,0.0,0.0,0.0,0.0,0.0,0.0,0.0,0.0,0.0,0.0,0.0,0.0,0.0,0.0,0.0,0.0,0.0,0.0,0.0,0.0,0.0,0.0,0.0,0.0,0.0,0.0,0.0,0.0,0.0,0.0,0.0,0.0,0.0,0.0,0.0,0.0,0.0,0.0,0.0,0.0,0.0,0.0,0.0,0.0,0.0,0.0,0.0,0.0,0.0,0.0,0.0,0.0,0.0,0.0,0.0,0.0,0.0,0.0,0.0,0.0,0.0,0.0,0.0,0.0,0.0,0.0,0.0,0.0,0.0,0.0,0.0,0.0,0.0,0.0,0.0,0.0,0.0,0.0,0.0,0.0,0.0,0.0,0.0,0.0,0.0,0.0,0.0,0.0,0.0,0.0,0.0,0.0,0.0,0.0,0.0,0.0,0.0,0.0,0.0,0.0,0.0,0.0,0.0,0.0,0.0,0.0,0.0,0.0,0.0,0.0,0.0,0.0,0.0,0.0,0.0,0.0,0.0,0.0,0.0,0.0,0.0,0.0,0.0,0.0,0.0,0.0,0.0,0.0,0.0,0.0,0.0,0.0,0.0,0.0,0.0,0.0,0.0,0.0,0.0,0.0,0.0,0.0,0.0,0.0,0.0,0.0,0.0,0.0,0.0,0.0,0.0,0.0,0.0,0.0,0.0,0.0,0.0,0.0,0.0,0.0,0.0,0.0,0.0,0.0,0.0,0.0,0.0,0.0,0.0,0.0,0.0,0.0,0.0,0.0,0.0,0.0,0.0,0.0,0.0,0.0,0.0,0.0,0.0,0.0,0.0,0.0,0.0,0.0,0.0,0.0,0.0,0.0,0.0,0.0,0.0,0.0,0.0,0.0,0.0,0.0,0.0,0.0,0.0,0.0,0.0,0.0,0.0,0.0,0.0,0.0,0.0,0.0,0.0,0.0,0.0,0.0,0.0,0.0,0.0,0.0,0.0,0.0,0.0,0.0,0.0,0.0,0.0,0.0,0.0,0.0,0.0,0.0,0.0,0.0,0.0,0.0,0.0,0.0,0.0,0.0,0.0,0.0,0.0,0.0,0.0,0.0,0.0,0.0,0.0,0.0,0.0,0.0,0.0,0.0,0.0,0.0,0.0,0.0,0.0,0.0,0.0,0.0,0.0,0.0,0.0,0.0,0.0,0.0,0.0,0.0,0.0,0.0,0.0,0.0,0.0,0.0,0.0,0.0,0.0,0.0,0.0,0.0,0.0,0.0,0.0,0.0,0.0,0.0,0.0,0.0,0.0,0.0,0.0,0.0,0.0,0.0,0.0,0.0,0.0,0.0,0.0,0.0,0.0,0.0,0.0,0.0,0.0,0.0,0.0,0.0,0.0,0.0,0.0,0.0,0.0,0.0,0.0,0.0,0.0,0.0,0.0,0.0,0.0,0.0,0.0,0.0,0.0,0.0,0.0,0.0,0.0,0.0,0.0,0.0,0.0,0.0,0.0,0.0,0.0,0.0,0.0,0.0,0.0,0.0,0.0,0.0,0.0,0.0,0.0,0.0,0.0,0.0,0.0,0.0,0.0,0.0,0.0,0.0,0.0,0.0,0.0,0.0,0.0,0.0,0.0,0.0,0.0,0.0,0.0,0.0,0.0,0.0,0.0,0.0,0.0,0.0,0.0,0.0,0.0,0.0,0.0,0.0,0.0,0.0,0.0,0.0,0.0,0.0,0.0,0.0,0.0,0.0,0.0,0.0,0.0,0.0,0.0,0.0,0.0,0.0,0.0,0.0,0.0,0.0,0.0,0.0,0.0,0.0,0.0,0.0,0.0,0.0,0.0,0.0,0.0,0.0,0.0,0.0,0.0,0.0,0.0,0.0,0.0,0.0,0.0,0.0,0.0,0.0,0.0,0.0,0.0,0.0,0.0,0.0,0.0,0.0,0.0,0.0,0.0,0.0,0.0,0.0,0.0,0.0,0.0,0.0,0.0,0.0,0.0,0.0,0.0,0.0,0.0,0.0,0.0,0.0,0.0,0.0,0.0,0.0,0.0,0.0,0.0,0.0,0.0,0.0,0.0,0.0,0.0,0.0,0.0,0.0,0.0,0.0,0.0,0.0,0.0,0.0,0.0,0.0,0.0,0.0,0.0,0.0,0.0,0.0,0.0,0.0,0.0,0.0,0.0,0.0,0.0,0.0,0.0,0.0,0.0,0.0,0.0,0.0,0.0,0.0,0.0,0.0,0.0,0.0,0.0,0.0,0.0,0.0,0.0,0.0,0.0,0.0,0.0,0.0,0.0,0.0,0.0,0.0,0.0,0.0,0.0,0.0,0.0,0.0,0.0,0.0,0.0,0.0,0.0,0.0,0.0,0.0,0.0,0.0,0.0,0.0,0.0,0.0,0.0,0.0,0.0,0.0,0.0,0.0,0.0,0.0,0.0,0.0,0.0,0.0,0.0,0.0,0.0,0.0,0.0,0.0,0.0,0.0,0.0,0.0,0.0,0.0,0.0,0.0,0.0,0.0,0.0,0.0,0.0,0.0,0.0,0.0,0.0,0.0,0.0,0.0,0.0,0.0,0.0,0.0,0.0,0.0,0.0,0.0,0.0,0.0,0.0,0.0,0.0,0.0,0.0,0.0,0.0,0.0,0.0,1.3292,0.0,0.0,0.0,0.0,0.0,0.0,0.0,0.0,0.0,0.0,0.0,0.0,0.0,0.0,0.0,0.0,0.0,0.0,0.0,0.0,0.0,0.0,0.0,0.0,0.0,0.0,0.0,0.0,0.0,0.0,0.0,0.0,0.0,0.0,0.0,0.0,0.0,0.0,0.0,0.0,0.0,0.0,0.0,0.0,0.0,0.0,0.0,0.0,0.0,0.0,0.0,0.0,0.0,0.0,0.0,0.0,0.0,0.0,0.0,0.0,0.0,0.0,0.0,0.0,0.0,0.0,0.0,0.0,0.0,0.0,0.0,0.0,0.0,0.0,0.0,0.0,0.0,0.0,0.0,0.0,0.0,0.0,0.0,0.0,0.0,0.0,0.0,0.0,0.0,0.0,0.0,0.0,0.0,0.0,0.0,0.0,0.0,0.0,0.0,0.0,0.0,0.0,0.0,0.0,0.0,0.0,0.0,0.0,0.0,0.0,1.4641,1.4403,1.4164,1.3946,1.3729,0.0,0.0,0.0,0.0,0.0,0.0,0.0,0.0,0.0,0.0,0.0,0.0,0.0,0.0,0.0,0.0,0.0,0.0,0.0,0.0,0.0,0.0,0.0,0.0,0.0,0.0,0.0,0.0,0.0,0.0,0.0,0.0,0.0,0.0,0.0,0.0,0.0,0.0,0.0,0.0,0.0,0.0,0.0,0.0,0.0,0.0,0.0,0.0,0.0,0.0,0.0,0.0,0.0,0.0,0.0,0.0,0.0,0.0,0.0,0.0,0.0,0.0,0.0,0.0,0.0,0.0,0.0,0.0,0.0,0.0,0.0,0.0,0.0,0.0,0.0,0.0,0.0,0.0,0.0,0.0,0.0,0.0,0.0,0.0,0.0,0.0,0.0,0.0,0.0,0.0,0.0,0.0,0.0,0.0,0.0,0.0,0.0,0.0,0.0,0.0,0.0,0.0,0.0,0.0,0.0,0.0,0.0,0.0,0.0,0.0,0.0,0.0,1.4482,1.43,1.4073,0.0,0.0,0.0,0.0,0.0,0.0,0.0,0.0,0.0,0.0,0.0,0.0,0.0,0.0,0.0,0.0,0.0,0.0,0.0,0.0,0.0,0.0,0.0,0.0,0.0,0.0,0.0,0.0,0.0,0.0,0.0,0.0,0.0,0.0,0.0,0.0,0.0,0.0,0.0,0.0,0.0,0.0,0.0,0.0,0.0,0.0,0.0,0.0,0.0,0.0,0.0,0.0,0.0,0.0,0.0,0.0,0.0,0.0,0.0,0.0,0.0,0.0,0.0,0.0,0.0,0.0,0.0,0.0,0.0,0.0,0.0,0.0,0.0,0.0,0.0,0.0,0.0,0.0,0.0,0.0,0.0,0.0,0.0,0.0,0.0,0.0,0.0,0.0,0.0,0.0,0.0,0.0,0.0,0.0,0.0,0.0,0.0,0.0,0.0,0.0,0.0,0.0,0.0,0.0,0.0,0.0,0.0,0.0,0.0,0.0,1.4908,1.4864,1.4552,0.0,1.3933,0.0,0.0,0.0,0.0,0.0,0.0,0.0,0.0,0.0,0.0,0.0,0.0,0.0,0.0,0.0,0.0,0.0,0.0,0.0,0.0,0.0,0.0,0.0,0.0,0.0,0.0,0.0,0.0,0.0,0.0,0.0,0.0,0.0,0.0,0.0,0.0,0.0,0.0,0.0,0.0,0.0,0.0,0.0,0.0,0.0,0.0,0.0,0.0,0.0,0.0,0.0,0.0,0.0,0.0,0.0,0.0,0.0,0.0,0.0,0.0,0.0,0.0,0.0,0.0,0.0,0.0,0.0,0.0,0.0,0.0,0.0,0.0,0.0,0.0,0.0,0.0,0.0,0.0,0.0,0.0,0.0,0.0,0.0,0.0,0.0,0.0,0.0,0.0,0.0,0.0,0.0,0.0,0.0,0.0,0.0,0.0,0.0,0.0,0.0,0.0,0.0,0.0,0.0,0.0,0.0,0.0,0.0,0.0,0.0,0.0,1.5221,1.5062,1.4625,1.4413,0.0,0.0,0.0,0.0,0.0,0.0,0.0,0.0,0.0,0.0,0.0,0.0,0.0,0.0,0.0,0.0,0.0,0.0,0.0,0.0,0.0,0.0,0.0,0.0,0.0,0.0,0.0,0.0,0.0,0.0,0.0,0.0,0.0,0.0,0.0,0.0,0.0,0.0,0.0,0.0,0.0,0.0,0.0,0.0,0.0,0.0,0.0,0.0,0.0,0.0,0.0,0.0,0.0,0.0,0.0,0.0,0.0,0.0,0.0,0.0,0.0,0.0,0.0,0.0,0.0,0.0,0.0,0.0,0.0,0.0,0.0,0.0,0.0,0.0,0.0,0.0,0.0,0.0,0.0,0.0,0.0,0.0,0.0,0.0,0.0,0.0,0.0,0.0,0.0,0.0,0.0,0.0,0.0,0.0,0.0,0.0,0.0,0.0,0.0,0.0,0.0,0.0,0.0,0.0,0.0,0.0,0.0,0.0,0.0,0.0,1.5655,1.5461,1.5286,1.4917,1.4769,1.4902,0.0,0.0,0.0,0.0,0.0,0.0,0.0,0.0,0.0,0.0,0.0,0.0,0.0,0.0,0.0,0.0,0.0,0.0,0.0,0.0,0.0,0.0,0.0,0.0,0.0,0.0,0.0,0.0,0.0,0.0,0.0,0.0,0.0,0.0,0.0,0.0,0.0,0.0,0.0,0.0,0.0,0.0,0.0,0.0,0.0,0.0,0.0,0.0,0.0,0.0,0.0,0.0,0.0,0.0,0.0,0.0,0.0,0.0,0.0,0.0,0.0,0.0,0.0,0.0,0.0,0.0,0.0,0.0,0.0,0.0,0.0,0.0,0.0,0.0,0.0,0.0,0.0,0.0,0.0,0.0,0.0,0.0,0.0,0.0,0.0,0.0,0.0,0.0,0.0,0.0,0.0,0.0,0.0,0.0,0.0,0.0,0.0,0.0,0.0,0.0,0.0,0.0,0.0,0.0,0.0,0.0,0.0,0.0,1.5858,1.5805,1.5691,1.5488,1.548,1.5294,0.0,0.0,0.0,0.0,0.0,0.0,0.0,0.0,0.0,0.0,0.0,0.0,0.0,0.0,0.0,0.0,0.0,0.0,0.0,0.0,0.0,0.0,0.0,0.0,0.0,0.0,0.0,0.0,0.0,0.0,0.0,0.0,0.0,0.0,0.0,0.0,0.0,0.0,0.0,0.0,0.0,0.0,0.0,0.0,0.0,0.0,0.0,0.0,0.0,0.0,0.0,0.0,0.0,0.0,0.0,0.0,0.0,0.0,0.0,0.0,0.0,0.0,0.0,0.0,0.0,0.0,0.0,0.0,0.0,0.0,0.0,0.0,0.0,0.0,0.0,0.0,0.0,0.0,0.0,0.0,0.0,0.0,0.0,0.0,0.0,0.0,0.0,0.0,0.0,0.0,0.0,0.0,0.0,0.0,0.0,0.0,0.0,0.0,0.0,0.0,0.0,0.0,0.0,0.0,0.0,0.0,0.0,0.0,0.0,1.6911,1.6307,1.5964,1.5877,1.5635,1.5544,0.0,0.0,0.0,0.0,0.0,0.0,0.0,0.0,0.0,0.0,0.0,0.0,0.0,0.0,0.0,0.0,0.0,0.0,0.0,0.0,0.0,0.0,0.0,0.0,0.0,0.0,0.0,0.0,0.0,0.0,0.0,0.0,0.0,0.0,0.0,0.0,0.0,0.0,0.0,0.0,0.0,0.0,0.0,0.0,0.0,0.0,0.0,0.0,0.0,0.0,0.0,0.0,0.0,0.0,0.0,0.0,0.0,0.0,0.0,0.0,0.0,0.0,0.0,0.0,0.0,0.0,0.0,0.0,0.0,0.0,0.0,0.0,0.0,0.0,0.0,0.0,0.0,0.0,0.0,0.0,0.0,0.0,0.0,0.0,0.0,0.0,0.0,0.0,0.0,0.0,0.0,0.0,0.0,0.0,0.0,0.0,0.0,0.0,0.0,0.0,0.0,0.0,0.0,0.0,0.0,0.0,0.0,0.0,0.0,1.754,0.0,1.6167,1.6158,1.5947,1.5924,0.0,0.0,0.0,0.0,0.0,0.0,0.0,0.0,0.0,0.0,0.0,0.0,0.0,0.0,0.0,0.0,0.0,0.0,0.0,0.0,0.0,0.0,0.0,0.0,0.0,0.0,0.0,0.0,0.0,0.0,0.0,0.0,0.0,0.0,0.0,0.0,0.0,0.0,0.0,0.0,0.0,0.0,0.0,0.0,0.0,0.0,0.0,0.0,0.0,0.0,0.0,0.0,0.0,0.0,0.0,0.0,0.0,0.0,0.0,0.0,0.0,0.0,0.0,0.0,0.0,0.0,0.0,0.0,0.0,0.0,0.0,0.0,0.0,0.0,0.0,0.0,0.0,0.0,0.0,0.0,0.0,0.0,0.0,0.0,0.0,0.0,0.0,0.0,0.0,0.0,0.0,0.0,0.0,0.0,0.0,0.0,0.0,0.0,0.0,0.0,0.0,0.0,0.0,0.0,0.0,0.0,0.0,0.0,1.9391,1.7613,1.675,1.6395,1.6316,1.6517,1.6501,0.0,0.0,0.0,0.0,0.0,0.0,0.0,0.0,0.0,0.0,0.0,0.0,0.0,0.0,0.0,0.0,0.0,0.0,0.0,0.0,0.0,0.0,0.0,0.0,0.0,0.0,0.0,0.0,0.0,0.0,0.0,0.0,0.0,0.0,0.0,0.0,0.0,0.0,0.0,0.0,0.0,0.0,0.0,0.0,0.0,0.0,0.0,0.0,0.0,0.0,0.0,0.0,0.0,0.0,0.0,0.0,0.0,0.0,0.0,0.0,0.0,0.0,0.0,0.0,0.0,0.0,0.0,0.0,0.0,0.0,0.0,0.0,0.0,0.0,0.0,0.0,0.0,0.0,0.0,0.0,0.0,0.0,0.0,0.0,0.0,0.0,0.0,0.0,0.0,0.0,0.0,0.0,0.0,0.0,0.0,0.0,0.0,0.0,0.0,0.0,0.0,0.0,0.0,0.0,0.0,0.0,0.0,0.0,0.0,1.8448,1.8026,1.7632,1.7347,1.74,1.733,0.0,0.0,0.0,0.0,0.0,0.0,0.0,0.0,0.0,0.0,0.0,0.0,0.0,0.0,0.0,0.0,0.0,0.0,0.0,0.0,0.0,0.0,0.0,0.0,0.0,0.0,0.0,0.0,0.0,0.0,0.0,0.0,0.0,0.0,0.0,0.0,0.0,0.0,0.0,0.0,0.0,0.0,0.0,0.0,0.0,0.0,0.0,0.0,0.0,0.0,0.0,0.0,0.0,0.0,0.0,0.0,0.0,0.0,0.0,0.0,0.0,0.0,0.0,0.0,0.0,0.0,0.0,0.0,0.0,0.0,0.0,0.0,0.0,0.0,0.0,0.0,0.0,0.0,0.0,0.0,0.0,0.0,0.0,0.0,0.0,0.0,0.0,0.0,0.0,0.0,0.0,0.0,0.0,0.0,0.0,0.0,0.0,0.0,0.0,0.0,0.0,0.0,0.0,0.0,0.0,0.0,0.0,0.0,0.0,2.0064,1.9168,1.8615,1.8402,1.8204,1.812,1.8158,0.0,0.0,0.0,0.0,0.0,0.0,0.0,0.0,0.0,0.0,0.0,0.0,0.0,0.0,0.0,0.0,0.0,0.0,0.0,0.0,0.0,0.0,0.0,0.0,0.0,0.0,0.0,0.0,0.0,0.0,0.0,0.0,0.0,0.0,0.0,0.0,0.0,0.0,0.0,0.0,0.0,0.0,0.0,0.0,0.0,0.0,0.0,0.0,0.0,0.0,0.0,0.0,0.0,0.0,0.0,0.0,0.0,0.0,0.0,0.0,0.0,0.0,0.0,0.0,0.0,0.0,0.0,0.0,0.0,0.0,0.0,0.0,0.0,0.0,0.0,0.0,0.0,0.0,0.0,0.0,0.0,0.0,0.0,0.0,0.0,0.0,0.0,0.0,0.0,0.0,0.0,0.0,0.0,0.0,0.0,0.0,0.0,0.0,0.0,0.0,0.0,0.0,0.0,0.0,0.0,0.0,0.0,0.0,2.2256,2.04,1.9475,1.9515,1.9069,1.8988,0.0,0.0,0.0,0.0,0.0,0.0,0.0,0.0,0.0,0.0,0.0,0.0,0.0,0.0,0.0,0.0,0.0,0.0,0.0,0.0,0.0,0.0,0.0,0.0,0.0,0.0,0.0,0.0,0.0,0.0,0.0,0.0,0.0,0.0,0.0,0.0,0.0,0.0,0.0,0.0,0.0,0.0,0.0,0.0,0.0,0.0,0.0,0.0,0.0,0.0,0.0,0.0,0.0,0.0,0.0,0.0,0.0,0.0,0.0,0.0,0.0,0.0,0.0,0.0,0.0,0.0,0.0,0.0,0.0,0.0,0.0,0.0,0.0,0.0,0.0,0.0,0.0,0.0,0.0,0.0,0.0,0.0,0.0,0.0,0.0,0.0,0.0,0.0,0.0,0.0,0.0,0.0,0.0,0.0,0.0,0.0,0.0,0.0,0.0,0.0,0.0,0.0,0.0,0.0,0.0,0.0,0.0,0.0,0.0,2.4236,2.3579,2.2466,2.0964,2.117,2.0991,0.0,0.0,0.0,0.0,0.0,0.0,0.0,0.0,0.0,0.0,0.0,0.0,0.0,0.0,0.0,0.0,0.0,0.0,0.0,0.0,0.0,0.0,0.0,0.0,0.0,0.0,0.0,0.0,0.0,0.0,0.0,0.0,0.0,0.0,0.0,0.0,0.0,0.0,0.0,0.0,0.0,0.0,0.0,0.0,0.0,0.0,0.0,0.0,0.0,0.0,0.0,0.0,0.0,0.0,0.0,0.0,0.0,0.0,0.0,0.0,0.0,0.0,0.0,0.0,0.0,0.0,0.0,0.0,0.0,0.0,0.0,0.0,0.0,0.0,0.0,0.0,0.0,0.0,0.0,0.0,0.0,0.0,0.0,0.0,0.0,0.0,0.0,0.0,0.0,0.0,0.0,0.0,0.0,0.0,0.0,0.0,0.0,0.0,0.0,0.0,0.0,0.0,0.0,0.0,0.0,0.0,0.0,0.0,2.5871,2.5599,2.5723,2.4995,2.3304,2.2867,2.2364,0.0,0.0,0.0,0.0,0.0,0.0,0.0,0.0,0.0,0.0,0.0,0.0,0.0,0.0,0.0,0.0,0.0,0.0,0.0,0.0,0.0,0.0,0.0,0.0,0.0,0.0,0.0,0.0,0.0,0.0,0.0,0.0,0.0,0.0,0.0,0.0,0.0,0.0,0.0,0.0,0.0,0.0,0.0,0.0,0.0,0.0,0.0,0.0,0.0,0.0,0.0,0.0,0.0,0.0,0.0,0.0,0.0,0.0,0.0,0.0,0.0,0.0,0.0,0.0,0.0,0.0,0.0,0.0,0.0,0.0,0.0,0.0,0.0,0.0,0.0,0.0,0.0,0.0,0.0,0.0,0.0,0.0,0.0,0.0,0.0,0.0,0.0,0.0,0.0,0.0,0.0,0.0,0.0,0.0,0.0,0.0,0.0,0.0,0.0,0.0,0.0,0.0,0.0,0.0,0.0,0.0,0.0,0.0,2.7005,2.6657,2.7188,2.7025,2.6141,2.4328,2.3348,0.0,0.0,0.0,0.0,0.0,0.0,0.0,0.0,0.0,0.0,0.0,0.0,0.0,0.0,0.0,0.0,0.0,0.0,0.0,0.0,0.0,0.0,0.0,0.0,0.0,0.0,0.0,0.0,0.0,0.0,0.0,0.0,0.0,0.0,0.0,0.0,0.0,0.0,0.0,0.0,0.0,0.0,0.0,0.0,0.0,0.0,0.0,0.0,0.0,0.0,0.0,0.0,0.0,0.0,0.0,0.0,0.0,0.0,0.0,0.0,0.0,0.0,0.0,0.0,0.0,0.0,0.0,0.0,0.0,0.0,0.0,0.0,0.0,0.0,0.0,0.0,0.0,0.0,0.0,0.0,0.0,0.0,0.0,0.0,0.0,0.0,0.0,0.0,0.0,0.0,0.0,0.0,0.0,0.0,0.0,0.0,0.0,0.0,0.0,0.0,0.0,0.0,0.0,0.0,0.0,0.0,0.0,0.0,2.8338,2.8362,2.8487,2.845,2.8251,2.6166,2.4742,0.0,0.0,0.0,0.0,0.0,0.0,0.0,0.0,0.0,0.0,0.0,0.0,0.0,0.0,0.0,0.0,0.0,0.0,0.0,0.0,0.0,0.0,0.0,0.0,0.0,0.0,0.0,0.0,0.0,0.0,0.0,0.0,0.0,0.0,0.0,0.0,0.0,0.0,0.0,0.0,0.0,0.0,0.0,0.0,0.0,0.0,0.0,0.0,2.5695,0.0,0.0,0.0,0.0,0.0,0.0,0.0,0.0,0.0,0.0,0.0,0.0,0.0,0.0,0.0,0.0,0.0,0.0,0.0,0.0,0.0,0.0,0.0,0.0,0.0,0.0,0.0,0.0,0.0,0.0,0.0,0.0,0.0,0.0,0.0,0.0,0.0,0.0,0.0,0.0,0.0,0.0,0.0,0.0,0.0,0.0,0.0,0.0,0.0,0.0,0.0,0.0,0.0,0.0,0.0,0.0,0.0,0.0,0.0,2.9051,2.9315,2.9038,2.8888,2.885,2.7408,2.6211,0.0,0.0,0.0,0.0,0.0,0.0,0.0,0.0,0.0,0.0,0.0,0.0,0.0,0.0,0.0,0.0,0.0,0.0,0.0,0.0,0.0,0.0,0.0,0.0,0.0,0.0,0.0,0.0,0.0,0.0,0.0,0.0,0.0,0.0,0.0,0.0,0.0,0.0,0.0,0.0,0.0,0.0,0.0,0.0,0.0,0.0,0.0,0.0,0.0,0.0,0.0,0.0,0.0,0.0,0.0,0.0,0.0,0.0,0.0,0.0,0.0,0.0,0.0,0.0,0.0,0.0,0.0,0.0,0.0,0.0,0.0,0.0,0.0,0.0,0.0,0.0,0.0,0.0,0.0,0.0,0.0,0.0,0.0,0.0,0.0,0.0,0.0,0.0,0.0,0.0,0.0,0.0,0.0,0.0,0.0,0.0,0.0,0.0,0.0,0.0,0.0,0.0,0.0,0.0,0.0,0.0,0.0,2.9401,2.9555,2.9906,2.9327,2.9038,2.9026,2.8325,2.7557,2.6602,0.0,0.0,0.0,0.0,0.0,0.0,0.0,0.0,0.0,0.0,0.0,0.0,0.0,0.0,0.0,0.0,0.0,0.0,0.0,0.0,0.0,0.0,0.0,0.0,0.0,0.0,0.0,0.0,0.0,0.0,0.0,0.0,0.0,0.0,0.0,0.0,0.0,0.0,2.7413,2.7999,0.0,0.0,0.0,0.0,0.0,0.0,0.0,0.0,2.8661,0.0,0.0,0.0,0.0,0.0,0.0,0.0,0.0,0.0,0.0,0.0,0.0,0.0,0.0,0.0,0.0,0.0,0.0,0.0,0.0,0.0,0.0,0.0,0.0,0.0,0.0,0.0,0.0,0.0,0.0,0.0,0.0,0.0,0.0,0.0,0.0,0.0,0.0,0.0,0.0,0.0,0.0,0.0,0.0,0.0,0.0,0.0,0.0,0.0,0.0,0.0,0.0,0.0,0.0,0.0,0.0,3.0603,3.0328,3.0279,3.0444,2.9942,2.9654,2.9628,2.9063,2.8375,2.7594,0.0,0.0,0.0,0.0,0.0,0.0,0.0,0.0,0.0,0.0,0.0,0.0,0.0,0.0,0.0,0.0,0.0,0.0,0.0,0.0,0.0,0.0,0.0,0.0,0.0,0.0,0.0,0.0,0.0,0.0,0.0,0.0,0.0,0.0,0.0,0.0,0.0,0.0,0.0,2.9468,2.9581,0.0,0.0,0.0,0.0,0.0,0.0,0.0,0.0,2.9672,0.0,0.0,0.0,0.0,0.0,0.0,0.0,0.0,0.0,0.0,0.0,0.0,0.0,0.0,0.0,0.0,0.0,0.0,0.0,0.0,0.0,0.0,0.0,0.0,0.0,0.0,0.0,0.0,0.0,0.0,0.0,0.0,0.0,0.0,0.0,0.0,0.0,0.0,0.0,0.0,0.0,0.0,0.0,0.0,0.0,0.0,0.0,0.0,0.0,0.0,0.0,0.0,0.0,0.0,0.0,3.153,3.1794,3.1617,3.1037,3.0758,3.062,3.0608,3.0093,2.9464,0.0,0.0,0.0,0.0,0.0,0.0,0.0,0.0,0.0,0.0,0.0,0.0,0.0,0.0,0.0,0.0,0.0,0.0,0.0,0.0,0.0,0.0,0.0,0.0,0.0,0.0,0.0,0.0,0.0,0.0,0.0,0.0,0.0,0.0,0.0,0.0,0.0,0.0,0.0,0.0,3.1581,3.1982,3.3152,0.0,0.0,0.0,0.0,0.0,0.0,3.1793,3.1247,0.0,0.0,0.0,0.0,0.0,0.0,0.0,0.0,0.0,0.0,0.0,0.0,0.0,0.0,0.0,0.0,0.0,0.0,0.0,0.0,0.0,0.0,0.0,0.0,0.0,0.0,0.0,0.0,0.0,0.0,0.0,0.0,0.0,0.0,0.0,0.0,0.0,0.0,0.0,0.0,0.0,0.0,0.0,0.0,0.0,0.0,0.0,0.0,0.0,0.0,0.0,0.0,0.0,0.0,0.0,3.2733,3.3137,3.2883,3.1932,3.1559,3.1386,3.1373,3.0924,3.0344,0.0,0.0,0.0,0.0,0.0,0.0,0.0,0.0,0.0,0.0,0.0,0.0,0.0,0.0,0.0,0.0,0.0,0.0,0.0,0.0,0.0,0.0,0.0,0.0,0.0,0.0,0.0,0.0,0.0,0.0,0.0,0.0,0.0,0.0,0.0,0.0,0.0,0.0,0.0,0.0,0.0,3.4579,3.5923,3.5486,0.0,0.0,0.0,0.0,3.4593,3.3907,0.0,0.0,0.0,0.0,0.0,0.0,0.0,0.0,0.0,0.0,0.0,0.0,0.0,0.0,0.0,0.0,0.0,0.0,0.0,0.0,0.0,0.0,0.0,0.0,0.0,0.0,0.0,0.0,0.0,0.0,0.0,0.0,0.0,0.0,0.0,0.0,0.0,0.0,0.0,0.0,0.0,0.0,0.0,0.0,0.0,0.0,0.0,0.0,0.0,0.0,0.0,0.0,0.0,0.0,0.0,0.0,3.4618,3.3925,3.3565,3.3461,3.2143,3.1386,3.1414,3.1032,3.0607,0.0,0.0,0.0,0.0,0.0,0.0,0.0,0.0,0.0,0.0,0.0,0.0,0.0,0.0,0.0,0.0,0.0,0.0,0.0,0.0,0.0,0.0,0.0,0.0,0.0,0.0,0.0,0.0,0.0,0.0,0.0,0.0,0.0,0.0,0.0,0.0,0.0,0.0,0.0,0.0,0.0,3.6555,3.8133,3.7989,3.7661,0.0,0.0,3.7331,3.6455,3.6961,0.0,0.0,0.0,0.0,0.0,0.0,0.0,0.0,0.0,0.0,0.0,0.0,0.0,0.0,0.0,0.0,0.0,0.0,0.0,0.0,0.0,0.0,0.0,0.0,0.0,0.0,0.0,0.0,0.0,0.0,0.0,0.0,0.0,0.0,0.0,0.0,0.0,0.0,0.0,0.0,0.0,0.0,0.0,0.0,0.0,0.0,0.0,0.0,0.0,0.0,0.0,0.0,0.0,0.0,0.0,3.5769,3.5376,3.578,3.5745,3.5127,3.3936,3.3546,3.4113,3.2539,3.1823,0.0,0.0,0.0,0.0,0.0,0.0,0.0,0.0,0.0,0.0,0.0,0.0,0.0,0.0,0.0,0.0,0.0,0.0,0.0,0.0,0.0,0.0,0.0,0.0,0.0,0.0,0.0,0.0,0.0,0.0,0.0,0.0,0.0,0.0,0.0,0.0,0.0,0.0,0.0,0.0,0.0,0.0,3.955,3.9493,0.0,0.0,0.0,3.9072,3.8387,0.0,0.0,0.0,0.0,0.0,0.0,0.0,0.0,0.0,0.0,0.0,0.0,0.0,0.0,0.0,0.0,0.0,0.0,0.0,0.0,0.0,0.0,0.0,0.0,0.0,0.0,0.0,0.0,0.0,0.0,0.0,0.0,0.0,0.0,0.0,0.0,0.0,0.0,0.0,0.0,0.0,0.0,0.0,0.0,0.0,0.0,0.0,0.0,0.0,0.0,0.0,0.0,0.0,0.0,0.0,0.0,0.0,3.6057,3.7195,3.742,3.6604,3.5588,3.544,3.6144,3.407,0.0,0.0,0.0,0.0,0.0,0.0,0.0,0.0,0.0,0.0,0.0,0.0,0.0,0.0,0.0,0.0,0.0,0.0,0.0,0.0,0.0,0.0,0.0,0.0,0.0,0.0,0.0,3.1355,0.0,0.0,0.0,0.0,0.0,0.0,0.0,0.0,0.0,0.0,0.0,0.0,0.0,0.0,3.9562,4.1302,4.1464,4.1461,0.0,0.0,4.1348,4.0646,4.0956,4.0863,0.0,0.0,0.0,0.0,0.0,0.0,0.0,0.0,0.0,0.0,0.0,0.0,0.0,0.0,0.0,0.0,0.0,0.0,0.0,0.0,0.0,0.0,0.0,0.0,0.0,0.0,0.0,0.0,0.0,0.0,0.0,0.0,0.0,0.0,0.0,0.0,0.0,0.0,0.0,0.0,0.0,0.0,0.0,0.0,0.0,0.0,0.0,0.0,0.0,0.0,0.0,0.0,0.0,0.0,3.7159,3.7084,3.7542,3.7776,3.7663,3.6657,3.6132,3.617,3.5142,3.4495,0.0,0.0,0.0,0.0,0.0,0.0,0.0,0.0,0.0,0.0,0.0,0.0,0.0,0.0,0.0,0.0,0.0,0.0,0.0,0.0,0.0,0.0,0.0,0.0,0.0,0.0,0.0,0.0,0.0,0.0,0.0,0.0,0.0,0.0,0.0,0.0,0.0,0.0,0.0,0.0,0.0,4.2491,4.3619,4.4639,4.5095,0.0,4.4929,4.4885,4.3584,4.4276,4.4109,4.1613,0.0,0.0,0.0,0.0,0.0,0.0,0.0,0.0,0.0,0.0,0.0,0.0,0.0,0.0,0.0,0.0,0.0,0.0,0.0,0.0,0.0,0.0,0.0,0.0,0.0,0.0,0.0,0.0,3.1861,0.0,0.0,0.0,0.0,0.0,0.0,0.0,0.0,0.0,0.0,0.0,0.0,0.0,0.0,0.0,0.0,0.0,0.0,0.0,0.0,0.0,0.0,0.0,0.0,3.7537,3.7639,3.8385,3.8782,3.8745,3.7738,3.7496,3.8167,3.6185,3.5289,0.0,0.0,0.0,0.0,0.0,0.0,0.0,0.0,0.0,0.0,0.0,0.0,0.0,0.0,0.0,0.0,0.0,0.0,0.0,0.0,0.0,0.0,0.0,0.0,0.0,0.0,0.0,0.0,3.7816,3.837,3.7851,0.0,0.0,0.0,0.0,0.0,0.0,0.0,0.0,0.0,0.0,4.4565,4.6299,4.6997,0.0,0.0,4.7512,4.7536,4.6243,4.672,4.6591,4.473,4.3708,0.0,0.0,0.0,0.0,0.0,0.0,0.0,0.0,0.0,0.0,0.0,0.0,0.0,0.0,0.0,0.0,0.0,0.0,0.0,0.0,0.0,0.0,0.0,0.0,0.0,0.0,3.3725,3.3859,0.0,0.0,0.0,0.0,0.0,0.0,0.0,0.0,0.0,0.0,0.0,0.0,0.0,0.0,0.0,0.0,0.0,0.0,0.0,0.0,0.0,0.0,0.0,0.0,3.8238,3.8284,3.9304,3.9631,3.9409,3.8671,3.8634,3.9307,3.7142,3.6207,0.0,0.0,0.0,0.0,0.0,0.0,0.0,0.0,0.0,0.0,0.0,0.0,0.0,0.0,0.0,0.0,0.0,0.0,0.0,0.0,0.0,0.0,0.0,0.0,0.0,0.0,0.0,0.0,3.9478,3.9719,3.8808,0.0,0.0,0.0,0.0,0.0,0.0,0.0,0.0,0.0,0.0,4.6571,4.8339,4.8914,4.9132,4.9005,4.9475,4.9447,4.8453,4.8552,4.8412,4.7308,0.0,0.0,0.0,0.0,0.0,0.0,0.0,0.0,0.0,0.0,0.0,0.0,0.0,0.0,0.0,0.0,0.0,0.0,0.0,0.0,0.0,0.0,0.0,0.0,0.0,0.0,0.0,3.6064,0.0,0.0,3.529,0.0,0.0,0.0,0.0,0.0,0.0,0.0,0.0,0.0,0.0,0.0,0.0,0.0,0.0,0.0,0.0,0.0,0.0,0.0,0.0,0.0,0.0,3.9389,3.921,4.018,4.0274,3.9481,3.9388,3.9373,3.9394,3.8088,3.7316,3.7168,0.0,0.0,0.0,0.0,0.0,0.0,0.0,0.0,0.0,0.0,0.0,0.0,0.0,0.0,0.0,0.0,0.0,0.0,0.0,0.0,0.0,0.0,0.0,0.0,0.0,0.0,4.0272,4.0646,4.0469,0.0,0.0,0.0,0.0,0.0,0.0,0.0,0.0,0.0,4.552,4.7176,4.8583,4.9581,5.0408,5.0833,5.0486,5.0627,5.0621,5.014,4.9742,4.9379,0.0,0.0,0.0,0.0,0.0,0.0,0.0,0.0,0.0,0.0,0.0,0.0,0.0,0.0,0.0,0.0,0.0,0.0,0.0,0.0,0.0,0.0,0.0,0.0,0.0,0.0,0.0,3.9793,3.9249,0.0,0.0,0.0,0.0,0.0,0.0,0.0,0.0,0.0,0.0,0.0,4.058,4.058,0.0,0.0,0.0,0.0,0.0,0.0,0.0,0.0,0.0,0.0,0.0,0.0,4.0038,4.061,4.1228,4.1412,4.1129,4.0569,4.0274,4.0224,3.9401,3.828,3.6996,0.0,0.0,0.0,0.0,0.0,0.0,0.0,0.0,0.0,0.0,0.0,0.0,0.0,0.0,0.0,0.0,0.0,0.0,0.0,0.0,0.0,0.0,0.0,0.0,0.0,4.045,0.0,0.0,0.0,0.0,0.0,0.0,0.0,0.0,0.0,0.0,4.3368,4.5255,4.7849,4.917,5.0502,5.2129,5.253,5.2776,0.0,0.0,0.0,0.0,0.0,0.0,0.0,0.0,0.0,0.0,0.0,0.0,0.0,0.0,4.5616,4.37,4.3485,4.363,4.3806,0.0,0.0,0.0,0.0,0.0,0.0,0.0,0.0,0.0,0.0,0.0,0.0,0.0,0.0,4.2774,4.2122,4.2157,0.0,0.0,0.0,0.0,0.0,0.0,0.0,0.0,4.2111,4.2369,4.249,4.2752,4.268,4.2351,4.2066,4.0701,0.0,0.0,0.0,0.0,0.0,0.0,0.0,0.0,4.1265,4.1826,4.2215,4.23,4.1997,4.1445,4.1147,4.1131,4.0237,3.9074,3.7587,3.6678,3.553,0.0,0.0,0.0,0.0,0.0,0.0,0.0,0.0,0.0,0.0,0.0,0.0,0.0,0.0,0.0,0.0,0.0,0.0,0.0,0.0,0.0,0.0,0.0,4.2318,0.0,0.0,0.0,0.0,0.0,0.0,0.0,0.0,0.0,4.4874,4.5864,4.7663,5.0473,5.1186,5.2046,5.3645,0.0,0.0,0.0,0.0,0.0,0.0,0.0,5.2927,5.2818,5.2152,5.172,5.1934,5.1843,5.1577,5.0948,0.0,0.0,4.7075,4.6754,4.7039,4.7094,4.7146,4.713,4.713,4.7232,4.7335,0.0,0.0,0.0,0.0,4.3134,0.0,0.0,0.0,4.459,4.4672,0.0,4.4772,0.0,0.0,0.0,0.0,4.2691,4.3177,0.0,0.0,4.5199,4.5646,4.5458,4.6071,4.5892,4.4981,4.4172,4.3313,4.2372,4.0861,3.967,0.0,0.0,0.0,0.0,0.0,4.2966,4.2876,4.3169,4.2939,4.2141,4.2062,4.2029,4.1997,4.0716,3.9693,3.898,3.79,3.6914,3.6059,3.5079,0.0,0.0,0.0,0.0,0.0,0.0,0.0,0.0,0.0,0.0,0.0,0.0,0.0,0.0,0.0,0.0,0.0,0.0,0.0,0.0,4.2915,0.0,0.0,0.0,0.0,0.0,0.0,0.0,0.0,0.0,4.7062,4.8054,4.9085,5.072,5.3177,0.0,0.0,0.0,0.0,5.3805,5.4703,5.4532,5.4559,5.5316,5.508,5.4885,5.5245,0.0,0.0,5.3054,5.3223,5.3241,5.2525,5.3209,5.3026,4.9976,4.9442,4.9513,4.967,4.9705,4.9705,4.9721,4.9739,4.9756,4.795,0.0,0.0,0.0,0.0,4.5776,4.6633,4.7176,4.7852,4.785,4.7336,4.6837,0.0,0.0,0.0,0.0,0.0,0.0,4.7021,4.723,4.7605,4.7804,4.7864,4.7498,4.7167,4.6878,4.6031,4.5225,4.4488,4.4004,4.2901,4.1335,0.0,0.0,0.0,0.0,4.3608,4.3881,4.4093,4.4093,4.3856,4.3246,4.2925,4.2909,4.204,4.1226,4.056,3.9728,3.8597,3.7118,3.6125,0.0,0.0,0.0,0.0,0.0,0.0,0.0,0.0,0.0,0.0,0.0,0.0,0.0,0.0,0.0,0.0,0.0,0.0,0.0,4.1653,4.3482,4.4691,0.0,0.0,0.0,0.0,0.0,0.0,0.0,0.0,0.0,5.1704,5.1211,5.1555,0.0,0.0,5.4117,5.4686,5.4301,5.4407,5.5621,5.4939,0.0,5.6006,5.5504,5.4912,5.4658,5.4511,5.4361,5.4158,5.4627,5.4809,5.4069,5.4224,5.3937,5.2671,5.2301,5.2284,5.2369,5.2386,5.2386,5.2386,5.2386,5.2369,5.0393,4.7919,4.7652,4.7423,4.7358,4.8349,4.9027,4.95,5.035,5.0238,4.9447,4.9376,4.8615,4.7363,4.7343,0.0,0.0,0.0,4.8756,4.8749,4.9025,4.9199,4.9246,4.9061,4.8767,4.8439,4.7648,4.6873,4.6128,4.5993,4.5347,4.4208,0.0,4.3957,4.4283,4.4611,4.4776,4.4801,4.4889,4.4841,4.4615,4.4093,4.3814,4.3798,4.3065,4.2496,4.2091,4.1356,4.0349,3.9034,3.802,3.7317,0.0,0.0,0.0,0.0,0.0,0.0,0.0,0.0,0.0,0.0,0.0,3.8557,3.9538,0.0,0.0,0.0,4.1145,4.157,4.2807,4.4647,0.0,0.0,0.0,0.0,0.0,0.0,0.0,4.9405,5.0629,5.2147,5.3838,5.3572,5.3782,5.5339,5.5251,5.5186,5.5536,0.0,5.5195,5.6383,5.6146,5.6227,5.7362,5.7106,5.642,5.5489,5.5172,5.492,5.4664,5.4958,5.5074,5.4718,5.4583,5.4448,5.4025,5.3721,5.3518,5.3518,5.3518,5.3518,5.3518,5.3518,5.3518,5.2028,5.1419,5.0811,5.066,5.0825,5.0875,5.1138,5.1507,5.2244,5.2067,5.1274,5.1984,5.1421,4.9973,4.9806,0.0,4.9512,4.9584,4.9502,4.9268,4.9948,5.0187,5.0113,5.0706,5.0573,4.9774,4.9026,4.8302,4.7575,4.7178,4.7066,4.7156,4.6083,4.5511,4.5478,4.61,4.6161,4.5571,4.5511,4.5178,4.4598,4.4598,4.4598,4.457,4.3876,4.3443,4.3375,4.2743,4.2049,4.1305,4.0347,3.947,3.8798,0.0,0.0,0.0,0.0,0.0,0.0,0.0,0.0,0.0,0.0,0.0,0.0,0.0,0.0,0.0,4.365,0.0,4.4062,4.6164,0.0,0.0,0.0,4.9311,4.943,4.9643,5.0083,5.0932,0.0,0.0,5.4825,5.5785,5.6616,5.7352,5.6791,5.6358,5.651,5.6085,5.6092,5.6961,5.7588,5.8225,5.8698,5.8782,5.8187,5.6952,5.6221,5.548,5.4981,5.4775,5.4737,5.4873,5.4753,5.4651,5.46,5.4042,5.3568,5.3534,5.3518,5.3518,5.3518,5.3518,5.3518,5.344,5.3759,5.3633,5.298,5.2058,5.2595,5.3199,5.3811,5.3993,5.3943,5.3669,5.2731,5.1688,5.0694,5.1173,5.1375,5.139,5.201,5.2222,5.2178,5.236,5.2426,5.2392,5.1935,5.1632,5.1353,5.0021,4.9247,4.9045,4.8326,4.7975,4.7995,4.7735,4.728,4.6673,4.6646,4.6466,4.6192,4.563,4.5098,4.4626,4.4598,4.4598,4.4598,4.4401,4.4028,4.3453,4.3223,4.2811,4.2049,4.1125,4.0964,4.1698,4.0095,0.0,0.0,0.0,0.0,0.0,0.0,0.0,0.0,0.0,4.2258,4.3842,0.0,4.5165,0.0,4.5474,4.5667,4.6185,4.7128,0.0,0.0,5.0135,5.0685,5.0818,5.1525,5.2073,5.2168,5.2589,5.3492,5.5103,5.5492,5.62,5.7596,5.7419,5.7051,5.6889,5.6564,5.6543,5.7173,5.7242,5.7411,5.8119,5.7789,5.7417,5.6951,5.6241,5.5824,5.6306,5.5827,5.5619,5.6153,5.5843,5.5295,5.4735,5.4448,5.4126,5.3653,5.3518,5.3518,5.3518,5.3518,5.3518,5.3946,5.4589,5.4589,5.451,5.4436,5.4472,5.4717,5.5125,5.5472,5.5428,5.5008,5.3785,5.2947,5.2472,5.2508,5.2527,5.2564,5.3004,5.3185,5.3185,5.3185,5.3185,5.3167,5.2747,5.2362,5.1958,5.0729,4.9959,4.9574,4.8728,4.8324,4.8324,4.8691,4.866,4.8212,4.7684,4.719,4.6774,4.6446,4.6195,4.5996,4.5952,4.5735,4.5213,4.5169,4.49,4.4336,4.4292,4.4124,4.3776,4.2997,4.2899,4.3605,4.231,4.1719,0.0,0.0,0.0,0.0,0.0,0.0,0.0,0.0,0.0,0.0,0.0,4.6789,4.7098,4.6994,4.7211,4.7897,4.8889,4.9837,5.0686,5.146,5.1995,5.2142,5.2634,5.2955,5.289,5.331,5.4092,5.532,5.5797,5.6516,5.7831,5.7792,5.7607,5.7461,5.727,5.729,5.7585,5.7762,5.7998,5.8475,5.8196,5.7809,5.7441,5.7048,5.692,5.7358,5.7105,5.6951,5.7268,5.6742,5.6133,5.5652,5.4972,5.4448,5.4093,5.3721,5.3534,5.3518,5.3518,5.3518,5.4139,5.4878,5.4909,5.5713,5.6989,5.6295,5.6004,5.6041,5.6747,5.6588,5.5781,5.4925,5.4491,5.4344,5.3573,5.3185,5.3185,5.3185,5.3185,5.3185,5.3185,5.3185,5.3185,5.3185,5.2839,5.2123,5.1353,5.0582,4.9904,4.9022,4.8636,4.8655,4.937,4.9757,4.9721,4.9003,4.8192,4.7377,4.7541,4.7658,4.77,4.77,4.7194,4.6167,4.6003,4.581,4.5459,4.5477,4.5529,4.5623,4.5095,4.4865,4.508,4.4454,4.4013,0.0,4.3869,0.0,0.0,0.0,0.0,0.0,0.0,0.0,0.0,4.7982,4.8342,4.8362,4.8478,4.8809,4.9478,5.0827,5.1725,5.1959,5.2621,5.3082,5.3185,5.3185,5.3185,5.3185,5.3812,5.4583,5.5464,5.6216,5.695,5.7795,5.7978,5.7932,5.7973,5.7932,5.7927,5.7978,5.8584,5.8785,5.8882,5.8972,5.8692,5.8124,5.8087,5.826,5.8404,5.8472,5.8503,5.8444,5.7833,5.715,5.6999,5.5909,5.5026,5.4652,5.4194,5.3837,5.3568,5.3518,5.3518,5.5208,5.6438,5.6465,5.6971,5.7774,5.7637,5.757,5.757,5.7726,5.7334,5.653,5.5731,5.4987,5.4363,5.3552,5.3185,5.3185,5.3185,5.3185,5.3185,5.3185,5.3185,5.3185,5.3185,5.3133,5.2931,5.216,5.1683,5.1536,5.0729,5.0343,5.0343,5.049,5.0563,5.0563,0.0,0.0,0.0,4.8326,4.8153,4.7724,4.77,4.7557,4.7185,4.6555,0.0,4.5817,4.5893,4.5918,4.585,4.5729,0.0,0.0,0.0,0.0,0.0,0.0,0.0,0.0,0.0,0.0,0.0,4.9264,4.9159,4.8717,4.964,5.0265,5.0265,5.0303,5.0633,5.1385,5.1713,5.221,5.2834,5.3072,5.3164,5.3185,5.3185,5.3185,5.3185,5.3332,5.3977,5.5354,5.5761,5.6381,5.774,5.7978,5.7978,5.7978,5.7978,5.7978,5.8015,5.818,5.8253,5.8217,5.8253,5.8253,5.8084,5.8587,5.92,5.9731,5.9957,6.0256,6.0644,5.9667,5.847,5.7908,5.7546,5.6709,5.4975,5.4986,5.4989,5.377,5.3518,5.3518,5.5808,5.6869,5.6894,5.7327,0.0,5.7978,5.7978,5.7978,5.7978,5.7758,5.7317,5.6106,5.5372,5.4913,5.3757,5.3185,5.3185,5.3185,5.3185,5.3185,5.3185,5.3185,5.3185,5.3185,5.3185,5.3148,5.238,5.2016,5.194,5.1187,5.082,5.082,5.1187,5.1389,5.1389,5.1389,5.1007,5.0195,5.0177,5.0069,4.983,4.9812,4.9298,4.8299,4.7841,0.0,0.0,0.0,0.0,0.0,0.0,0.0,0.0,0.0,0.0,4.7098,4.6839,4.7108,4.8108,4.8453,4.9282,5.0794,5.145,5.1363,5.049,5.1024,5.1471,5.1675,5.1674,5.1947,5.2532,5.2582,5.2766,5.3151,5.3185,5.3185,5.3185,5.3185,5.3185,5.3185,5.3185,5.3812,5.5372,5.5614,5.6271,5.7703,5.7978,5.7978,5.7978,5.7978,5.7978,5.7978,5.7978,5.7978,5.7978,5.7978,5.7997,5.8107,5.9006,5.9869,6.0346,6.1039,6.164,6.1587,6.0873,6.0079,5.9341,5.8892,5.8058,5.6258,5.5753,5.5288,5.3888,5.3518,5.3518,5.6367,5.7065,5.7109,5.7449,5.7978,5.7978,5.7978,5.7978,5.7978,0.0,0.0,5.6235,5.5541,5.5262,5.3867,5.3185,5.3185,5.3185,5.3185,5.3185,5.3185,5.3185,5.3185,5.3185,5.3185,5.3148,5.2527,5.2215,5.2179,5.1408,5.1004,5.1059,5.1536,5.1793,5.1793,5.1793,5.1775,5.1793,5.182,5.182,5.1793,5.1775,5.0991,4.931,4.9,4.84,4.7428,4.741,4.7454,4.7536,4.766,4.7809,4.7977,4.8094,4.8135,4.8137,4.866,4.933,5.0101,5.0642,5.138,5.2376,5.3177,5.3202,5.2205,5.2311,5.2532,5.2788,5.2808,5.292,5.3157,5.3185,5.3185,5.3185,5.3185,5.3185,5.3185,5.3185,5.3185,5.3203,5.3332,5.3959,5.5354,5.5739,5.6345,5.7611,5.7978,5.7978,5.7978,5.7978,5.7978,5.7978,5.7978,5.7978,5.7978,5.7978,5.8052,5.8309,5.9465,6.0401,6.0786,6.1832,6.2431,6.1978,6.176,6.1214,6.0547,6.0036,5.8961,5.7097,5.6478,5.5701,5.4158,5.3602,5.3518,5.7166,5.7862,5.7839,5.7909,5.7978,5.7978,5.7978,5.7978,5.7978,5.7611,5.6914,5.5996,5.5207,5.4528,5.3589,5.3185,5.3185,5.3185,5.3185,5.3185,5.3185,5.3185,5.3185,5.3185,5.3185,5.3185,5.3096,5.3041,5.2949,5.2197,5.183,5.1738,5.1242,5.0986,5.0967,5.0967,5.0967,5.0986,5.1626,5.1646,5.0986,5.0967,5.0796,5.0362,4.9025,4.8158,4.7731,4.7832,4.7852,4.777,4.7872,4.8173,4.8621,4.8674,4.8863,4.9287,5.003,5.0675,5.1076,5.1871,5.2856,5.4043,5.489,5.4695,5.3184,5.3711,5.4004,5.3683,5.3609,5.3514,5.3233,5.3185,5.3185,5.3185,5.3185,5.3185,5.3185,5.3185,5.3185,5.3203,5.3812,5.4528,5.5427,5.6143,5.6895,5.774,5.7978,5.7978,5.7978,5.7978,5.7978,5.7978,5.7978,5.7978,5.7978,5.7978,5.8253,5.8927,5.9758,6.0621,6.1245,6.2144,6.2693,6.2636,6.2076,6.1397,6.0698,6.0932,5.9679,5.7087,5.6904,5.6825,5.4855,5.4025,5.3602,5.7703,5.7978,5.7978,5.7978,5.7978,5.7978,5.7978,5.7978,5.7978,5.7538,5.6767,5.5941,5.5133,5.4363,5.3573,5.3185,5.3185,5.3185,5.3185,5.3185,5.3185,5.3185,5.3148,5.2766,5.2784,5.313,5.2307,5.2142,5.2435,5.1738,5.1334,5.1334,5.0986,5.06,5.0196,5.0582,5.0362,4.9499,5.071,5.1169,5.082,5.082,5.058,5.0081,4.9311,4.8686,4.8092,4.8151,4.8231,4.8403,4.8458,4.8691,4.9139,4.9171,4.928,4.9527,5.051,5.1344,5.1973,5.3436,5.4534,5.5115,5.5491,5.5393,5.4626,5.4912,5.4876,5.4253,5.417,5.3906,5.3272,5.3185,5.3185,5.3185,5.3185,5.3185,5.3185,5.3185,5.3185,5.3259,5.3922,5.4693,5.5504,5.629,5.7116,5.7813,5.7978,5.7978,5.7978,5.7978,5.7978,5.7978,5.7978,5.7978,5.7978,5.7978,5.8327,5.9056,5.9869,6.0676,6.1447,6.2273,6.2732,6.278,6.2427,6.217,6.1654,6.1235,5.9977,5.8524,5.6956,5.6397,5.5366,5.4905,5.4448,5.7978,5.7978,5.7978,5.7978,5.7978,5.7978,5.7978,5.7978,5.7813,5.7281,5.651,5.5868,5.5042,5.4106,5.346,5.3185,5.3185,5.3185,5.3185,5.3185,5.3185,5.3115,5.2894,5.227,5.2234,5.2509,5.1389,5.1132,5.1573,5.0912,5.0435,5.027,5.0233,4.9921,4.9353,4.9921,4.9591,4.8471,4.9572,5.0325,5.0527,5.0527,5.0235,4.9647,4.9488,4.9121,4.8495,4.8513,4.871,4.9013,4.9027,4.9218,4.9608,4.965,4.9678,4.9863,5.1002,5.221,5.3255,5.4756,5.5684,5.5684,5.5684,5.5684,5.5703,5.5599,5.5262,5.4628,5.439,5.3996,5.3339,5.3185,5.3185,5.3185,5.3185,5.3185,5.3185,5.3185,5.3295,5.35,5.4179,5.4987,5.5776,5.6583,5.7317,5.785,5.7978,5.7978,5.7978,5.7978,5.7978,5.7978,5.7978,5.7978,5.7978,5.7978,5.8345,5.9056,5.9869,6.0658,6.1447,6.2273,6.275,6.278,6.2592,6.2146,6.1945,6.1254,5.9928,5.8386,5.7213,5.6353,5.5774,5.5818,5.5412,5.7978,5.7978,5.7978,5.7978,5.7978,5.7978,5.7978,5.7868,5.7244,5.6455,5.5702,5.5633,5.473,5.3445,5.3222,5.3185,5.3185,5.3185,5.3185,5.3148,5.3185,5.2821,5.2142,5.1995,5.1646,5.1132,5.0839,5.0729,5.0857,5.0086,4.9315,4.8618,4.8526,4.8563,4.8471,4.8526,4.8489,4.8324,4.8453,4.8912,4.9647,4.9702,4.9684,4.9592,4.9194,4.8939,4.8864,4.9221,4.9401,4.9445,4.9445,4.9617,4.9987,5.0056,5.0214,5.0602,5.2083,5.3699,5.519,5.5596,5.5684,5.5684,5.5684,5.5684,5.5673,5.5375,5.4979,5.455,5.4137,5.3683,5.3272,5.3185,5.3185,5.3185,5.3185,5.3185,5.3185,5.3185,5.346,5.4216,5.4858,5.5757,5.6418,5.7244,5.7831,5.7941,5.7978,5.7978,5.7978,5.7978,5.7978,5.7978,5.7978,5.7978,5.7978,5.7978,5.8345,5.9074,5.9826,6.0566,6.1318,6.2089,6.2768,6.2278,6.2026,6.1199,6.044,5.9849,5.9319,5.7713,5.7099,5.729,5.625,5.6258,5.6055,5.7978,5.7978,5.7978,5.7978,5.7978,5.7978,5.7721,5.7262,5.695,5.6088,5.4968,5.4876,5.4252,5.3203,5.3185,5.3185,5.3185,5.3185,5.2949,5.2527,5.2472,5.205,5.1316,5.0785,5.0618,5.0674,4.9811,4.9609,4.9886,4.9242,4.8655,4.8361,4.8324,4.8324,4.8324,4.8324,4.8324,4.8306,4.855,4.8842,4.9139,4.9194,4.9176,4.9192,4.923,4.9265,4.9265,4.9416,4.9622,4.9827,4.9859,5.0024,5.0432,5.0462,5.0534,5.0779,5.2279,5.3722,5.4914,5.5434,5.5684,5.5684,5.5684,5.5684,5.5662,5.5134,5.4655,5.4503,5.4066,5.3624,5.3272,5.3185,5.3185,5.3185,5.3185,5.3185,5.3185,5.3185,5.335,5.3757,5.4821,5.5702,5.6198,5.7207,5.7905,5.7978,5.7978,5.7978,5.7978,5.7978,5.7978,5.7978,5.7978,5.7978,5.7978,5.7978,5.8364,5.8982,5.9441,5.9955,6.0786,6.1098,6.1374,6.1465,6.0895,6.0278,5.9555,5.858,5.7834,5.6934,5.7158,5.7581,5.6549,5.6934,5.6867,5.7978,5.7978,5.7978,5.7978,5.7978,5.7978,5.7538,5.6804,5.6583,5.5684,5.4436,5.4179,5.3757,5.324,5.3185,5.3185,5.3185,5.3185,5.2766,5.2071,5.2016,5.1463,5.049,4.9884,4.9756,4.9866,4.8912,4.8636,4.9133,4.8636,4.8324,4.8324,4.8324,4.8345,4.844,4.8477,4.8532,4.8639,4.893,4.9078,4.9094,4.9171,4.9187,4.9108,4.946,4.9678,4.9678,4.9773,4.9962,5.023,5.026,5.0399,5.0673,5.0683,5.0808,5.1087,5.2145,5.3337,5.4414,5.503,5.5472,5.5665,5.5684,5.5684,5.5566,5.4966,5.4535,5.4471,5.3997,5.3465,5.3272,5.3185,5.3185,5.3185,5.3185,5.3185,5.3185,5.3185,5.3298,5.361,5.4803,5.5835,5.633,5.7262,5.7978,5.7978,5.7978,5.7978,5.7978,5.7978,5.7978,5.7978,5.7978,5.7978,5.7978,5.7978,5.8364,5.8964,5.9386,5.9936,6.0603,6.0841,6.1098,6.1887,6.0437,5.949,5.9245,5.8264,5.7306,5.774,5.789,5.7751,5.7205,5.7611,5.7594,5.7978,5.7978,5.7978,5.7978,5.7978,5.7941,5.7501,5.6657,5.5978,5.5152,5.4289,5.3628,5.324,5.3185,5.3185,5.3185,5.3185,5.3185,5.2729,5.1977,5.1942,5.1153,4.9721,4.9592,4.9187,4.8673,4.8471,4.8361,4.8416,4.8343,4.8324,4.8306,4.8344,4.8513,4.8812,4.8898,4.9059,4.9326,4.9431,4.9475,4.9518,4.984,4.984,4.9575,4.9872,5.0068,5.0104,5.0432,5.0634,5.0663,5.0653,5.0673,5.0683,5.0683,5.101,5.1692,5.1904,5.2741,5.4164,5.4549,5.4914,5.5568,5.5662,5.5673,5.5588,5.489,5.4452,5.4487,5.372,5.323,5.3206,5.3185,5.3185,5.3185,5.3185,5.3185,5.3185,5.3185,5.3573,5.4216,5.5097,5.6198,5.7574,5.7923,5.7978,5.7978,5.7978,5.7978,5.7978,5.7978,5.7978,5.7978,5.7978,5.7978,5.7978,5.818,5.8492,5.9024,5.9735,6.0474,6.1374,6.2089,6.231,6.208,6.068,5.9692,5.9236,5.8657,5.7945,5.7861,5.7914,5.7729,5.7594,5.7763,5.7763,5.7978,5.7978,5.7978,5.7978,5.7923,5.7464,5.6767,5.5978,5.517,5.4381,5.3683,5.3335,5.3185,5.3185,5.3185,5.3185,5.3185,5.3185,5.2491,5.1353,5.1224,5.0343,4.8893,4.8765,4.8655,4.8361,4.8324,4.8324,4.8324,4.8324,4.8439,4.8657,4.8692,4.8898,4.9218,4.9295,4.9356,4.9504,4.9746,4.9885,4.9911,5.0272,5.041,5.0283,5.038,5.0483,5.0502,5.0624,5.0683,5.0683,5.0683,5.0683,5.0683,5.0683,5.0827,5.1125,5.1625,5.2404,5.353,5.4203,5.4838,5.5577,5.5446,5.5319,5.5186,5.4575,5.4048,5.3942,5.3564,5.3227,5.3185,5.3185,5.3185,5.3185,5.3185,5.3185,5.3185,5.3203,5.3518,5.4381,5.55,5.6822,5.7611,5.7978,5.7978,5.7978,5.7978,5.7978,5.7978,5.7978,5.7978,5.7978,5.7978,5.7978,5.7978,5.851,5.8927,5.9258,5.9771,6.0309,6.1062,6.1318,6.1502,6.1134,6.011,5.9236,5.8583,5.8044,5.7569,5.7976,5.801,5.7881,5.7865,5.7881,5.7881,5.7978,5.7978,5.7978,5.7978,5.7905,5.7152,5.6345,5.5537,5.473,5.3959,5.3277,5.3185,5.3185,5.3185,5.3185,5.3185,5.3185,5.3167,5.2344,5.0894,5.082,4.9921,4.8545,4.8324,4.8324,4.8324,4.8324,4.8324,4.8325,4.8439,4.864,4.888,4.9011,4.9276,4.9617,4.9673,4.9728,4.9911,5.0159,5.0302,5.0336,5.0554,5.0683,5.0683,5.0683,5.0683,5.0683,5.0683,5.0683,5.0683,5.0683,5.0683,5.0683,5.0683,5.0683,5.076,5.1202,5.1806,5.2538,5.341,5.417,5.484,5.4941,5.4909,5.4867,5.4238,5.3869,5.372,5.3424,5.3185,5.3185,5.3185,5.3185,5.3185,5.3185,5.3185,5.3185,5.3185,5.372,5.473,5.5941,5.7042,5.7795,5.7941,5.7978,5.7978,5.7978,5.7978,5.7978,5.7978,5.7978,5.7978,5.7978,5.7978,5.8235,5.8841,5.9465,5.9832,6.0419,6.0713,6.097,6.1025,6.081,6.0256,5.9483,5.8575,5.7873,5.7415,5.7596,5.8089,5.8046,5.7881,5.7881,5.7881,5.7881,5.7978,5.7978,5.7978,5.7905,5.7758,5.6932,5.6253,5.5427,5.4675,5.3867,5.3222,5.3185,5.3185,5.3185,5.3185,5.3185,5.3185,5.3112,5.227,5.0894,5.082,4.9903,4.8342,4.8324,4.8324,4.8324,4.8324,4.8324,4.8325,4.8658,4.888,4.8978,4.9322,4.9706,5.0092,5.0104,5.0283,5.0534,5.0624,5.0663,5.0683,5.0683,5.0683,5.0683,5.0683,5.0683,5.0683,5.0683,5.0683,5.0683,5.0683,5.0683,5.0683,5.0683,5.0683,5.0683,5.0731,5.0945,5.1386,5.2196,5.2861,5.3436,5.4025,5.439,5.4401,5.4049,5.3739,5.3663,5.3424,5.3185,5.3185,5.3185,5.3185,5.3185,5.3185,5.3185,5.3185,5.3259,5.383,5.5262,5.6345,5.7134,5.774,5.7978,5.7978,5.7978,5.7978,5.7978,5.7978,5.7978,5.7978,5.7978,5.7978,5.7978,5.8565,5.9245,5.9869,6.0474,6.1153,6.1667,6.2016,6.212,6.186,6.1359,6.0368,5.9444,5.8631,5.817,5.8099,5.8352,5.8137,5.7918,5.7881,5.7881,5.7881,5.7978,5.7905,5.7391,5.7189,5.6987,5.5739,5.4987,5.4675,5.3922,5.3445,5.3222,5.3185,5.3185,5.3185,5.3185,5.3185,5.313,5.2637,5.1793,5.0949,5.0802,4.9903,4.8581,4.8324,4.8324,4.8324,4.8324,4.8324,4.8383,4.8709,4.9011,4.9341,4.97,5.0104,5.0453,5.0534,5.0604,5.0673,5.0683,5.0683,5.0683,5.0683,5.0683,5.0683,5.0683,5.0683,5.0683,5.0683,5.0683,5.0683,5.0683,5.0683,5.0683,5.0683,5.0683,5.0683,5.0683,5.0879,5.1252,5.1548,5.2159,5.2927,5.3207,5.3487,5.3885,5.3643,5.3422,5.3402,5.3272,5.3185,5.3185,5.3185,5.3185,5.3185,5.3185,5.3203,5.3387,5.4179,5.4968,5.5592,5.6785,5.7666,5.7905,5.7978,5.7978,5.7978,5.7978,5.7978,5.7978,5.7978,5.7978,5.7978,5.7978,5.7997,5.8419,5.9189,6.007,6.075,6.1502,6.2163,6.2603,6.2755,6.2567,6.2049,6.1102,6.0304,5.9476,5.8943,5.8755,5.8388,5.8065,5.7937,5.7918,5.7881,5.7881,5.7978,5.7886,5.7134,5.6804,5.662,5.5078,5.4418,5.4289,5.3555,5.3185,5.3185,5.3185,5.3185,5.3185,5.3185,5.3185,5.3115,5.2362,5.1555,5.0839,5.0435,4.9591,4.8434,4.8324,4.8324,4.8324,4.8324,4.8383,4.8532,4.893,4.9307,4.9733,5.0135,5.0432,5.0673,5.0683,5.0683,5.0683,5.0683,5.0683,5.0683,5.0683,5.0683,5.0683,5.0683,5.0683,5.0683,5.0683,5.0683,5.0683,5.0683,5.0683,5.0683,5.0683,5.0683,5.0673,5.0553,5.0532,5.0659,5.0761,5.1243,5.2083,5.2363,5.2752,5.3341,5.3295,5.3206,5.3185,5.3185,5.3185,5.3185,5.3185,5.3185,5.3185,5.3185,5.3314,5.372,5.4785,5.5684,5.6198,5.7207,5.7831,5.7978,5.7978,5.7978,5.7978,5.7978,5.7978,5.7978,5.7978,5.7978,5.7978,5.7978,5.8033,5.8125,5.9043,6.0217,6.0988,6.1704,6.2273,6.2787,6.278,6.2661,6.2049,6.1218,6.076,6.0005,5.9311,5.8925,5.8459,5.8029,5.7937,5.7881,5.7881,5.7881,5.7978,5.7886,5.7079,5.6675,5.6473,5.495,5.4252,5.4179,5.3534,5.3185,5.3185,5.3185,5.3185,5.3185,5.3185,5.3185,5.302,5.2197,5.1463,5.071,4.9958,4.9022,4.836,4.8324,4.8324,4.8324,4.8363,4.8532,4.8829,4.9311,4.97,5.0056,5.0421,5.0673,5.0683,5.0683,5.0683,5.0683,5.0683,5.0683,5.0683,5.0683,5.0683,5.0683,5.0683,5.0683,5.0683,5.0683,5.0683,5.0683,5.0683,5.0683,5.0683,5.0683,5.0683,5.0673,5.0306,4.9962,4.974,4.9875,5.0355,5.1003,5.1604,5.2307,5.3028,5.323,5.3185,5.3185,5.3185,5.3185,5.3185,5.3185,5.3185,5.3185,5.3185,5.3518,5.4289,5.5078,5.5812,5.6657,5.7464,5.7978,5.7978,5.7978,5.7978,5.7978,5.7978,5.7978,5.7978,5.7978,5.7978,5.7978,5.7997,5.8235,5.84,5.9318,6.0438,6.119,6.1887,6.2438,6.2823,6.278,6.2737,6.2103,6.1604,6.116,6.0549,5.9815,5.9095,5.8564,5.8227,5.801,5.7881,5.7881,5.7881,5.7978,5.7831,5.6492,5.5904,5.5684,5.4197,5.3537,5.35,5.3335,5.3185,5.3185,5.3185,5.3185,5.3185,5.3185,5.3185,5.2892,5.1811,5.1077,5.0582,4.9279,4.86,4.8343,4.8324,4.8306,4.8345,4.8586,4.8777,4.8945,4.9589,4.9974,5.0104,5.0504,5.0683,5.0683,5.0683,5.0683,5.0683,5.0683,5.0683,5.0683,5.0683,5.0683,5.0683,5.0683,5.0683,5.0683,5.0683,5.0683,5.0683,5.0683,5.0683,5.0683,5.0683,5.0683,5.0604,5.0294,4.9892,4.956,4.9353,4.9748,5.068,5.1096,5.172,5.3057,5.3185,5.3185,5.3185,5.3185,5.3185,5.3185,5.3185,5.3185,5.3185,5.324,5.361,5.4381,5.5115,5.5904,5.6712,5.7538,5.7886,5.7978,5.7978,5.7978,5.7978,5.7978,5.7978,5.7978,5.7997,5.7997,5.7997,5.807,5.8419,5.8896,5.9758,6.0621,6.1374,6.2034,6.2603,6.2823,6.278,6.2755,6.2497,6.2121,6.1705,6.0926,6.0166,5.946,5.8564,5.8192,5.7881,5.7881,5.7881,5.7881,5.7978,5.7905,5.662,5.5904,5.5464,5.4252,5.3537,5.324,5.3185,5.3185,5.3185,5.3185,5.3185,5.3185,5.3185,5.3185,5.3002,5.1903,5.1457,5.1341,5.0117,4.9084,4.8512,4.8324,4.8383,4.8568,4.8796,4.9092,4.9431,4.9892,5.014,5.0369,5.0575,5.0683,5.0683,5.0683,5.0683,5.0683,5.0683,5.0683,5.0683,5.0683,5.0683,5.0683,5.0683,5.0683,5.0683,5.0683,5.0683,5.0683,5.0683,5.0683,5.0683,5.0683,5.0643,5.0453,5.0068,4.9659,4.9374,4.9198,4.9695,5.0623,5.1041,5.1922,5.2873,5.3185,5.3185,5.3185,5.3185,5.3185,5.3185,5.3185,5.3185,5.3222,5.35,5.4014,5.4821,5.5647,5.6418,5.7152,5.7685,5.7978,5.7978,5.7978,5.7978,5.7978,5.7978,5.7978,5.7978,5.7997,5.8143,5.829,5.851,5.8914,5.9557,6.0419,6.0915,6.163,6.2199,6.2768,6.2823,6.2823,6.278,6.2686,6.249,6.2041,6.1044,6.0104,5.9179,5.8441,5.8065,5.7881,5.7881,5.7881,5.7881,5.7978,5.7923,5.7042,5.6253,5.55,5.4638,5.3775,5.3277,5.3185,5.3185,5.3185,5.3185,5.3185,5.3185,5.3185,5.3185,5.3151,5.227,5.2153,5.1841,5.1029,4.9966,4.8918,4.8642,4.8729,4.8947,4.8996,4.9412,4.9866,5.0104,5.0347,5.0565,5.0673,5.0683,5.0683,5.0683,5.0683,5.0683,5.0683,5.0683,5.0683,5.0683,5.0683,5.0683,5.0683,5.0683,5.0683,5.0683,5.0683,5.0683,5.0683,5.0683,5.0683,5.0673,5.0483,5.0104,4.9719,4.928,4.9077,4.9325,4.9905,5.071,5.1518,5.2325,5.2986,5.3185,5.3185,5.3185,5.3185,5.3185,5.3185,5.3185,5.3185,5.3332,5.3922,5.4821,5.5519,5.6308,5.7116,5.785,5.7978,5.7978,5.7978,5.7978,5.7978,5.7978,5.7978,5.7978,5.7978,5.7997,5.84,5.8909,5.9184,5.9496,6.0272,6.108,6.1447,6.1906,6.2383,6.2823,6.2823,6.2823,6.2823,6.2686,6.235,6.1659,6.0748,5.9818,5.8926,5.8352,5.7974,5.7881,5.7881,5.7881,5.7881,5.7978,5.7886,5.6455,5.5757,5.5372,5.4087,5.3371,5.3203,5.3185,5.3185,5.3185,5.3185,5.3185,5.3185,5.3185,5.3185,5.3115,5.2463,5.191,5.154,5.1127,5.0704,5.0072,4.9587,4.928,4.9431,4.9687,4.9917,5.0128,5.0391,5.0585,5.0673,5.0683,5.0683,5.0683,5.0683,5.0683,5.0683,5.0683,5.0683,5.0683,5.0683,5.0683,5.0683,5.0683,5.0683,5.0683,5.0683,5.0683,5.0683,5.0683,5.0683,5.0653,5.0421,5.0195,4.9962,4.9412,4.8994,4.9015,4.9418,4.9978,5.0839,5.1646,5.2325,5.3075,5.3185,5.3185,5.3185,5.3185,5.3185,5.3185,5.3185,5.324,5.3537,5.4454,5.5354,5.5706,5.6345,5.7189,5.7758,5.7978,5.7978,5.7978,5.7978,5.7978,5.7978,5.7978,5.7978,5.7978,5.7978,5.8602,5.9239,5.9515,5.9881,6.1043,6.1686,6.1906,6.2163,6.2567,6.2823,6.2823,6.2823,6.2823,6.2541,6.2121,6.1361,6.061,5.9574,5.872,5.8281,5.7937,5.7881,5.7881,5.7881,5.7881,5.7978,5.785,5.6657,5.5923,5.5427,5.4289,5.3573,5.324,5.3185,5.3185,5.3185,5.3185,5.3185,5.3185,5.3185,5.3185,5.3242,5.3235,5.2842,5.2409,5.2016,5.1707,5.1154,5.0501,4.9987,4.9872,4.9962,5.0171,5.038,5.0565,5.0673,5.0683,5.0683,5.0683,5.0683,5.0683,5.0683,5.0683,5.0683,5.0683,5.0683,5.0683,5.0683,5.0683,5.0683,5.0683,5.0683,5.0683,5.0683,5.0683,5.0683,5.0683,5.0624,5.0306,5.0043,4.9728,4.9276,4.9055,4.927,4.9821,5.0545,5.1298,5.2105,5.2656,5.3075,5.3185,5.3185,5.3185,5.3185,5.3185,5.3185,5.3185,5.3295,5.3922,5.4821,5.5684,5.618,5.6859,5.7483,5.7905,5.7978,5.7978,5.7978,5.7978,5.7978,5.7978,5.7978,5.7978,5.7997,5.8125,5.8841,5.941,5.9722,6.0382,6.1649,6.2273,6.2365,6.253,6.2695,6.2823,6.2823,6.2823,6.2823,6.2446,6.2076,6.153,6.0742,5.9654,5.8875,5.8616,5.837,5.8101,5.7881,5.7881,5.7881,5.7978,5.7923,5.7005,5.6216,5.5522,5.4564,5.3775,5.324,5.3185,5.3185,5.3185,5.3185,5.3185,5.3185,5.3185,5.3185,5.3402,5.3995,5.386,5.339,5.3034,5.2623,5.1975,5.1139,5.0442,5.0206,5.0237,5.041,5.0604,5.0683,5.0683,5.0683,5.0683,5.0683,5.0683,5.0683,5.0683,5.0683,5.0683,5.0683,5.0683,5.0683,5.0683,5.0683,5.0683,5.0683,5.0683,5.0683,5.0683,5.0683,5.0683,5.0663,5.0523,5.0237,4.9827,4.9431,4.8996,4.9027,4.9544,5.0273,5.1077,5.194,5.2729,5.3133,5.3185,5.3185,5.3185,5.3185,5.3185,5.3185,5.3185,5.3185,5.361,5.4271,5.5078,5.5904,5.673,5.7501,5.7886,5.796,5.7978,5.7978,5.7978,5.7978,5.7978,5.7978,5.7978,5.7978,5.7997,5.8327,5.9043,5.985,6.0272,6.0915,6.2126,6.2511,6.2633,6.2713,6.2823,6.2823,6.2823,6.2823,6.2755,6.2464,6.2041,6.1548,6.0967,6.0068,5.9443,5.9144,5.8737,5.8406,5.812,5.7937,5.7881,5.7978,5.7868,5.6418,5.5702,5.5372,5.4032,5.335,5.3203,5.3185,5.3185,5.3185,5.3185,5.3185,5.3185,5.3185,5.3185,5.3442,5.4085,5.4368,5.3997,5.3546,5.2962,5.2529,5.1337,5.0692,5.0624,5.0565,5.0614,5.0673,5.0683,5.0683,5.0683,5.0683,5.0683,5.0683,5.0683,5.0683,5.0683,5.0683,5.0683,5.0683,5.0683,5.0683,5.0683,5.0683,5.0683,5.0683,5.0683,5.0683,5.0683,5.0683,5.0523,5.0206,4.9827,4.946,4.9078,4.8804,4.8936,4.9685,5.0417,5.1169,5.194,5.2747,5.3148,5.3185,5.3185,5.3185,5.3185,5.3185,5.3185,5.3185,5.3277,5.3647,5.4344,5.5207,5.5996,5.6804,5.7483,5.7978,5.7978,5.7978,5.7978,5.7978,5.7978,5.7978,5.7978,5.7978,5.7978,5.7978,5.851,5.9281,6.0126,6.0951,6.1704,6.2585,6.2677,6.2768,6.2768,6.2823,6.2823,6.2823,6.2823,6.2661,6.2515,6.2166,6.1705,6.1055,6.041,5.9896,5.9476,5.9061,5.8651,5.8263,5.7881,5.7881,5.7978,5.7831,5.6271,5.5614,5.5317,5.3885,5.3185,5.3185,5.3185,5.3185,5.3185,5.3185,5.3185,5.3185,5.3185,5.3295,5.3662,5.4171,5.4333,5.4059,5.351,5.2895,5.2529,5.1241,5.0818,5.0683,5.0683,5.0683,5.0683,5.0683,5.0683,5.0683,5.0683,5.0683,5.0683,5.0683,5.0683,5.0683,5.0683,5.0683,5.0683,5.0683,5.0683,5.0683,5.0683,5.0683,5.0683,5.0683,5.0683,5.0683,5.0683,5.0358,4.9924,4.9608,4.9311,4.9006,4.8919,4.9297,5.0141,5.0967,5.1793,5.2527,5.3002,5.3148,5.3185,5.3185,5.3185,5.3185,5.3185,5.3185,5.3185,5.3537,5.4179,5.4932,5.5702,5.6492,5.7226,5.7758,5.7923,5.7978,5.7978,5.7978,5.7978,5.7978,5.7978,5.7978,5.7978,5.7978,5.7978,5.8547,5.9281,6.0456,6.1318,6.1998,6.2622,6.2695,6.2658,6.264,6.2823,6.2823,6.2823,6.2823,6.2823,6.273,6.2298,6.1888,6.165,6.1189,6.0519,5.9832,5.9394,5.8909,5.8246,5.7881,5.7881,5.7905,5.7629,5.622,5.55,5.5115,5.383,5.3185,5.3185,5.3185,5.3185,5.3185,5.3185,5.3185,5.3185,5.323,5.3422,5.3795,5.414,5.4008,5.3765,5.3138,5.25,5.1865,5.1164,5.0683,5.0683,5.0683,5.0683,5.0683,5.0683,5.0683,5.0683,5.0683,5.0683,5.0683,5.0683,5.0683,5.0683,5.0683,5.0683,5.0683,5.0683,5.0683,5.0683,5.0683,5.0683,5.0683,5.0683,5.0614,5.0565,5.0472,5.0195,4.957,4.954,4.9449,4.9166,4.9343,5.0035,5.093,5.1518,5.2215,5.2986,5.313,5.3185,5.3185,5.3185,5.3185,5.3185,5.3185,5.3185,5.3277,5.3922,5.4675,5.5464,5.6253,5.706,5.7593,5.796,5.7941,5.7978,5.7978,5.7978,5.7978,5.7978,5.7978,5.7978,5.7978,5.7978,5.8033,5.84,5.9226,6.0621,6.1612,6.2218,6.2603,6.2658,6.2493,6.2273,6.2603,6.2823,6.2823,6.2823,6.2823,6.278,6.2541,6.2148,6.2068,6.186,6.116,6.0471,5.9815,5.9078,5.8298,5.7918,5.7881,5.7593,5.6877,5.5959,5.5188,5.4473,5.357,5.3185,5.3185,5.3185,5.3185,5.3185,5.3185,5.3185,5.3185,5.3185,5.3442,5.3646,5.3579,5.3587,5.3473,5.267,5.2077,5.175,5.1068,5.0741,5.0683,5.0683,5.0683,5.0683,5.0683,5.0683,5.0683,5.0683,5.0683,5.0683,5.0683,5.0683,5.0683,5.0683,5.0683,5.0683,5.0683,5.0683,5.0683,5.0683,5.0683,5.0683,5.0634,5.0514,5.0218,5.0183,4.9773,4.9236,4.9674,4.9766,4.962,4.9703,5.0271,5.1499,5.2013,5.2399,5.3059,5.3185,5.3185,5.3185,5.3185,5.3185,5.3185,5.3185,5.3185,5.3332,5.3977,5.473,5.5556,5.6436,5.7189,5.7795,5.7978,5.7978,5.7978,5.7978,5.7978,5.7978,5.7978,5.7978,5.7978,5.7978,5.7978,5.8217,5.8657,5.9189,6.0566,6.1814,6.2456,6.2622,6.2677,6.253,6.2144,6.242,6.2805,6.2823,6.2823,6.2823,6.273,6.2541,6.249,6.2464,6.2192,6.1677,6.1044,6.0304,5.9279,5.8173,5.7974,5.7918,5.7116,5.6712,5.5427,5.4711,5.4326,5.3534,5.3185,5.3185,5.3185,5.3185,5.3185,5.3185,5.3185,5.3185,5.3185,5.3422,5.3628,5.3391,5.3137,5.3048,5.2313,5.1654,5.1221,5.0875,5.0702,5.0683,5.0683,5.0683,5.0683,5.0683,5.0683,5.0683,5.0683,5.0683,5.0683,5.0683,5.0683,5.0683,5.0683,5.0683,5.0683,5.0683,5.0683,5.0683,5.0683,5.0683,5.0634,5.0432,5.0313,5.0056,4.9924,4.9768,4.9643,4.9962,5.0249,5.1011,5.0969,5.1316,5.1922,5.2399,5.2821,5.3059,5.3185,5.3185,5.3185,5.3185,5.3185,5.3185,5.3185,5.3203,5.3479,5.4381,5.5023,5.5794,5.6693,5.7281,5.7831,5.7886,5.7978,5.7978,5.7978,5.7978,5.7978,5.7978,5.7978,5.7978,5.7997,5.8033,5.851,5.9208,5.9795,6.0529,6.1686,6.2695,6.2713,6.2713,6.2713,6.2475,6.2511,6.2805,6.2805,6.2823,6.2823,6.2823,6.2705,6.273,6.2823,6.2567,6.2121,6.1436,6.0718,5.9704,5.8703,5.8027,5.7991,5.651,5.6363,5.4987,5.4289,5.4069,5.3463,5.3185,5.3185,5.3185,5.3185,5.3185,5.3185,5.3185,5.3185,5.323,5.3484,5.3957,5.344,5.3073,5.2653,5.2132,5.1471,5.0991,5.0683,5.0683,5.0683,5.0683,5.0683,5.0683,5.0683,5.0683,5.0683,5.0683,5.0683,5.0683,5.0683,5.0683,5.0683,5.0683,5.0683,5.0683,5.0683,5.0683,5.0683,5.0683,5.0663,5.0523,5.0313,5.0135,4.9706,4.9504,4.9402,4.9448,4.9972,5.0601,5.1377,5.1701,5.2197,5.2509,5.2821,5.313,5.3185,5.3185,5.3185,5.3185,5.3185,5.3185,5.3185,5.3185,5.3295,5.3739,5.4803,5.5519,5.6271,5.7134,5.7611,5.7978,5.7978,5.7978,5.7978,5.7978,5.7978,5.7978,5.7978,5.7978,5.7978,5.8015,5.807,5.8731,5.9557,6.0272,6.0896,6.1832,6.264,6.242,6.2475,6.2567,6.2713,6.275,6.2805,6.2805,6.2823,6.2823,6.2823,6.2823,6.2823,6.2823,6.273,6.2541,6.176,6.0967,6.0225,5.9344,5.8546,5.801,5.5684,5.5633,5.4748,5.3959,5.3335,5.3222,5.3185,5.3185,5.3185,5.3185,5.3185,5.3185,5.3185,5.3185,5.3251,5.3622,5.4336,5.3569,5.3157,5.2793,5.2288,5.1471,5.0933,5.0683,5.0683,5.0683,5.0683,5.0683,5.0683,5.0683,5.0683,5.0683,5.0683,5.0683,5.0683,5.0683,5.0683,5.0683,5.0683,5.0683,5.0683,5.0683,5.0683,5.0683,5.0663,5.0534,5.0171,5.0031,4.9746,4.9171,4.9029,4.9146,4.9344,5.0079,5.0845,5.1559,5.2399,5.2821,5.3002,5.3038,5.3148,5.3185,5.3185,5.3185,5.3185,5.3185,5.3185,5.3295,5.3424,5.3739,5.4289,5.5078,5.5978,5.6583,5.7262,5.7721,5.7978,5.7978,5.7978,5.7978,5.7978,5.7978,5.7978,5.7978,5.7978,5.7978,5.8052,5.8125,5.8951,5.9758,6.0603,6.1337,6.2163,6.2493,6.1979,6.2089,6.2548,6.264,6.264,6.2732,6.2823,6.2823,6.2823,6.2823,6.2823,6.2823,6.2823,6.2755,6.2515,6.1924,6.1211,6.0514,5.9604,5.872,5.8263,5.5614,5.5464,5.4216,5.35,5.3185,5.3185,5.3185,5.3185,5.3185,5.3185,5.3185,5.3185,5.3185,5.3185,5.3185,5.3336,5.3628,5.3426,5.2971,5.2469,5.1944,5.1431,5.0952,5.076,5.0683,5.0712,5.0702,5.0683,5.0683,5.0683,5.0683,5.0683,5.0683,5.0683,5.0683,5.0683,5.0683,5.0683,5.0683,5.0683,5.0683,5.0683,5.0683,5.0683,5.0399,5.0283,5.0037,4.9589,4.9215,4.8911,4.8675,4.8956,4.9521,5.0417,5.1187,5.194,5.2837,5.3093,5.3185,5.3185,5.3185,5.3185,5.3185,5.3185,5.3185,5.3185,5.3518,5.372,5.3904,5.4197,5.506,5.5849,5.6565,5.695,5.7354,5.7813,5.7978,5.7978,5.7978,5.7978,5.7978,5.7978,5.7978,5.7978,5.7978,5.7978,5.807,5.8327,5.9208,6.001,6.0878,6.1594,6.2383,6.2732,6.2291,6.2438,6.2677,6.2622,6.2567,6.2695,6.2823,6.2823,6.2823,6.2823,6.2823,6.2823,6.2823,6.2823,6.2592,6.2227,6.1614,6.0843,5.9925,5.8909,5.8564,5.5464,5.5078,5.3775,5.3185,5.3185,5.3185,5.3185,5.3185,5.3185,5.3185,5.3185,5.3185,5.3185,5.3185,5.3185,5.3442,5.3646,5.3639,5.3271,5.3008,5.277,5.2028,5.1491,5.126,5.1356,5.0971,5.0991,5.1068,5.0683,5.0683,5.0683,5.0683,5.0683,5.0683,5.0683,5.0683,5.0653,5.0554,5.0663,5.0575,5.0554,5.0634,5.0683,5.0624,5.0336,5.0043,4.9787,4.9322,4.893,4.8692,4.8624,4.9097,4.9939,5.082,5.1555,5.2399,5.3059,5.3167,5.3185,5.3185,5.3185,5.3185,5.3185,5.3185,5.3185,5.3222,5.3518,5.4216,5.4399,5.4821,5.5721,5.6455,5.695,5.7299,5.7593,5.7978,5.7978,5.7978,5.7978,5.7978,5.7978,5.7978,5.7978,5.7978,5.8015,5.8162,5.8492,5.8877,5.9685,6.0493,6.1227,6.1887,6.2511,6.2713,6.2787,6.2768,6.2732,6.2732,6.2713,6.2732,6.2823,6.2823,6.2823,6.2823,6.2823,6.2823,6.2823,6.2823,6.2823,6.2755,6.187,6.0802,6.01,5.9162,5.8875,5.5115,5.4344,5.3573,5.3185,5.3185,5.3185,5.3185,5.3185,5.3185,5.3185,5.3185,5.3185,5.3185,5.3185,5.3185,5.3543,5.4085,5.4274,5.4183,5.3991,5.3857,5.3192,5.2626,5.2299,5.2125,5.1221,5.1414,5.1548,5.0798,5.0914,5.0856,5.077,5.0827,5.0798,5.0721,5.0731,5.0532,5.0275,5.061,5.0607,5.0631,5.076,5.0776,5.0715,5.0333,4.9979,4.946,4.9078,4.873,4.8679,4.8438,4.8985,5.0051,5.0582,5.1298,5.2179,5.2894,5.3148,5.3185,5.3185,5.3185,5.3185,5.3185,5.3185,5.3203,5.3335,5.3702,5.4583,5.473,5.5372,5.6161,5.6895,5.7317,5.7593,5.7868,5.7978,5.7978,5.7978,5.7978,5.7978,5.7978,5.7978,5.7978,5.7997,5.8052,5.829,5.8804,5.9404,6.0144,6.0841,6.1557,6.2126,6.2658,6.2713,6.2823,6.2823,6.2805,6.2823,6.2823,6.2823,6.2823,6.2823,6.2823,6.2823,6.2823,6.2823,6.2823,6.2823,6.2823,6.2661,6.1566,6.058,5.996,5.9493,5.9195,5.4656,5.4344,5.3555,5.3185,5.3185,5.3185,5.3185,5.3185,5.3185,5.3185,5.3185,5.3185,5.3185,5.3185,5.323,5.3524,5.4014,5.4417,5.443,5.4134,5.4394,5.3778,5.3203,5.3049,5.2914,5.2587,5.2645,5.2318,5.1529,5.151,5.1106,5.0914,5.1279,5.1144,5.101,5.1086,5.1327,5.1059,5.1291,5.1549,5.1648,5.1353,5.1117,5.1105,5.0515,4.9896,4.9329,4.9003,4.8882,4.9004,4.8857,4.9315,5.0508,5.1206,5.1444,5.2399,5.3167,5.3167,5.3185,5.3185,5.3185,5.3185,5.3185,5.3185,5.3203,5.3757,5.4363,5.506,5.5537,5.6363,5.7336,5.7556,5.7813,5.7831,5.7978,5.7978,5.7978,5.7978,5.7978,5.7978,5.7978,5.7978,5.7978,5.8235,5.8345,5.8712,5.9245,5.9722,6.0364,6.108,6.1777,6.2328,6.2768,6.2787,6.2823,6.2823,6.2823,6.2823,6.2823,6.2823,6.2823,6.2823,6.2823,6.2823,6.2823,6.2823,6.2823,6.2823,6.2823,6.242,6.165,6.0926,6.0397,5.9928,5.9443,5.4234,5.394,5.3427,5.3185,5.3185,5.3185,5.3185,5.3185,5.3185,5.3185,5.3185,5.3185,5.3185,5.3185,5.323,5.3583,5.4013,5.4319,5.4781,5.4434,5.4759,5.4365,5.3953,5.3818,5.3683,5.3549,5.3414,5.3126,5.1923,5.2212,5.2106,5.1952,5.2068,5.2068,5.1933,5.2114,5.2066,5.1863,5.1981,5.2257,5.2196,5.1973,5.1789,5.1551,5.1043,5.0312,4.98,4.951,4.9407,4.9664,4.9829,5.005,5.1261,5.1756,5.1903,5.2782,5.3185,5.3185,5.3185,5.3185,5.3185,5.3185,5.3185,5.3185,5.3332,5.3885,5.4675,5.5482,5.6326,5.7116,5.7758,5.7923,5.7978,5.7978,5.7978,5.7978,5.7978,5.7978,5.7978,5.7978,5.7978,5.7978,5.8052,5.8437,5.8694,5.9189,5.9722,6.0199,6.0713,6.1429,6.2034,6.2475,6.2823,6.2823,6.2823,6.2823,6.2823,6.2823,6.2823,6.2823,6.2823,6.2823,6.2823,6.278,6.2755,6.2755,6.278,6.2823,6.2755,6.2661,6.2368,6.1677,6.0938,6.0256,5.9606,5.3922,5.324,5.3185,5.3185,5.3185,5.3185,5.3185,5.3185,5.3185,5.3185,5.3185,5.3185,5.3185,5.3185,5.3185,5.3662,5.4307,5.4452,5.4903,5.5351,5.5432,5.5011,5.4934,5.503,5.4607,5.4087,5.3895,5.3818,5.2308,5.2596,5.2933,5.3029,5.3087,5.3087,5.3126,5.3174,5.2881,5.2549,5.2685,5.2806,5.2611,5.2423,5.2347,5.2103,5.1626,5.1136,5.0769,5.0597,5.064,5.0729,5.0747,5.1261,5.1738,5.1977,5.2509,5.2928,5.3167,5.3185,5.3185,5.3185,5.3185,5.3185,5.3185,5.3185,5.3405,5.394,5.473,5.5519,5.6326,5.7134,5.7813,5.7905,5.7978,5.7978,5.7978,5.7978,5.7978,5.7978,5.7978,5.7978,5.7978,5.8015,5.8125,5.8455,5.9098,5.9703,6.0291,6.1062,6.1557,6.2034,6.2493,6.2567,6.2823,6.2823,6.2823,6.2823,6.2823,6.2823,6.2823,6.2823,6.2823,6.2823,6.2823,6.278,6.2712,6.2712,6.2755,6.273,6.2661,6.2585,6.2585,6.2148,6.1361,6.0256,5.9671,5.3408,5.3185,5.3185,5.3185,5.3185,5.3185,5.3185,5.3185,5.3185,5.3185,5.3185,5.3185,5.3185,5.3185,5.3206,5.3758,5.4206,5.4613,5.5048,5.5423,5.5684,5.5549,5.5511,5.5511,5.5299,5.5184,5.4991,5.4684,5.3799,5.3626,5.326,5.3203,5.3876,5.4068,5.4194,5.4395,5.3691,5.3219,5.3389,5.3352,5.3067,5.2815,5.2785,5.249,5.2177,5.169,5.1259,5.1088,5.1169,5.1573,5.1077,5.1389,5.2747,5.238,5.2344,5.3057,5.3185,5.3185,5.3185,5.3185,5.3185,5.3185,5.3185,5.3185,5.3405,5.394,5.473,5.5519,5.6326,5.7134,5.774,5.7941,5.7978,5.7978,5.7978,5.7978,5.7978,5.7978,5.7978,5.7978,5.7978,5.8125,5.8253,5.8822,5.9483,6.0144,6.086,6.1667,6.2199,6.2585,6.2768,6.2805,6.2823,6.2823,6.2823,6.2823,6.2823,6.2823,6.2823,6.2823,6.2823,6.2823,6.2823,6.273,6.2618,6.2661,6.2773,6.261,6.2298,6.2636,6.2636,6.2227,6.1687,6.0742,5.996,5.3185,5.3185,5.3185,5.3185,5.3185,5.3185,5.3185,5.3185,5.3185,5.3185,5.3185,5.3185,5.3185,5.3185,5.323,5.3662,5.4455,5.455,5.4919,5.5524,5.5684,5.5665,5.5684,5.5684,5.5626,5.5684,5.5588,5.5145,5.4568,5.4164,5.3818,5.4337,5.4818,5.4781,5.4829,5.4798,5.4391,5.3939,5.377,5.3887,5.3616,5.3237,5.3144,5.294,5.2627,5.2149,5.1775,5.1662,5.2013,5.2399,5.1867,5.2142,5.3151,5.2747,5.2582,5.3167,5.3185,5.3185,5.3185,5.3185,5.3185,5.3185,5.3185,5.3185,5.346,5.394,5.473,5.5519,5.6326,5.7079,5.7574,5.7978,5.7978,5.7978,5.7978,5.7978,5.7978,5.7978,5.7978,5.7978,5.8088,5.8235,5.8621,5.9221,5.9979,6.0805,6.1502,6.2126,6.2493,6.2677,6.2805,6.2805,6.2823,6.2823,6.2823,6.2823,6.2823,6.2823,6.2823,6.2823,6.2823,6.2798,6.2798,6.2661,6.2471,6.2446,6.2316,6.2049,6.1842,6.22,6.2541,6.2298,6.1951,6.1502,6.0849,5.3185,5.3185,5.3185,5.3185,5.3185,5.3185,5.3185,5.3185,5.3185,5.3185,5.3185,5.3185,5.3185,5.3185,5.3227,5.37,5.429,5.4535,5.4938,5.5673,5.5684,5.5684,5.5684,5.5684,5.5684,5.5684,5.5607,5.5395,5.4876,5.4626,5.4895,5.5684,5.5588,5.5381,5.5059,5.4939,5.4538,5.4117,5.3928,5.3937,5.3758,5.3683,5.3758,5.3608,5.333,5.3057,5.3075,5.3112,5.3185,5.3167,5.3151,5.3093,5.3112,5.3148,5.3148,5.3167,5.3185,5.3185,5.3185,5.3185,5.3185,5.3185,5.3185,5.3185,5.3442,5.3702,5.4363,5.5354,5.6198,5.7024,5.7593,5.7905,5.7978,5.7978,5.7978,5.7978,5.7978,5.7978,5.7978,5.7978,5.8015,5.8253,5.8933,5.9533,6.0309,6.1337,6.2089,6.2622,6.275,6.2805,6.2823,6.2823,6.2823,6.2823,6.2823,6.2823,6.2823,6.2823,6.2823,6.2823,6.2823,6.2798,6.2773,6.2394,6.1969,6.1815,6.1632,6.1389,6.1389,6.177,6.2049,6.22,6.2094,6.1915,6.1304,5.3185,5.3185,5.3185,5.3185,5.3185,5.3185,5.3185,5.3185,5.3185,5.3185,5.3185,5.3185,5.3185,5.3185,5.3206,5.3662,5.429,5.4516,5.5007,5.5477,5.5673,5.5684,5.5684,5.5684,5.5684,5.5684,5.5645,5.5598,5.5357,5.5357,5.5434,5.5665,5.5684,5.5489,5.5048,5.4848,5.45,5.4085,5.3758,5.3623,5.3462,5.3359,5.3318,5.3339,5.3185,5.3185,5.3185,5.3185,5.3185,5.3185,5.3185,5.3167,5.3185,5.3185,5.3185,5.3185,5.3185,5.3185,5.3185,5.3185,5.3185,5.3185,5.3185,5.3185,5.3259,5.3405,5.4014,5.5078,5.6037,5.684,5.7556,5.7795,5.7978,5.7978,5.7978,5.7978,5.7978,5.7978,5.7978,5.7978,5.7978,5.8474,5.9153,5.9905,6.0694,6.1484,6.2273,6.2743,6.2787,6.2823,6.2823,6.2823,6.2823,6.2823,6.2823,6.2823,6.2823,6.2823,6.2823,6.2823,6.2823,6.2798,6.2705,6.1888,6.1389,6.1304,6.1142,6.079,6.0879,6.1314,6.1897,6.2174,6.242,6.2342,6.1548,5.3185,5.3185,5.3185,5.3185,5.3185,5.3185,5.3185,5.3185,5.3185,5.3185,5.3185,5.3185,5.3185,5.3185,5.3206,5.3504,5.417,5.4404,5.4833,5.5294,5.564,5.5684,5.5684,5.5684,5.5684,5.5684,5.5684,5.5684,5.5684,5.5684,5.5665,5.5684,5.5662,5.5423,5.4919,5.4597,5.4307,5.3888,5.342,5.3251,5.3206,5.3206,5.3206,5.3185,5.3185,5.3185,5.3185,5.3185,5.3185,5.3185,5.3185,5.3185,5.3185,5.3185,5.3185,5.3185,5.3185,5.3185,5.3185,5.3185,5.3185,5.3185,5.3185,5.3185,5.3185,5.3405,5.4087,5.51,5.5596,5.6345,5.7464,5.796,5.7978,5.7978,5.7978,5.7978,5.7978,5.7978,5.7978,5.7978,5.8088,5.8382,5.9116,5.9905,6.0713,6.1502,6.231,6.2787,6.2805,6.2823,6.2823,6.2823,6.2823,6.2823,6.2823,6.2823,6.2823,6.2823,6.2823,6.2823,6.2823,6.2798,6.2559,6.186,6.1304,6.1026,6.079,6.0458,6.0489,6.0879,6.1576,6.2245,6.2446,6.249,6.1658,5.3185,5.3185,5.3185,5.3185,5.3185,5.3185,5.3185,5.3185,5.3185,5.3185,5.3185,5.3185,5.3185,5.3185,5.3206,5.3485,5.3833,5.4305,5.4745,5.516,5.5535,5.5651,5.5684,5.5684,5.5684,5.5684,5.5684,5.5684,5.5684,5.5684,5.5684,5.5684,5.5554,5.5326,5.475,5.4423,5.4223,5.3682,5.3318,5.3272,5.323,5.3227,5.3206,5.3185,5.3185,5.3185,5.3185,5.3185,5.3185,5.3185,5.3185,5.3185,5.3185,5.3185,5.3185,5.3185,5.3185,5.3185,5.3185,5.3185,5.3185,5.3185,5.3185,5.3185,5.3185,5.3537,5.4197,5.4895,5.539,5.6088,5.7207,5.7978,5.7978,5.7978,5.7978,5.7978,5.7978,5.7978,5.7978,5.7978,5.8162,5.84,5.9116,5.9905,6.0713,6.1502,6.2126,6.253,6.2823,6.2823,6.2823,6.2823,6.2823,6.2823,6.2823,6.2823,6.2823,6.2823,6.2823,6.2823,6.2823,6.2798,6.2541,6.1969,6.1446,6.1037,6.0653,6.0318,6.0427,6.0458,6.1304,6.1996,6.2094,6.2032,6.1505,5.3185,5.3185,5.3185,5.3185,5.3185,5.3185,5.3185,5.3185,5.3185,5.3185,5.3185,5.3185,5.3185,5.3185,5.3185,5.3402,5.3739,5.4238,5.4701,5.5134,5.5501,5.5651,5.5684,5.5684,5.5684,5.5684,5.5684,5.5684,5.5684,5.5684,5.5684,5.5684,5.5684,5.5319,5.4659,5.4406,5.4187,5.3643,5.3339,5.3293,5.3444,5.3402,5.3227,5.3185,5.3185,5.3185,5.3185,5.3185,5.3185,5.3185,5.3185,5.3185,5.3185,5.3185,5.3185,5.3185,5.3185,5.3185,5.3185,5.3185,5.3185,5.3185,5.3185,5.3185,5.3185,5.3203,5.4051,5.5078,5.5611,5.6088,5.7024,5.7758,5.7978,5.7978,5.7978,5.7978,5.7978,5.7978,5.7978,5.7978,5.8033,5.8492,5.9116,5.9905,6.0694,6.1502,6.231,6.2677,6.2805,6.2823,6.2823,6.2823,6.2823,6.2823,6.2823,6.2823,6.2823,6.2823,6.2823,6.2823,6.2823,6.2823,6.2471,6.187,6.1456,6.1095,6.0695,6.0194,5.9974,6.01,6.1008,6.1641,6.177,6.1676,6.1241]}]]